[[[{"header":{"parameterUnit":"kt","parameterCategory":2,"dx":1,"dy":1,"la1":29.285339999999998,"la2":30.599998999999997,"lo1":-89.70041500000002,"lo2":-87.6738589999976,"nx":112,"ny":82,"refTime":"2022-09-23T18:00:00:Z","depth":0,"parameterNumber":1,"parameterNumberName":"U-component_of_WINDS"},"data":[15.7886,15.9135,15.9464,15.3283,15.2963,15.14,14.096,13.7129,13.483,0.0,0.0,0.0,0.0,0.0,0.0,0.0,0.0,0.0,0.0,12.6131,12.649,12.7328,13.0799,13.4329,13.75,14.6447,15.1234,14.9256,15.5417,15.7664,15.3922,15.4553,15.545,15.6348,15.7997,15.9134,15.9553,16.1708,16.4067,16.6664,16.8076,17.011,17.2683,17.2683,17.2922,17.3401,17.3401,17.3401,17.3341,17.2862,17.376,17.5158,17.3401,17.382,17.5158,17.3879,17.3401,17.3401,17.3401,17.3401,17.3401,17.3401,17.3401,17.3401,17.3401,17.3401,17.358,17.4538,17.4119,17.364,17.4538,17.4119,17.3401,17.3401,17.3401,17.3401,17.3401,17.3401,17.3401,17.3401,17.3401,17.3401,17.3401,17.3401,17.37,17.4538,17.5039,17.6116,17.8269,17.8889,17.9705,18.1,18.1179,18.1179,18.1179,18.2949,18.4056,18.4056,18.5444,18.6654,18.7488,18.9622,19.1409,19.2747,19.4572,19.5541,19.6122,19.534,19.495,19.495,19.495,19.495,15.2888,15.3587,15.3587,14.7341,14.7956,14.7562,13.8074,13.5347,0.0,0.0,0.0,0.0,0.0,0.0,0.0,0.0,0.0,0.0,0.0,12.5294,12.679,12.8557,13.2953,13.6902,13.9594,14.8601,15.2491,14.8059,15.545,15.8083,15.3264,15.4699,15.6109,15.7006,15.8715,16.0032,16.093,16.3468,16.5921,16.8135,16.993,17.1725,17.3401,17.3401,17.3401,17.3401,17.3401,17.3401,17.3401,17.3401,17.4179,17.5218,17.3939,17.4179,17.5158,17.3879,17.3401,17.3401,17.3401,17.3401,17.3401,17.3401,17.3401,17.3401,17.3401,17.3401,17.3401,17.3401,17.3401,17.3401,17.3401,17.3401,17.3401,17.3401,17.3401,17.3401,17.3401,17.3401,17.3401,17.3401,17.3401,17.3401,17.3401,17.3401,17.382,17.5099,17.5697,17.6774,17.8949,17.9645,18.0184,18.106,18.1179,18.1179,18.1179,18.2987,18.4504,18.5259,18.7741,18.9383,18.9974,19.1052,19.2014,19.2797,19.4249,19.479,19.4275,19.479,19.479,19.4339,19.479,19.518,14.7407,14.4777,14.3857,13.9517,13.8597,13.8641,13.8444,0.0,13.4728,0.0,0.0,0.0,0.0,0.0,0.0,0.0,0.0,0.0,0.0,12.4037,12.7567,13.0053,13.3671,13.8128,14.3454,14.6595,14.8119,14.7971,15.1681,15.4493,15.563,15.575,15.6946,15.9493,15.9673,16.093,16.3528,16.6125,16.8135,16.9608,17.2144,17.3401,17.3401,17.3401,17.3401,17.3401,17.3401,17.3401,17.3401,17.3401,17.4142,17.5099,17.3879,17.4179,17.5099,17.3879,17.3401,17.3401,17.3401,17.3401,17.3401,17.3401,17.3401,17.3401,17.3401,17.3401,17.3401,17.3401,17.3401,17.3401,17.3401,17.3401,17.3401,17.3401,17.3401,17.3401,17.3401,17.3401,17.3401,17.3401,17.3401,17.3401,17.3401,17.3401,17.3879,17.5158,17.6475,17.7791,17.9069,18.0401,18.1119,18.1119,18.1235,18.1312,18.1214,18.1389,18.244,18.4788,18.7705,19.0115,19.1738,19.1773,19.2734,19.4755,19.4983,19.4339,19.302,19.4339,19.4339,19.3084,19.4404,19.5348,13.8882,13.9539,14.0854,13.658,0.0,0.0,0.0,0.0,0.0,0.0,0.0,0.0,0.0,0.0,0.0,0.0,0.0,13.038,12.649,13.2653,13.7529,13.729,13.8188,14.0881,14.6176,15.4254,15.7186,15.2459,15.6647,15.8322,15.5869,15.6621,15.7877,15.9553,16.1374,16.3169,16.4904,16.7537,16.9571,17.0948,17.2623,17.3401,17.3401,17.3401,17.3401,17.3401,17.3401,17.3401,17.3401,17.3401,17.364,17.3879,17.352,17.364,17.3879,17.352,17.3401,17.3401,17.3401,17.3401,17.3401,17.3401,17.3401,17.3401,17.3401,17.3401,17.3401,17.3401,17.3401,17.3401,17.3401,17.3401,17.3401,17.3401,17.3401,17.3401,17.3401,17.3401,17.3401,17.3401,17.3401,17.3401,17.3401,17.3401,17.4179,17.6415,17.7073,17.809,18.0342,18.094,18.082,17.9884,18.2556,18.404,18.3101,18.5927,18.8752,19.1029,19.3078,19.4355,19.4981,19.4383,19.3869,19.3566,19.4565,19.4339,19.302,19.4339,19.479,19.437,19.4757,19.5147,0.0,0.0,0.0,0.0,0.0,0.0,13.5205,0.0,13.243,0.0,0.0,0.0,0.0,0.0,0.0,0.0,13.014,13.2562,12.8644,13.5047,14.0342,14.0701,14.4172,14.6686,14.6894,15.2937,15.575,15.3024,15.569,15.6886,15.575,15.698,15.851,16.0331,16.1853,16.3827,16.6185,16.8375,17.0206,17.1486,17.2743,17.3401,17.3401,17.3401,17.3401,17.3401,17.3401,17.3401,17.3401,17.3401,17.3401,17.3401,17.3401,17.3401,17.3401,17.3401,17.3401,17.3401,17.3401,17.3401,17.3401,17.3401,17.3401,17.3401,17.3401,17.3401,17.3401,17.3401,17.3401,17.3401,17.3401,17.3401,17.3401,17.3401,17.3401,17.3401,17.3401,17.3401,17.3401,17.3401,17.3401,17.3401,17.3401,17.3401,17.4119,17.6175,17.6953,17.7791,17.9384,18.0042,18.03,18.0199,18.2442,18.4085,18.4573,18.6952,18.9685,19.2528,19.3389,19.4214,19.5197,19.3961,19.2891,19.2151,19.2891,19.2601,19.1248,19.318,19.3824,19.3244,19.437,19.4564,0.0,0.0,0.0,0.0,13.3687,0.0,0.0,0.0,13.5651,13.3743,0.0,13.2217,12.9682,0.0,0.0,12.6018,13.1158,13.4118,13.0021,13.5047,14.0073,14.2497,15.0005,15.2725,14.7014,14.7492,14.9256,15.1888,15.2095,15.3204,15.5776,15.7159,15.8955,16.1468,16.1827,16.3767,16.7561,16.9033,17.0386,17.1666,17.2862,17.3401,17.3401,17.3401,17.3401,17.3401,17.3401,17.3401,17.3401,17.3401,17.3401,17.3401,17.3401,17.3401,17.3401,17.3401,17.3401,17.3401,17.3401,17.3401,17.3401,17.3401,17.3401,17.3401,17.3401,17.3401,17.3401,17.3401,17.3401,17.3401,17.3401,17.3401,17.3401,17.3401,17.3401,17.3401,17.3401,17.3401,17.3401,17.3401,17.3401,17.3401,17.3401,17.3401,17.382,17.5099,17.6295,17.7133,17.7252,17.8693,18.0095,18.1251,18.2212,18.3704,18.593,18.6567,18.8215,19.1554,19.1118,19.1678,19.3676,19.1929,19.0798,19.0669,19.0798,19.0186,18.8705,19.1603,19.2183,19.0734,19.3309,19.3888,0.0,0.0,0.0,0.0,0.0,13.1824,0.0,0.0,0.0,13.8647,13.7928,13.6558,13.6029,13.6871,13.711,13.5406,14.0731,14.3364,13.8367,14.3304,14.7581,14.8119,14.9734,15.0751,15.048,15.0751,15.2007,15.4699,15.4939,15.563,15.7159,15.8476,15.9912,16.1468,16.3588,16.6101,16.9033,17.0409,17.1725,17.3042,17.3281,17.3401,17.3401,17.3401,17.3401,17.3401,17.3401,17.3401,17.3401,17.3401,17.3401,17.3401,17.3401,17.3401,17.3401,17.3401,17.3401,17.3401,17.3401,17.3401,17.3401,17.3401,17.3401,17.3401,17.3401,17.3401,17.3401,17.3401,17.3401,17.3401,17.3401,17.3401,17.3401,17.3401,17.3401,17.3401,17.3401,17.3401,17.3401,17.3401,17.3401,17.3401,17.3401,17.3401,17.382,17.5099,17.5517,17.6116,17.7133,18.0539,18.2099,18.0153,18.616,18.9673,18.8024,19.1051,19.3131,19.3333,19.273,19.238,19.2284,19.138,19.0315,18.9188,19.0315,19.0186,18.8705,19.1603,19.1667,18.9188,19.0894,19.1538,0.0,0.0,0.0,12.7723,0.0,0.0,0.0,13.7154,13.882,13.9821,14.0764,14.0984,13.9565,13.9684,13.9923,13.9863,14.3723,14.6296,14.4979,14.764,14.9674,14.9674,15.0871,15.1708,15.1616,15.2905,15.4221,15.5597,15.6288,15.698,15.7612,15.827,15.9493,16.1468,16.3408,16.6041,16.9488,17.0768,17.2084,17.3401,17.3401,17.3401,17.3401,17.3401,17.3401,17.3401,17.3401,17.3401,17.3401,17.3401,17.3401,17.3401,17.3401,17.3401,17.3401,17.3401,17.3401,17.3401,17.3401,17.3401,17.3401,17.3401,17.3401,17.3401,17.3401,17.3401,17.3401,17.3401,17.3401,17.3401,17.3401,17.3401,17.3401,17.3401,17.3401,17.3401,17.3401,17.3401,17.3401,17.3401,17.3401,17.3401,17.3401,17.3401,17.364,17.4298,17.4919,17.5338,17.5338,17.9673,18.2478,18.1918,18.6951,19.0412,19.0477,19.1778,19.2631,19.2741,19.2399,19.1774,19.0827,19.0475,18.9477,18.7707,18.8351,18.8415,18.7675,18.9832,18.9767,18.7771,18.9864,19.0508,0.0,0.0,0.0,0.0,0.0,0.0,13.5165,13.9412,14.2709,14.2164,14.4065,14.5326,14.3233,14.2519,14.2497,14.3275,14.5398,14.764,14.9734,15.0332,15.0572,15.0811,15.2578,15.3416,15.2486,15.464,15.6109,15.6109,15.7279,15.8031,15.8031,15.7791,15.8955,16.1827,16.3169,16.5682,16.9488,17.1007,17.2384,17.3401,17.3401,17.3401,17.3401,17.3401,17.3401,17.3401,17.3401,17.3401,17.3401,17.3401,17.3401,17.3401,17.3401,17.3401,17.3401,17.3401,17.3401,17.3401,17.3401,17.3401,17.3401,17.3401,17.3401,17.3401,17.3401,17.3401,17.3401,17.3401,17.3401,17.3401,17.3401,17.3401,17.3401,17.3401,17.3401,17.3401,17.3401,17.3401,17.3401,17.3401,17.3401,17.3401,17.3401,17.3401,17.3401,17.3401,17.45,17.518,17.4705,17.9521,18.3507,18.4799,18.7736,19.0323,19.203,19.116,19.0787,19.1385,19.1297,19.0681,18.9558,18.9369,18.8472,18.6676,18.6612,18.6612,18.6612,18.7771,18.7739,18.6676,18.8962,18.9413,0.0,0.0,0.0,12.5796,12.8886,0.0,13.9528,14.1439,14.3942,15.0741,15.0544,14.9422,15.0268,15.0388,14.9973,14.8957,15.0033,15.1078,15.1409,15.2486,15.3775,15.4879,15.4314,15.4134,15.5118,15.6561,15.7432,15.7432,15.8596,15.9374,15.9374,15.8237,15.9374,16.3109,16.4545,16.658,16.9488,17.1965,17.3281,17.3401,17.3401,17.3401,17.3401,17.3401,17.3401,17.3401,17.3401,17.3401,17.3401,17.3401,17.3401,17.3401,17.3401,17.3401,17.3401,17.3401,17.3401,17.3401,17.3401,17.3401,17.3401,17.3401,17.3401,17.3401,17.3401,17.3401,17.3401,17.3401,17.3401,17.3401,17.3401,17.3401,17.3401,17.3401,17.3401,17.3401,17.3401,17.3401,17.3401,17.3401,17.3401,17.3401,17.3401,17.3401,17.3401,17.3401,17.45,17.6236,17.8784,18.3958,18.7554,18.7833,19.1581,19.3191,19.0932,19.0604,19.0508,19.0645,19.0066,18.9426,18.8721,18.8161,18.7437,18.6612,18.6612,18.6612,18.6612,18.6805,18.6805,18.6612,18.6934,18.6998,0.0,0.0,12.5796,12.6605,0.0,0.0,13.9565,14.4999,14.9761,15.1174,15.2385,15.2954,15.2289,15.1894,15.1197,14.9914,15.0779,15.1915,15.2725,15.3416,15.3955,15.4493,15.4792,15.5391,15.674,15.7339,15.7971,15.8715,15.8569,15.845,15.845,15.8655,15.9852,16.2306,16.5084,16.7477,16.9488,17.2084,17.3401,17.3401,17.3401,17.3401,17.3401,17.3401,17.3401,17.3401,17.3401,17.3401,17.3401,17.3401,17.3401,17.3401,17.3401,17.3401,17.3401,17.3401,17.3401,17.3401,17.3401,17.3401,17.3401,17.3401,17.3401,17.3401,17.3401,17.3401,17.3401,17.3401,17.3401,17.3401,17.3401,17.3401,17.3401,17.3401,17.3401,17.3401,17.3401,17.3401,17.3401,17.3401,17.3401,17.3401,17.3401,17.3401,17.3401,17.3401,17.3879,17.554,17.9345,18.4047,18.7717,18.9444,19.2672,19.3957,19.1883,19.0962,19.0472,19.0472,19.0232,18.9808,18.9169,18.8492,18.7839,18.7181,18.6802,18.6612,18.6612,18.6612,18.6612,18.6612,18.6612,18.6612,11.9864,0.0,0.0,0.0,0.0,0.0,14.3817,15.0384,15.5461,15.4402,15.4958,15.5415,15.4685,15.2621,15.0931,15.0332,15.1616,15.3144,15.4134,15.4613,15.4972,15.5331,15.6228,15.7305,15.8596,15.8715,15.9074,16.0032,15.8929,15.821,15.821,15.9074,16.0331,16.2007,16.5503,16.8076,16.9488,17.2084,17.3401,17.3401,17.3401,17.3401,17.3401,17.3401,17.3401,17.3401,17.3401,17.3401,17.3401,17.3401,17.3161,17.2862,17.2862,17.2623,17.2324,17.2324,17.2563,17.2862,17.2862,17.3102,17.3401,17.3401,17.3161,17.2922,17.3281,17.3161,17.2922,17.3281,17.3401,17.3401,17.3401,17.3401,17.3401,17.3401,17.3401,17.3401,17.3401,17.3401,17.3401,17.3401,17.3401,17.3401,17.3401,17.3401,17.3401,17.3401,17.37,17.581,18.0947,18.422,18.7543,19.1315,19.3174,19.3593,19.2146,19.1094,19.0472,19.0472,19.0472,19.0201,18.953,18.8893,18.8244,18.7589,18.6961,18.6612,18.6612,18.6612,18.6612,18.6612,18.6612,18.6612,0.0,0.0,0.0,13.4431,13.9517,14.5378,15.5554,15.8174,15.9732,16.4063,15.9917,15.6308,15.8885,15.411,15.0153,15.1409,15.3802,15.5597,15.563,15.674,15.7997,15.9254,15.9433,15.9972,16.1289,16.1408,16.1468,16.1468,16.0271,15.9553,15.9553,15.9553,16.075,16.3349,16.5981,16.8076,16.9488,17.2084,17.3401,17.3401,17.3401,17.3401,17.3401,17.3401,17.3401,17.3401,17.3401,17.3401,17.3401,17.3401,17.2623,17.1486,17.1486,17.0708,16.9608,16.9608,17.0409,17.1486,17.1486,17.2324,17.3401,17.3401,17.2563,17.1725,17.2982,17.2503,17.1785,17.3042,17.3401,17.3401,17.3401,17.3401,17.3401,17.3401,17.3401,17.3401,17.3401,17.3401,17.3401,17.3401,17.3401,17.3401,17.3401,17.3401,17.3401,17.3401,17.4478,17.7849,18.5079,18.6017,18.8242,19.4067,19.3466,19.208,19.0699,19.0538,19.0472,19.0472,19.0472,19.0201,18.953,18.8893,18.8244,18.7589,18.6961,18.6612,18.6612,18.6612,18.6612,18.6612,18.6612,18.6612,12.5012,12.907,13.3872,14.1646,14.6997,15.1538,15.6089,15.9533,16.2191,16.3754,16.0972,15.8244,15.8275,15.5022,15.2785,15.4101,15.5118,15.5989,15.686,15.7339,15.7791,15.827,15.9074,16.0092,16.1408,16.1528,16.1528,16.1528,16.0331,15.9228,15.8356,15.9134,16.0391,16.2092,16.3887,16.628,16.9488,17.1247,17.2563,17.3401,17.3401,17.3401,17.3401,17.3401,17.3401,17.3401,17.3401,17.3401,17.3341,17.2443,17.1845,17.1366,17.0469,17.0409,17.0768,17.0768,17.1067,17.1546,17.2443,17.1905,17.0948,17.1785,17.1187,17.0409,17.1725,17.2187,17.2358,17.3189,17.377,17.4064,17.3512,17.3401,17.3401,17.3401,17.3401,17.3401,17.3401,17.3401,17.3401,17.3401,17.3401,17.3401,17.3401,17.3401,17.3401,17.3401,17.6199,18.0219,18.552,18.7811,19.0476,19.4376,19.3527,19.208,19.0634,19.0472,19.0472,19.0472,19.0472,19.0382,19.0201,18.9138,18.843,18.8213,18.7182,18.6612,18.6612,18.6612,18.6612,18.6612,18.6612,18.6612,12.7971,13.2337,13.7398,14.7701,15.2944,15.6625,16.0778,16.3973,16.6202,16.683,16.3793,16.0726,15.9889,15.7611,15.5791,15.5736,15.5657,15.6168,15.7492,15.7672,15.7851,15.827,15.9493,16.081,16.2127,16.2212,16.2032,16.1588,16.0331,15.9015,15.7731,15.8895,16.0211,16.1528,16.3229,16.5862,16.9488,17.1247,17.2802,17.4119,17.364,17.3401,17.3401,17.3401,17.3401,17.3401,17.3401,17.3401,17.3281,17.1965,17.1187,17.0589,16.9272,16.8973,16.9272,16.9272,16.9571,17.011,17.0948,17.0469,16.9667,17.0469,16.9811,16.9165,17.1251,17.1866,17.2227,17.3779,17.4613,17.4832,17.4027,17.3806,17.3733,17.3475,17.3401,17.3401,17.3401,17.3401,17.3401,17.3401,17.3401,17.3401,17.3401,17.3401,17.3401,17.3401,17.7022,18.1361,18.5657,18.8293,19.102,19.4403,19.3036,19.1488,19.0568,19.0472,19.0472,19.0472,19.0472,19.0472,19.0472,18.9474,18.88,18.8554,18.7464,18.6866,18.6612,18.6612,18.6612,18.6612,18.6612,18.6612,12.8193,13.2681,13.8531,15.2715,15.7253,16.0476,16.8999,17.0972,17.1366,17.2906,16.8167,16.3688,16.3475,16.1408,15.8797,15.612,15.575,15.6228,15.7458,15.7672,15.815,15.9433,16.075,16.2032,16.3349,16.3528,16.299,16.1648,16.0391,15.9074,15.7731,15.8955,16.0271,16.1528,16.4126,16.6759,16.9308,17.1965,17.3902,17.5218,17.3999,17.3401,17.3401,17.3401,17.3401,17.3401,17.3401,17.3341,17.3221,17.1845,17.0529,16.9212,16.78,16.6544,16.5503,16.5503,16.6305,16.7382,16.7441,16.8255,16.9308,16.9368,16.8435,16.7884,17.1373,17.1661,17.1393,17.4734,17.5714,17.557,17.4868,17.4613,17.4394,17.3622,17.3438,17.3401,17.3401,17.3401,17.3401,17.3401,17.3401,17.3401,17.3401,17.3608,17.3719,17.3719,17.7541,18.1968,18.5896,18.7756,19.024,19.4206,19.2182,19.0472,19.0472,19.0472,19.0472,19.0472,19.0472,19.0472,19.0472,18.9899,18.923,18.8554,18.7933,18.7306,18.6676,18.6612,18.6612,18.6612,18.6644,18.6644,13.2956,14.1272,14.8673,15.8298,16.0911,16.2686,16.821,16.9433,17.0183,17.2709,17.0353,16.6938,16.3994,16.2123,15.9865,15.6273,15.6561,15.7312,15.7612,15.7672,15.815,15.9433,16.075,16.2032,16.3349,16.4366,16.4007,16.1708,16.1229,16.0032,15.7791,15.9793,16.1169,16.1494,16.5024,16.6724,16.646,17.011,17.2623,17.3879,17.358,17.3401,17.3401,17.3401,17.3401,17.3401,17.3401,17.2862,17.1845,17.0565,16.9153,16.7776,16.646,16.634,16.6843,16.6843,16.7083,16.7501,16.8614,16.7836,16.6639,16.7597,16.6963,16.6495,16.9405,17.0806,17.1903,17.4229,17.5678,17.6398,17.5606,17.4953,17.448,17.432,17.3843,17.3401,17.3401,17.3401,17.3401,17.3401,17.3401,17.3401,17.3401,17.6018,17.8155,17.8155,18.4587,18.9373,18.9398,19.1566,19.3154,19.3203,19.1554,19.0472,19.0472,19.0472,19.0472,19.0472,19.0472,19.0472,19.0472,18.9899,18.923,18.8554,18.8399,18.7964,18.7306,18.6866,18.6612,18.6612,18.7151,18.7119,13.1539,14.1719,15.1987,16.0248,16.2818,16.4264,16.8052,16.9367,17.0511,17.2709,17.1051,16.8338,16.558,16.396,16.2028,15.8785,15.8377,15.8253,15.7719,15.815,15.8955,16.0271,16.1588,16.287,16.4186,16.5024,16.4605,16.2545,16.1887,16.063,15.8596,15.9852,16.093,16.1528,16.4785,16.6424,16.6245,16.9691,17.1785,17.2563,17.3102,17.3401,17.3401,17.3401,17.3401,17.3401,17.3401,17.2683,17.1366,17.0086,16.8674,16.7202,16.5886,16.5862,16.6484,16.6484,16.6484,16.6639,16.7417,16.7523,16.7302,16.8089,16.7787,16.7795,17.0871,17.1509,17.176,17.4337,17.5739,17.6254,17.5822,17.5099,17.4576,17.4576,17.399,17.3401,17.3401,17.3401,17.3401,17.3401,17.3401,17.3401,17.3401,17.695,17.9798,17.9798,18.715,19.2119,19.067,19.3032,19.422,19.2804,19.1357,19.0472,19.0472,19.0472,19.0472,19.0472,19.0472,19.0472,19.0472,19.0141,18.9657,18.9015,18.8985,18.8677,18.7995,18.762,18.7275,18.6991,18.7401,18.7212,12.9272,13.8854,15.0113,15.9621,16.3121,16.5028,16.8183,16.9854,17.1169,17.2643,17.0775,16.8538,16.7111,16.5566,16.381,16.1616,15.9888,15.8553,15.7767,15.8596,15.9793,16.1109,16.2391,16.3708,16.5024,16.5323,16.4785,16.3289,16.2186,16.087,15.9433,15.9493,16.0211,16.1528,16.4067,16.5981,16.7083,16.9811,17.1067,17.0888,17.2443,17.3221,17.3401,17.358,17.358,17.3401,17.3401,17.2563,17.1104,17.04,16.9103,16.7602,16.6821,16.6514,16.6444,16.612,16.5945,16.5945,16.5945,16.7285,16.9074,16.9814,16.9814,17.0172,17.3773,17.3271,17.2095,17.5148,17.6118,17.6118,17.5967,17.528,17.4722,17.4553,17.4064,17.3548,17.3548,17.3475,17.3401,17.3401,17.3401,17.3608,17.417,17.8324,18.1467,18.1281,18.8088,19.2608,19.0993,19.299,19.3957,19.2475,19.1225,19.0472,19.0472,19.0472,19.0472,19.0472,19.0472,19.0472,19.0472,19.0472,19.0232,18.9622,18.953,18.926,18.8677,18.8584,18.8244,18.7714,18.7714,18.7338,13.8692,14.1309,14.2858,15.7048,16.1634,16.3804,16.7986,16.9104,16.9696,17.1103,17.0117,16.8211,16.582,16.3551,16.1486,16.0004,15.7825,15.6672,15.7559,15.7851,15.8476,15.9733,16.1049,16.2426,16.3708,16.4785,16.4426,16.2032,16.1648,16.0511,15.815,15.9015,16.0211,16.1528,16.4067,16.5562,16.5707,16.8435,16.9272,16.81,17.0589,17.2324,17.3461,17.45,17.4381,17.3401,17.3401,17.2025,16.9968,17.2063,17.1426,16.934,17.1404,17.2195,17.1902,16.9647,16.8831,16.8831,16.8831,16.7629,16.6896,17.1411,17.1345,17.0289,17.4324,17.5707,17.6072,17.7205,17.7978,17.8219,17.6983,17.6135,17.5316,17.4699,17.4467,17.4394,17.4394,17.3843,17.3401,17.3401,17.3401,17.4524,17.8058,18.5223,18.9997,18.8846,19.3025,19.5374,19.2622,19.2661,19.2475,19.1028,19.0634,19.0472,19.0472,19.0472,19.0472,19.0472,19.0472,19.0472,19.0472,19.0472,19.0442,19.0322,18.9839,18.9439,18.9383,18.8831,18.8492,18.8368,18.8368,18.8026,13.4726,14.0619,14.5771,15.235,15.8776,16.437,16.8052,16.9525,17.0248,17.0906,16.9328,16.7405,16.6175,16.4315,16.283,16.2382,16.0228,15.8538,15.8562,15.86,15.9134,16.0451,16.1768,16.3049,16.4366,16.5084,16.4904,16.3648,16.2272,16.0989,15.9733,15.8955,15.9493,16.1468,16.275,16.4067,16.5383,16.6699,16.7358,16.7382,16.9452,17.1486,17.3401,17.3341,17.3341,17.3461,17.4082,17.2563,16.9704,17.2467,17.1962,16.9781,17.2553,17.3552,17.3392,17.213,17.164,17.1444,16.9953,17.0519,17.2098,17.3199,17.3743,17.4345,17.7038,17.7102,17.6319,17.6566,17.6927,17.6987,17.5925,17.5389,17.5099,17.5196,17.4868,17.4576,17.4576,17.4284,17.388,17.3475,17.5218,17.7397,17.9426,18.4458,18.8454,18.9252,19.3131,19.5171,19.2869,19.2606,19.208,19.0634,19.0472,19.0472,19.0472,19.0472,19.0472,19.0472,19.0472,19.0472,19.0472,19.0472,19.0472,19.0472,19.0201,19.0051,19.0051,18.9717,18.9383,18.9077,18.9077,18.8554,13.1822,14.0095,14.835,14.9961,15.6312,16.345,16.8249,17.0051,17.0709,17.0972,16.8999,16.7184,16.6855,16.5318,16.4074,16.3846,16.1573,15.969,15.9046,15.8884,15.9397,16.1294,16.2411,16.3588,16.4904,16.5263,16.5323,16.5024,16.281,16.1408,16.1109,15.8895,15.8835,16.1468,16.1528,16.275,16.5383,16.5443,16.5886,16.6963,16.8375,17.0289,17.2563,17.1785,17.2324,17.3879,17.456,17.3042,17.016,17.3224,17.3036,17.1118,17.4156,17.5385,17.5322,17.4726,17.4537,17.422,17.2065,17.3774,17.675,17.5697,17.6504,17.8135,17.978,17.8788,17.707,17.7121,17.7155,17.7077,17.65,17.5978,17.5617,17.6229,17.5906,17.5353,17.4662,17.4917,17.5159,17.4817,17.8008,18.1025,18.1938,18.4001,18.6421,18.9314,19.2334,19.3825,19.2343,19.2146,19.1751,19.0634,19.0472,19.0472,19.0472,19.0472,19.0472,19.0472,19.0472,19.0472,19.0472,19.0472,19.0472,19.0472,19.0472,19.0472,19.0472,19.0472,19.0232,18.9748,18.9561,18.9015,14.1163,14.222,14.2456,15.4193,15.5896,15.7598,16.8407,16.9985,16.9498,17.0775,16.9854,16.8315,16.6987,16.4813,16.2461,16.0118,15.7549,15.6247,15.7413,15.6673,15.7396,16.0907,16.158,16.2212,16.3528,16.4725,16.4964,16.3767,16.2331,16.1049,15.9793,15.845,15.8835,16.1468,16.1528,16.275,16.5383,16.5443,16.5503,16.5622,16.6903,16.8375,16.9907,17.0948,17.2802,17.5099,17.4059,17.2683,17.16,17.5631,17.6462,17.5569,17.9575,18.1189,18.0834,17.8363,17.7486,17.7456,17.7148,17.5697,17.4789,17.9625,17.9685,17.8338,18.0972,18.1559,18.1538,18.2202,18.2391,18.2377,18.2386,18.0428,17.8453,17.8522,17.8487,17.7681,17.5135,17.6061,17.7741,17.9003,18.1642,18.4921,18.882,18.9731,19.0863,19.3743,19.344,19.2278,19.0897,19.0699,19.0604,19.0502,19.0472,19.0472,19.0472,19.0472,19.0472,19.0472,19.0472,19.0472,19.0472,19.0472,19.0472,19.0472,19.0472,19.0472,19.0472,19.0472,19.0442,19.0382,18.9839,18.9505,12.9628,13.6577,14.2701,14.4599,15.0722,15.7557,16.2186,16.4067,16.6106,17.0183,16.8446,16.5817,16.433,16.474,16.4097,16.035,15.9852,16.006,16.0692,15.9116,15.8775,16.1055,16.1446,16.2032,16.3349,16.4665,16.4904,16.3588,16.2306,16.0989,15.9673,15.8356,15.8835,16.1468,16.2306,16.3947,16.6544,16.7417,16.7417,16.6604,16.8016,16.8494,16.8327,17.1418,17.4236,17.6802,17.8041,17.8724,17.9002,17.9879,17.9484,17.8517,18.1013,18.1916,18.1802,18.0688,18.0338,18.0038,17.8458,17.8183,17.8728,17.9329,17.9861,18.0513,18.1629,18.1916,18.2018,18.2314,18.1769,18.131,18.2201,18.1258,18.0747,18.3387,18.2685,18.1079,17.9983,18.0332,18.0967,18.1058,18.4807,18.853,19.0217,19.1922,19.3439,19.4561,19.2773,19.116,19.0568,19.0472,19.0472,19.0472,19.0472,19.0472,19.0472,19.0472,19.0472,19.0472,19.0472,19.0472,19.0472,19.0472,19.0472,19.0472,19.0472,19.0472,19.0472,19.0472,19.0962,19.1751,19.0626,19.0358,12.3182,13.2039,14.0645,13.9331,14.6193,15.4153,15.7623,15.9138,16.1897,16.9525,16.7947,16.4699,16.3212,16.433,16.4057,15.9755,16.0862,16.2253,16.2253,16.0966,16.0477,16.1681,16.2337,16.29,16.3453,16.4306,16.4605,16.4067,16.2092,16.075,16.0211,15.8536,15.8655,16.087,16.2212,16.4186,16.6724,16.8195,16.8375,16.7382,16.8375,16.9236,16.9956,17.209,17.5258,17.9059,18.0612,18.208,18.3222,18.2319,18.1389,18.0706,18.2047,18.2311,18.1916,18.1916,18.1916,18.1687,17.9744,18.0338,18.1629,17.9685,18.0367,18.1916,18.1916,18.1916,18.2068,18.2431,18.2176,18.2039,18.3442,18.3154,18.3279,18.6314,18.546,18.3776,18.2953,18.3415,18.4001,18.389,18.7835,19.1146,19.1146,19.2785,19.4022,19.3562,19.1787,19.0472,19.0472,19.0472,19.0472,19.0472,19.0472,19.0472,19.0472,19.0472,19.0472,19.0472,19.0472,19.0472,19.0472,19.0472,19.0472,19.0472,19.0472,19.0472,19.0472,19.0472,19.1225,19.2606,19.116,19.105,12.7952,13.0507,13.4341,14.298,14.3589,14.5087,15.6553,15.6433,15.7138,16.867,16.8763,16.6263,16.4765,16.3252,16.1048,15.7118,15.8896,16.0763,16.0763,16.1088,16.1725,16.2928,16.4412,16.4907,16.3567,16.3468,16.4007,16.5323,16.1827,16.0152,16.1468,15.9074,15.827,15.9553,16.087,16.281,16.5443,16.6724,16.7382,16.7382,16.7382,17.0278,17.5539,17.289,17.5389,18.1862,18.0411,18.0633,18.1959,18.1929,18.193,18.2097,18.3493,18.3203,18.1916,18.1916,18.1916,18.1916,18.1888,18.1888,18.1916,18.1888,18.1888,18.1916,18.1916,18.1916,18.2245,18.3671,18.5081,18.6461,18.7908,18.7221,18.6175,18.6245,18.6194,18.5428,18.2558,18.42,18.6645,18.8029,19.0662,19.2642,19.2642,19.2606,19.2146,19.0765,19.0538,19.0472,19.0472,19.0472,19.0472,19.0472,19.0472,19.0472,19.0472,19.0472,19.0472,19.0472,19.0472,19.0472,19.0472,19.0472,19.0472,19.0472,19.0472,19.0472,19.0472,19.0472,19.1225,19.2606,19.116,19.1291,12.2778,12.7916,13.3915,13.9361,14.057,14.3495,15.5076,15.7976,15.865,16.0319,16.2292,16.2949,16.0516,16.3804,16.541,16.1168,16.2083,16.3298,16.3298,16.3607,16.4011,16.4337,16.4987,16.6032,16.748,16.593,16.5383,16.6743,16.4043,16.1648,16.0271,15.9433,15.9134,15.9553,16.1768,16.4126,16.6724,16.9033,17.017,17.0206,17.2176,17.4579,17.7402,17.9373,18.146,18.3634,18.608,18.7377,18.7767,18.7767,18.7221,18.631,18.5773,18.5241,18.4715,18.3795,18.34,18.3269,18.2311,18.1916,18.1916,18.1916,18.1916,18.1916,18.1916,18.1916,18.2245,18.3663,18.3663,18.3824,18.6257,18.8003,18.9175,18.9117,18.913,18.8916,18.8018,18.8482,18.926,18.9718,19.1337,19.2606,19.2606,19.3461,19.3957,19.3496,19.2606,19.1949,19.1949,19.1094,19.0472,19.0472,19.0472,19.0472,19.0472,19.0472,19.0472,19.0472,19.0472,19.0472,19.0472,19.0472,19.0472,19.0472,19.0472,19.0472,19.0472,19.0472,19.1225,19.2606,19.116,19.1291,11.9663,12.6044,13.2839,13.5864,13.5521,13.7956,15.1292,15.3063,15.2697,15.501,15.7385,15.8675,15.745,16.0911,16.3081,16.0319,16.1543,16.3187,16.4278,16.5162,16.5499,16.5096,16.606,16.7519,16.9336,16.7953,16.7799,16.9681,16.7334,16.5113,16.3403,16.2886,16.2365,16.1844,16.4375,16.6783,16.885,17.112,17.3035,17.4629,17.5931,17.8123,18.1233,18.2765,18.4304,18.597,18.8528,18.9713,18.9713,19.0275,18.9976,18.9019,18.7572,18.6717,18.603,18.462,18.4095,18.3832,18.2442,18.1916,18.1916,18.1916,18.1916,18.1916,18.1916,18.1916,18.2114,18.3006,18.3429,18.3955,18.5767,18.7937,18.9844,19.0341,19.0472,19.0472,19.0472,19.0472,19.0472,19.0472,19.1225,19.1817,19.1817,19.2576,19.3168,19.3168,19.2409,19.1817,19.1817,19.1028,19.0472,19.0472,19.0472,19.0472,19.0472,19.0472,19.0472,19.0472,19.0472,19.0472,19.0472,19.0472,19.0472,19.0472,19.0472,19.0472,19.0472,19.0472,19.1225,19.2606,19.116,19.1291,11.8443,12.4559,13.078,13.2818,13.0196,13.0927,14.5969,14.4202,14.2131,15.1954,15.351,15.3463,15.4885,15.5387,15.5847,15.6571,15.8478,16.0885,16.3753,16.5317,16.5866,16.5064,16.7265,16.9105,16.9983,16.9836,17.0783,17.365,17.1475,16.9838,16.9555,16.8358,16.7035,16.5432,16.795,16.9996,17.1444,17.2904,17.5744,17.9964,17.8823,18.1138,18.6286,18.3831,18.4861,18.8493,18.8493,18.8493,18.8625,18.9976,19.0472,19.0341,18.9019,18.7704,18.6359,18.4913,18.4292,18.4029,18.2574,18.2048,18.1916,18.1916,18.1916,18.1916,18.1916,18.1916,18.1916,18.1916,18.4021,18.6228,18.6228,18.7375,18.8822,19.0173,19.0472,19.0472,19.0472,19.0472,19.0472,19.0472,19.0472,19.0472,19.0472,19.0568,19.0634,19.0634,19.0634,19.0634,19.0634,19.0538,19.0472,19.0472,19.0472,19.0472,19.0472,19.0604,19.0634,19.0472,19.0472,19.0472,19.0472,19.0472,19.0472,19.0472,19.0472,19.0568,19.0634,19.0634,19.1423,19.2738,19.1291,19.1357,11.7525,12.0873,12.5153,13.1701,13.623,14.0303,14.5166,14.667,14.6678,14.5241,14.5705,14.6604,14.7391,15.0324,15.5148,16.2975,16.0147,15.7886,16.0754,16.0516,16.1193,16.4229,16.5314,16.8409,17.4951,17.2815,17.2607,17.656,17.4249,17.1727,16.9618,16.924,16.7918,16.5495,16.7007,16.899,17.1444,17.2751,17.6151,18.1453,18.2233,18.4441,18.7859,18.8317,18.9107,18.9976,18.9976,18.9976,19.0042,19.0371,19.0472,19.0472,19.0108,18.9779,18.9318,18.7872,18.6652,18.5504,18.4058,18.2874,18.1916,18.1916,18.1916,18.1916,18.1916,18.1916,18.1916,18.1916,18.4021,18.6228,18.6228,18.8135,19.0108,19.0436,19.0472,19.0472,19.0472,19.0472,19.0472,19.0472,19.0472,19.0472,19.0472,19.1423,19.2146,19.2146,19.2146,19.2146,19.2146,19.116,19.0472,19.0472,19.0472,19.0472,19.0472,19.1488,19.1686,19.0568,19.0472,19.0472,19.0472,19.0472,19.0472,19.0472,19.0472,19.1028,19.2146,19.2146,19.2869,19.422,19.2804,19.2278,11.6744,12.0928,12.5272,12.7289,13.1247,13.5031,13.6918,13.8583,13.9381,13.827,13.8658,14.0005,14.3035,14.4677,14.8088,15.5584,15.6308,15.69,15.9768,16.124,16.2449,16.3384,16.5373,16.8783,17.4018,17.4317,17.5711,17.943,17.8273,17.6428,17.4272,17.4144,17.2858,17.003,17.1286,17.2413,17.3253,17.5215,17.8165,18.1953,18.3369,18.5286,18.7441,18.8858,18.9121,18.8595,18.9976,19.0108,18.9581,19.0239,19.0472,19.0472,19.0472,19.0472,19.0406,18.9647,18.8427,18.6915,18.4781,18.3137,18.1916,18.1916,18.1916,18.1916,18.1916,18.1916,18.1916,18.1916,18.3561,18.5241,18.5241,18.7346,18.9516,18.9516,19.0042,19.0472,19.0472,19.0472,19.0472,19.0472,19.0472,19.0472,19.0472,19.116,19.162,19.162,19.162,19.162,19.162,19.0962,19.0472,19.0472,19.0472,19.0472,19.0472,19.1225,19.1291,19.0568,19.1094,19.116,19.0538,19.0472,19.0472,19.0472,19.0472,19.0897,19.162,19.162,19.208,19.2773,19.2015,19.162,11.6137,12.1846,12.6723,12.268,12.3199,12.5338,12.757,12.801,12.8887,13.2149,13.2861,13.4399,13.9502,13.9728,14.0263,14.3665,15.071,15.6743,15.9464,16.3081,16.4751,16.2884,16.5948,16.9038,17.1169,17.5049,17.86,18.139,18.1785,18.1259,17.9689,17.9595,17.844,17.5744,17.6824,17.689,17.5679,17.8309,18.0281,18.1588,18.3269,18.4715,18.5965,18.7375,18.7375,18.6359,18.9055,18.945,18.8427,18.9647,19.0305,19.0502,19.0239,19.0305,19.0472,19.0472,18.9713,18.8296,18.5373,18.3334,18.1916,18.1916,18.1916,18.1916,18.1916,18.1916,18.1916,18.1916,18.294,18.4095,18.4095,18.603,18.8099,18.8296,18.9282,19.0239,19.0436,19.0472,19.0472,19.0472,19.0472,19.0472,19.0472,19.0472,19.0472,19.0472,19.0472,19.0472,19.0472,19.0472,19.0472,19.0472,19.0472,19.0472,19.0472,19.0669,19.0735,19.0502,19.162,19.1751,19.0568,19.0472,19.0406,19.0173,19.0371,19.0472,19.0472,19.0699,19.0962,19.113,19.0932,19.0831,11.5632,11.9126,12.2544,12.3169,12.4467,12.6036,12.7689,12.8081,12.8366,12.9478,13.0208,13.1242,13.3412,13.8068,14.1352,14.0691,14.882,15.5978,15.8076,15.8963,16.0541,16.3778,16.4765,16.7197,17.238,17.5668,17.8205,17.9821,18.1164,18.1259,17.9689,17.9595,17.8835,17.7219,17.735,17.735,17.7153,17.8769,17.9755,18.0018,18.278,18.416,18.4423,18.5899,18.6425,18.6294,18.7967,18.8559,18.8362,18.8625,18.9384,19.0371,18.9151,18.9384,19.0472,19.0472,19.0371,18.9779,18.6885,18.4152,18.1916,18.1916,18.1916,18.1916,18.1916,18.1916,18.1916,18.1916,18.294,18.4095,18.4095,18.5307,18.6849,18.8033,18.8493,18.9019,19.0239,19.0472,19.0472,19.0472,19.0472,19.0472,19.0472,19.0472,19.0472,19.0472,19.0472,19.0472,19.0472,19.0472,19.0472,19.0472,19.0472,19.0472,19.0472,19.162,19.1817,19.0568,19.0699,19.0765,19.0472,19.0472,18.991,18.8691,18.991,19.0472,19.0472,19.1686,19.2935,19.4088,19.2869,19.2278,11.6715,11.9734,12.2724,12.3474,12.467,12.595,12.6666,12.7502,12.8167,12.8486,12.9068,12.9989,13.1587,13.4592,13.713,13.7997,14.3426,14.9074,15.344,15.7681,16.1042,16.3055,16.5422,16.7592,16.9552,17.4419,17.8074,17.9492,18.1033,18.1653,18.0901,18.0901,18.0178,17.8637,17.8637,17.8637,17.8637,18.0112,18.0413,17.9595,18.1888,18.294,18.294,18.4387,18.5044,18.511,18.5767,18.603,18.603,18.603,18.6425,18.7148,18.8033,18.8756,18.9384,19.0239,19.0472,19.0239,18.8099,18.652,18.5139,18.3597,18.2574,18.1916,18.1916,18.1916,18.1916,18.1916,18.2442,18.294,18.294,18.3992,18.5241,18.5899,18.6622,18.7572,18.9055,18.9318,18.9581,19.0371,19.0472,19.0472,19.0472,19.0472,19.0472,19.0472,19.0472,19.0472,19.0472,19.0472,19.0472,19.0472,19.0472,19.0472,19.0472,19.1094,19.1225,19.0538,19.0472,19.0472,19.0472,19.0472,19.0173,18.9516,19.0173,19.0472,19.0472,19.116,19.1817,19.2444,19.1787,19.1488,12.0423,0.0,12.728,12.7741,12.7604,12.7382,0.0,12.7485,12.757,12.757,12.8108,12.9104,13.0841,13.1976,13.3667,13.6594,13.9511,14.3637,15.0095,15.6434,16.0723,16.1553,16.5315,16.746,16.6303,17.301,17.7942,17.9032,18.0836,18.1916,18.1916,18.1916,18.139,18.0215,18.015,18.015,18.015,18.1362,18.1362,18.015,18.139,18.1916,18.1982,18.3071,18.3597,18.3597,18.3597,18.3597,18.3597,18.3174,18.324,18.3795,18.557,18.6981,18.7967,18.9055,18.991,19.0305,18.8888,18.8362,18.7901,18.5044,18.3137,18.1916,18.1916,18.2179,18.2377,18.2048,18.2179,18.2377,18.2048,18.2743,18.3663,18.3963,18.5176,18.6491,18.7638,18.8099,18.8691,18.9779,18.9976,19.0108,19.0436,19.0472,19.0472,19.0472,19.0472,19.0472,19.0472,19.0472,19.0472,19.0472,19.0472,19.0472,19.0472,19.0472,19.0371,19.0042,18.9976,18.9844,18.9516,18.9516,18.9516,18.9516,18.9157,18.9157,18.9516,18.9516,18.9516,18.9516,18.9516,18.9713,0.0,13.3933,13.7983,13.9794,13.6134,13.209,13.209,12.8883,0.0,12.595,12.6528,12.7724,12.992,13.2007,13.4405,13.7447,14.047,14.4633,15.1051,15.3618,15.606,15.9199,16.2694,16.4739,16.4607,17.2418,17.7482,17.7613,18.0338,18.1916,18.1916,18.1916,18.1916,18.1785,18.1785,18.1785,18.1785,18.1916,18.1916,18.1785,18.1916,18.1916,18.1916,18.2048,18.2114,18.2114,18.2114,18.2114,18.1982,18.0544,18.077,18.1982,18.0741,18.2714,18.6359,18.6491,18.8201,19.0305,18.8888,18.8362,18.7901,18.5044,18.3137,18.1916,18.1916,18.2874,18.3663,18.2311,18.2874,18.3597,18.2311,18.1982,18.2442,18.3766,18.5176,18.6228,18.6359,18.7441,18.8362,18.8493,18.8493,18.8954,19.0239,19.0472,19.0472,19.0472,19.0472,19.0472,19.0472,19.0472,19.0472,19.0472,19.0472,19.0472,19.0472,19.0472,18.991,18.8625,18.8493,18.7901,18.6557,18.6491,18.6491,18.6491,18.5212,18.5176,18.6491,18.6491,18.6491,18.6491,18.6491,18.7244,13.3797,13.8152,14.1063,14.178,13.7753,13.3556,13.3556,12.9512,12.5745,12.5745,12.6003,12.6718,12.8593,13.0312,13.2771,13.6784,13.9165,14.2488,14.8072,15.5716,16.0442,15.9525,16.4064,16.7263,16.7263,17.1827,17.5537,17.735,17.8562,18.0009,18.1851,18.1033,18.0901,18.1916,18.1916,18.1916,18.1916,18.1916,18.1916,18.1916,18.1916,18.1916,18.1916,18.1916,18.1916,18.1851,17.9943,17.9154,0.0,17.752,17.7257,17.7942,17.9163,18.0676,18.2405,18.5053,18.621,18.6645,18.7725,18.8218,18.8033,18.603,18.5665,18.5599,18.3795,18.2319,18.1596,18.2874,18.3663,18.416,18.4518,18.3926,18.34,18.3963,18.3795,18.3824,18.4715,18.5307,18.5965,18.6849,18.7046,18.7507,18.8954,18.9151,18.945,19.0341,19.0472,19.0472,19.0472,19.0472,19.0472,19.0472,19.0472,18.9779,18.8003,18.7806,18.7609,18.7046,18.7046,18.6783,18.6228,18.6228,18.6228,18.6228,18.5702,18.5702,18.6228,18.6228,18.6228,18.6228,18.6228,18.6491,13.8761,14.2924,14.6122,14.7279,14.2933,13.821,13.7716,13.2947,12.8235,12.6785,12.6103,12.6376,12.8389,12.96,13.1903,13.6953,13.8659,14.1726,14.8568,15.6235,16.0948,16.0652,16.4174,16.6814,16.7421,17.0972,17.4353,17.7247,17.7482,17.8759,18.1785,18.0478,18.0347,18.1916,18.1916,18.1916,18.1916,18.1916,18.1916,18.1916,18.1916,18.1916,18.1916,18.1916,18.1916,18.1785,17.9257,17.7876,17.735,17.5876,17.5049,17.4852,17.6824,17.8111,17.9276,18.2098,18.359,18.4342,18.6159,18.7155,18.7441,18.603,18.5899,18.5862,18.34,18.1596,18.0676,18.2254,18.3371,18.416,18.4715,18.4847,18.4781,18.4781,18.4321,18.4021,18.4029,18.4423,18.4913,18.5439,18.557,18.603,18.7441,18.8033,18.8559,18.9055,18.991,19.0143,18.9253,18.9516,18.9647,18.9187,18.9121,18.8332,18.6359,18.6228,18.603,18.557,18.557,18.5307,18.4876,18.4847,18.4847,18.4847,18.4847,18.4847,18.4847,18.4847,18.4847,18.4847,18.4847,18.511,14.3326,14.9154,15.4475,15.7955,15.3173,14.7195,14.5573,13.9909,13.3662,12.9089,12.687,12.67,12.9719,13.0265,13.2244,13.8386,13.9409,14.3094,15.3643,15.4248,15.6029,16.2584,16.2403,16.2477,16.4342,16.9722,17.4353,17.7247,17.7416,17.8759,18.1785,18.0441,18.0281,18.1851,18.1916,18.1916,18.1916,18.1916,18.1916,18.1916,18.1916,18.1916,18.1916,18.1916,18.1916,18.1851,18.0281,17.8769,17.735,17.5876,17.4523,17.3169,17.3169,17.4945,17.7444,17.7472,18.0272,18.4021,18.4087,18.5007,18.5994,18.4584,18.3137,18.1719,18.0112,18.0732,18.1588,18.0046,18.1728,18.3729,18.2311,18.4021,18.6162,18.6228,18.7309,18.7507,18.4715,18.5176,18.5767,18.4357,18.4095,18.4584,18.5965,18.7375,18.7836,18.6425,18.8661,18.945,18.6622,18.7507,18.7836,18.6359,18.6228,18.6162,18.6162,18.6162,18.557,18.416,18.4029,18.34,18.2048,18.1982,18.1982,18.1982,18.1982,18.1982,18.1982,18.1916,18.1916,18.1916,18.1916,18.2677,15.0453,15.4312,15.7121,15.8904,15.5566,15.0653,14.6348,14.1275,13.6023,13.0691,12.9259,12.9174,13.0061,13.1152,13.32,13.7089,14.127,14.6594,15.4053,16.2099,16.7686,16.8852,17.183,17.2404,16.9029,16.9608,17.1366,17.4221,17.5378,17.7257,18.015,17.8929,17.8797,18.0215,18.1362,18.1916,18.1916,18.1916,18.1916,18.1916,18.1916,18.1916,18.1916,18.1916,18.1916,18.1851,18.0281,17.8769,17.735,17.5876,17.4523,17.3169,17.3169,17.4185,17.58,17.7611,17.9143,18.0556,18.2649,18.3765,18.4289,18.412,18.4452,18.4573,18.2679,18.1134,17.9918,17.9454,18.0893,18.2217,18.0676,18.1756,18.3692,18.5702,18.5007,18.3889,18.4058,18.4452,18.4584,18.416,18.4913,18.5702,18.6162,18.7375,18.823,18.777,18.9318,19.0143,18.9384,18.8756,18.8164,18.777,18.5899,18.4715,18.4715,18.3824,18.3034,18.264,18.2574,18.2808,18.34,18.3466,18.3926,18.4942,18.3992,18.3466,18.3466,18.2442,18.1916,18.1916,18.1916,18.2179,15.209,15.5093,15.7069,15.931,15.7775,15.4193,14.8493,14.4276,13.9569,13.2601,13.0675,13.0402,13.1084,13.2449,13.506,13.9837,14.4137,15.0094,15.9151,16.6302,17.1466,17.3787,17.6311,17.614,17.1735,17.1244,17.152,17.2275,17.3668,17.5772,17.8572,17.8389,17.8878,18.0507,18.0836,18.1296,18.1916,18.1916,18.1916,18.1916,18.1916,18.2173,18.2533,18.2533,18.2816,18.3198,18.2242,18.1077,17.958,17.8161,17.673,17.5298,17.4741,17.4913,17.5636,17.7232,17.8134,17.898,18.1419,18.2749,18.3513,18.4256,18.4761,18.4643,18.2829,18.1171,17.965,17.845,17.894,17.9747,17.9542,18.0157,18.1628,18.4634,18.4452,18.3889,18.4781,18.4978,18.4781,18.416,18.5241,18.603,18.5439,18.7046,18.8164,18.7572,18.9187,19.0108,18.8924,18.8529,18.8164,18.7572,18.5965,18.4978,18.4978,18.4123,18.3692,18.3692,18.3692,18.3729,18.4029,18.4095,18.3897,18.3569,18.3334,18.294,18.2319,18.2019,18.1916,18.1916,18.1916,18.1916,15.0346,15.3193,15.5529,15.9417,15.9794,15.7538,15.1149,14.7983,14.3757,13.4633,13.1767,13.1271,13.2669,13.4564,13.8149,14.5054,14.8036,15.3923,16.6568,16.7844,17.0018,17.6973,17.6841,17.5264,17.2752,17.3582,17.3322,17.095,17.212,17.415,17.68,17.8212,17.979,18.1656,18.0433,18.0499,18.2088,18.207,18.2061,18.2061,18.1947,18.2354,18.3244,18.3294,18.3967,18.508,18.5214,18.4463,18.3014,18.1714,18.0172,17.8521,17.7195,17.671,17.6653,17.6653,17.7535,17.8929,18.0395,18.1752,18.3094,18.457,18.4234,18.301,18.1667,18.1118,18.0369,17.7618,17.6777,17.7046,17.8609,17.9243,18.0165,18.3144,18.4926,18.5979,18.5994,18.603,18.5702,18.4489,18.5439,18.603,18.4715,18.6754,18.8099,18.6622,18.8727,18.9581,18.6951,18.7638,18.7901,18.6754,18.6491,18.6359,18.6228,18.6096,18.5965,18.5833,18.5833,18.5307,18.4095,18.4095,18.2845,18.0281,18.1493,18.1427,17.999,18.1296,18.1916,18.1916,18.1916,18.1916,15.3983,15.5779,15.7223,15.9752,16.1376,15.9913,15.074,14.8848,14.623,13.6439,13.506,13.5566,13.5615,13.9991,14.445,14.6979,15.3475,16.0247,16.5931,16.9252,17.2283,17.5564,17.4928,17.3548,17.1826,17.1218,17.0336,16.8999,17.0222,17.1713,17.3122,17.5558,17.7836,17.9779,18.0274,18.1366,18.3142,18.2952,18.2881,18.2881,18.1916,18.1427,18.1385,18.1684,18.2462,18.3605,18.4745,18.4463,18.3108,18.2746,18.1069,17.8588,17.832,17.8001,17.7721,17.7721,17.8512,17.9645,18.0133,18.0574,18.1121,18.2957,18.3736,18.3939,18.3667,18.2117,18.0422,17.9747,17.891,17.805,17.7678,17.9216,18.1059,18.1768,18.301,18.4119,18.4429,18.4584,18.4781,18.557,18.6915,18.777,18.7507,18.8858,18.9516,18.8099,18.9384,19.0305,18.9617,18.8888,18.8691,18.9516,18.8559,18.7441,18.6294,18.5176,18.4058,18.2903,18.2837,18.3203,18.4029,18.4095,18.4321,18.4781,18.4058,18.3437,18.3108,18.2348,18.1916,18.1916,18.1916,18.1916,15.4763,15.618,15.7462,15.9798,16.133,16.0365,15.318,15.2007,14.9801,14.0802,13.9639,13.9707,13.7866,14.2777,14.8036,15.0815,15.7895,16.4559,16.8843,17.1681,17.3854,17.5187,17.4765,17.3904,17.2612,17.199,17.1232,17.0186,17.2061,17.2786,17.1784,17.3952,17.6407,17.8889,17.9009,18.0077,18.217,18.2816,18.2734,18.201,18.2147,18.1973,18.1653,18.2583,18.3287,18.3675,18.4487,18.4377,18.3591,18.2889,18.1671,18.0183,17.9439,17.9085,17.8897,17.8897,17.9305,17.9894,18.0743,18.1022,18.1195,18.2204,18.2781,18.3174,18.3174,18.2237,18.0979,18.0299,17.9634,17.8961,17.787,17.8701,18.0017,18.0918,18.1312,18.2071,18.4179,18.479,18.4947,18.5161,18.6915,18.8164,18.7441,18.9121,19.0239,18.9516,19.0042,19.0472,19.0472,18.9844,18.9647,19.0436,18.9217,18.8033,18.7309,18.5899,18.4781,18.4021,18.4021,18.3992,18.4095,18.4095,18.3766,18.3071,18.3071,18.2677,18.1925,18.1953,18.1916,18.1916,18.1916,18.1916,15.4028,15.5675,15.7027,15.9371,16.0584,16.0071,15.5961,15.5083,15.3064,14.5637,14.412,14.3244,14.0294,14.5161,15.0624,15.3725,16.0389,16.6712,17.1208,17.2632,17.3715,17.4778,17.4916,17.4429,17.3214,17.3143,17.2642,17.1617,17.4128,17.4423,17.1473,17.3266,17.537,17.7589,17.7147,17.8219,18.1066,18.2537,18.2641,18.142,18.2499,18.2684,18.2084,18.3464,18.3996,18.3881,18.4154,18.429,18.4154,18.2901,18.2194,18.1829,18.0649,18.0034,17.9761,17.9761,17.9761,17.9966,18.1171,18.158,18.1512,18.0966,18.0966,18.1171,18.1171,18.1375,18.1307,18.0103,17.9761,17.959,17.8654,17.845,17.8901,18.0774,18.0369,18.0436,18.3994,18.4896,18.4855,18.4223,18.5965,18.7375,18.6688,18.8529,19.0239,19.0472,19.0472,19.0472,19.0472,19.0472,19.0472,19.0472,18.9217,18.823,18.8033,18.6688,18.5636,18.511,18.5044,18.4452,18.2977,18.294,18.1728,17.9295,18.0507,18.0507,17.9229,18.0507,18.1193,18.1193,18.1193,18.1193,15.2321,15.512,15.6734,15.8041,15.9749,15.9984,15.5494,15.4787,15.3691,14.865,14.6329,14.5072,14.4605,15.0229,15.3943,15.1034,15.829,16.4898,16.6821,16.7709,16.9449,17.2913,17.3278,17.2754,17.1367,17.1207,17.0793,16.974,17.203,17.2727,17.1003,17.3635,17.4699,17.3814,17.514,17.7959,18.2254,18.351,18.4008,18.3779,18.299,18.1735,18.0203,18.07,18.1392,18.2331,18.3676,18.429,18.429,18.4017,18.3174,18.1921,18.1716,18.0898,17.9761,17.9761,17.9761,17.983,18.0034,18.0103,17.9693,17.71,17.7032,17.8079,17.8079,17.9011,18.0034,17.983,17.9761,17.9794,17.9849,17.9913,18.0294,18.1967,18.1405,18.1017,18.2564,18.236,18.2347,18.3799,18.4357,18.5373,18.7704,18.8427,18.9085,19.0305,19.0472,19.0472,19.0472,19.0472,19.0472,19.0472,18.9217,18.7836,18.6622,18.5176,18.324,18.0676,18.0478,17.9821,17.8403,17.8337,17.8139,17.7745,17.7942,17.7942,17.7745,17.7942,17.8102,17.8102,17.8102,17.8102,14.8463,15.1111,15.3267,15.5405,15.6666,15.6901,15.5181,15.6228,15.6516,15.2518,15.0408,14.8682,14.6983,15.1753,15.5398,15.3831,16.1584,16.8106,16.9018,17.012,17.1611,17.3652,17.4116,17.3687,17.2209,17.2072,17.1548,17.0317,17.123,17.1549,17.0867,17.2095,17.2229,17.0969,17.3078,17.5309,17.7595,17.9553,18.0877,18.1765,18.2096,18.1755,18.1034,18.2096,18.2325,18.1965,18.1809,18.1765,18.1696,18.0809,18.0058,17.9352,17.8509,17.7827,17.7305,17.7305,17.7305,17.7305,17.7305,17.7305,17.71,17.5803,17.5735,17.6281,17.6281,17.6759,17.7441,17.8284,17.8488,17.8711,17.9728,18.0558,18.1479,18.2767,18.2398,18.2242,18.3896,18.26,18.1304,18.2174,18.2599,18.3532,18.557,18.7309,18.8822,19.0305,19.0472,18.991,18.8332,18.8135,18.8135,18.8135,18.682,18.5702,18.511,18.3729,18.2282,18.1033,18.0901,18.0638,18.0009,17.9126,17.8637,17.8637,17.7876,17.7482,17.7482,17.7482,17.7482,17.7482,17.7482,17.7482,14.3366,14.6386,14.9199,15.1903,15.3146,15.3841,15.4263,15.6495,15.7723,15.5092,15.3292,15.1666,14.9912,15.3291,15.6238,15.6178,16.3205,16.9058,16.9862,17.1415,17.2931,17.4365,17.5244,17.5117,17.3756,17.321,17.2755,17.2027,17.1617,17.1413,17.1413,17.1071,17.0525,16.9739,17.1477,17.2818,17.3561,17.5791,17.7646,17.9239,18.0307,18.0625,18.0283,18.1468,18.1331,18.0215,17.9147,17.8669,17.8601,17.7373,17.6919,17.6827,17.5735,17.5325,17.5325,17.5325,17.5325,17.5189,17.4438,17.4188,17.4188,17.4188,17.4438,17.4711,17.4711,17.5052,17.553,17.6646,17.6919,17.7192,17.8328,17.9488,18.0528,18.1706,18.1923,18.236,18.4254,18.3209,18.1853,18.1973,18.2447,18.3024,18.3722,18.5645,18.7662,18.9151,18.945,18.8803,18.727,18.6833,18.6629,18.6629,18.5087,18.4095,18.4095,18.2414,18.1164,18.0864,18.0469,18.0075,17.9746,17.86,17.7783,17.7454,17.6364,17.5641,17.5312,17.5312,17.5312,17.5312,17.5312,17.5312,13.6907,14.1757,14.5552,14.7406,15.0048,15.2133,15.2154,15.3839,15.5282,15.5124,15.3546,15.2721,15.4407,15.6183,15.6922,15.5421,15.9984,16.4195,16.5693,16.7601,17.025,17.4094,17.5775,17.6238,17.5347,17.3892,17.3551,17.4984,17.3756,17.2869,17.2869,17.1617,17.0844,17.0798,17.0912,17.1663,17.3004,17.462,17.6144,17.7601,17.7669,17.6987,17.5667,17.5735,17.5735,17.5667,17.5598,17.5598,17.553,17.5462,17.5462,17.5462,17.5394,17.5325,17.5325,17.5325,17.5325,17.4916,17.2095,17.1071,17.1071,17.1071,17.2004,17.3142,17.3142,17.4165,17.5325,17.5462,17.5462,17.5462,17.553,17.5598,17.6076,17.7417,17.8895,18.0372,18.1804,18.346,18.4638,18.4664,18.4913,18.465,18.3378,18.3501,18.4355,18.614,18.6425,18.7204,18.9246,18.8603,18.7858,18.7858,18.5607,18.4095,18.4095,18.1399,17.9163,17.7745,17.643,17.5049,17.3695,17.3564,17.2906,17.1498,17.1432,17.0709,16.9367,16.9367,16.9367,16.9367,16.9367,16.9367,13.2155,13.5811,13.8976,14.272,14.4432,14.5522,14.6524,14.8795,15.103,15.1897,15.1367,15.102,15.1952,15.4498,15.6581,15.6922,16.1854,16.6322,16.8067,16.9566,17.1537,17.4559,17.5663,17.6186,17.6238,17.5741,17.5605,17.615,17.5138,17.4506,17.4506,17.3096,17.2277,17.2277,17.1344,17.114,17.1617,17.3096,17.3642,17.3256,17.5212,17.6281,17.6714,17.6714,17.6714,17.6622,17.5735,17.5325,17.5257,17.4233,17.3824,17.3756,17.2823,17.2482,17.2482,17.2482,17.2482,17.2277,17.1208,17.0867,17.0867,17.0867,17.1208,17.1617,17.1617,17.2027,17.2618,17.3551,17.3824,17.4097,17.5052,17.6008,17.6756,17.6946,17.7681,17.837,17.8556,17.9412,18.0213,18.0469,18.1367,18.2321,18.2986,18.3331,18.436,18.6946,18.5552,18.459,18.5578,18.5377,18.4845,18.4175,18.3293,18.2677,18.2677,18.0807,17.9426,17.89,17.7482,17.6496,17.5997,17.5049,17.3865,17.2446,17.1498,17.038,16.8907,16.8907,16.8907,16.8907,16.8907,16.8907,12.6087,13.0254,13.4294,13.8096,14.0308,14.1748,14.284,14.4614,14.6457,14.7939,14.8423,14.914,15.0901,15.3528,15.6047,15.8186,16.2756,16.6374,16.7504,16.9273,17.104,17.2459,17.4091,17.5354,17.5884,17.5764,17.5812,17.6238,17.5928,17.582,17.6076,17.4643,17.3756,17.3756,17.2345,17.1617,17.1617,17.2072,17.1822,17.0867,17.2892,17.4325,17.5212,17.5212,17.5212,17.5212,17.4257,17.3847,17.3756,17.2687,17.2277,17.2209,17.1208,17.0867,17.0867,17.0867,17.0867,17.0867,17.0867,17.0867,17.0867,17.0867,17.0867,17.0867,17.0867,17.0867,17.1071,17.2004,17.2277,17.255,17.3574,17.453,17.5255,17.5425,17.609,17.6801,17.6922,17.7681,17.8431,17.8962,18.0497,18.1999,18.3067,18.4047,18.5047,18.5956,18.4838,18.3874,18.3938,18.4352,18.4414,18.3671,18.3292,18.2786,18.2126,18.0487,17.9208,17.8551,17.7102,17.6229,17.6063,17.5499,17.4115,17.1788,17.0962,16.9514,16.7395,16.7395,16.7395,16.7395,16.7395,16.7395,11.8993,12.5528,13.1759,13.3683,13.7705,14.1183,14.127,14.127,14.1748,14.3454,14.4956,14.7296,15.1732,15.3437,15.5379,15.8883,16.192,16.3742,16.3296,16.6179,16.8173,16.7776,17.1066,17.3588,17.4206,17.3776,17.392,17.5072,17.6013,17.6783,17.7349,17.6053,17.537,17.537,17.3892,17.3073,17.305,17.164,17.0912,17.0889,17.0889,17.0844,17.0867,17.0867,17.0867,17.0867,17.0867,17.0867,17.0867,17.0867,17.0867,17.0867,17.0867,17.0867,17.0867,17.0798,17.0798,17.0844,17.0776,17.0776,17.0867,17.0867,17.0867,17.0867,17.0867,17.0867,17.0867,17.0867,17.0867,17.0867,17.0867,17.0867,17.1208,17.2618,17.4097,17.5598,17.6987,17.8465,17.9866,18.0786,18.2671,18.3957,18.3488,18.5353,18.5823,18.2957,18.4035,18.5117,18.4773,18.5984,18.6864,18.6838,18.5814,18.4329,18.2453,18.0326,17.8363,17.6468,17.4867,17.3765,17.3212,17.4302,17.3031,16.904,16.9436,16.7984,16.4513,16.4513,16.4513,16.4462,16.4513,16.4553,12.2859,12.4625,12.6048,13.0063,13.2059,13.3628,13.5824,13.6301,13.7378,14.1369,14.4224,14.6067,14.6252,14.9204,15.243,15.5306,15.767,15.9812,16.1831,16.3294,16.4803,16.6398,16.7606,16.8062,16.7542,16.9604,17.1058,17.1361,17.2672,17.4008,17.5306,17.5013,17.5286,17.6282,17.5275,17.4525,17.415,17.3765,17.2829,17.1299,17.1299,17.0967,17.0318,17.0318,17.0525,17.0867,17.0867,17.0867,17.0867,17.0867,17.0867,17.0867,17.0867,17.0867,17.0707,16.9162,16.9298,17.0068,16.8589,16.9067,17.0318,17.0318,17.057,17.0867,17.0867,17.0867,17.0867,17.0867,17.0867,17.0867,17.0867,17.0867,17.0935,17.1344,17.1754,17.2232,17.2573,17.3569,17.4833,17.6635,17.8519,18.0429,18.2082,18.2812,18.3087,18.2568,18.3684,18.4086,18.2863,18.3327,18.3419,18.2563,18.2195,18.1638,18.0677,17.9183,17.7824,17.693,17.5484,17.4237,17.3371,17.3658,17.2466,16.9701,16.9719,16.8876,16.6859,16.6859,16.6394,16.5615,16.6419,16.6369,11.7238,11.8879,12.1093,12.568,12.6701,12.8167,13.4094,13.3864,13.4,13.949,14.2499,14.4088,14.3864,14.6438,14.9088,15.0578,15.3798,15.6488,15.7766,16.0095,16.1989,16.2958,16.2507,16.2372,16.2914,16.5512,16.7415,16.8072,17.0088,17.172,17.2906,17.3355,17.3985,17.4776,17.4948,17.488,17.4573,17.4105,17.331,17.2121,17.151,17.1198,17.1295,17.1295,17.1456,17.1731,17.1525,17.141,17.141,17.141,17.123,17.0867,17.0867,17.0867,17.0753,16.9955,17.0631,17.1716,17.0295,17.073,17.1876,17.1664,17.1538,17.141,17.141,17.1185,17.0867,17.0867,17.0867,17.0867,17.0867,17.0867,17.0867,17.0867,17.0867,17.0867,17.0867,17.123,17.2135,17.3703,17.55,17.7247,17.9106,18.0558,18.1231,18.051,18.1012,18.1536,18.1921,18.2109,18.2303,18.2212,18.2203,18.1693,18.0287,17.8619,17.7143,17.6036,17.4724,17.3677,17.2843,17.3206,17.2309,16.993,17.0084,16.9413,16.7742,16.7742,16.7401,16.6742,16.745,16.6397,10.67,11.0796,11.662,12.0483,12.1162,12.3359,0.0,13.1529,13.0332,13.6368,13.8966,14.0669,14.2377,14.394,14.518,14.5658,15.0053,15.3088,15.2293,15.6369,15.9053,15.7949,15.6976,15.7258,15.9461,16.1578,16.3338,16.4559,16.7256,16.9184,16.9934,17.109,17.1899,17.2239,17.3624,17.4351,17.428,17.3386,17.2799,17.2479,17.1071,17.1162,17.2571,17.2504,17.255,17.2709,17.2474,17.2196,17.206,17.206,17.1591,17.0867,17.0867,17.0798,17.0775,17.1381,17.2597,17.3768,17.2946,17.3182,17.3768,17.3197,17.2533,17.1897,17.1967,17.1453,17.0912,17.098,17.1094,17.1185,17.1185,17.1071,17.098,17.098,17.0958,17.0867,17.0798,17.0798,17.098,17.1856,17.319,17.4474,17.5402,17.827,17.966,17.7255,17.7076,17.8192,18.0829,18.1375,18.1989,18.3335,18.3676,18.2782,18.0476,17.8321,17.6336,17.438,17.3386,17.2653,17.2081,17.294,17.2271,16.9663,16.9924,16.9274,16.7515,16.7131,16.6992,16.7077,16.6992,16.505,0.0,0.0,0.0,0.0,0.0,0.0,0.0,12.062,12.1995,12.5909,12.9297,13.2473,13.5174,13.7391,13.9974,14.3659,14.6106,14.781,14.8483,15.1454,15.3136,15.1767,15.4235,15.589,15.5512,15.8017,15.9434,15.8913,16.1271,16.3338,16.465,16.7211,16.9748,17.2171,17.2931,17.309,17.267,17.2492,17.137,16.9392,16.8284,16.8538,16.9985,16.9181,16.973,17.1344,17.2367,17.2208,17.1139,17.1139,17.098,17.0867,17.0867,17.0364,16.9487,16.8422,16.875,16.9427,16.7756,16.826,16.9701,16.9582,16.9689,16.9959,17.0379,17.0874,17.1455,17.181,17.2505,17.3031,17.3031,17.2482,17.1926,17.1926,17.1388,17.0753,17.0341,17.0272,17.0294,17.0474,17.139,17.2404,17.3406,17.4854,17.5276,17.3467,17.4659,17.594,17.6554,17.7646,17.8488,17.8762,17.9922,18.0271,17.9367,17.7361,17.548,17.3848,17.3516,17.3058,17.2265,17.2387,17.1122,16.8246,16.714,16.6394,16.6032,16.3184,16.2166,16.2852,16.2121,16.2868,0.0,0.0,0.0,0.0,0.0,0.0,0.0,0.0,0.0,0.0,0.0,12.8065,12.9605,0.0,13.7331,13.9612,14.2751,14.5356,14.6572,14.8511,14.9233,14.7806,14.9593,15.1669,15.3463,15.4816,15.5817,15.6544,15.797,15.9212,16.0223,16.2157,16.4289,16.6509,16.9025,17.0613,17.1175,17.143,17.0906,16.9648,16.7572,16.7301,16.8519,16.7957,16.8345,16.9389,17.0356,17.0083,16.8932,16.9516,16.9834,17.0157,17.0685,17.0819,17.0642,16.9896,17.0433,17.1367,17.003,17.03,17.1147,17.1056,17.0559,17.0047,17.0636,17.0613,17.0447,17.0707,17.1131,17.1327,17.0842,17.0897,17.1245,17.1499,17.1753,17.1867,17.1615,17.1361,17.0971,17.0247,17.0212,17.0565,17.1082,17.3054,17.4206,17.3154,17.4076,17.4951,17.4974,17.5799,17.5827,17.4348,17.4894,17.507,17.4552,17.352,17.2879,17.2923,17.2245,17.1419,17.041,16.9157,16.7933,16.6735,16.601,16.5875,16.6281,16.5037,16.4563,16.4628,15.9738,15.8771,0.0,0.0,0.0,0.0,0.0,0.0,0.0,0.0,0.0,0.0,0.0,0.0,0.0,0.0,0.0,13.5447,14.0002,14.3727,14.4565,14.5648,14.5901,14.4771,14.5599,14.7579,15.091,15.1753,15.2885,15.4585,15.5694,15.6305,15.6606,15.778,15.9036,16.0509,16.4446,16.7188,16.8458,16.923,16.9524,16.9366,16.6955,0.0,16.7732,16.7823,16.8073,16.8367,16.9073,16.8797,16.7837,16.8929,16.9497,16.9557,16.9388,16.9956,17.0994,17.1296,17.2115,17.3112,17.2883,17.2906,17.2883,17.2461,17.1269,17.0109,17.0579,16.9873,0.0,16.9559,16.9664,16.9406,16.854,16.9132,17.0064,17.0479,17.1389,17.214,17.2297,17.2066,17.1563,17.0338,17.0036,17.0006,16.9888,17.1909,17.3225,17.233,17.3198,17.3775,17.3305,17.461,17.464,17.2231,17.2391,17.232,17.1534,17.0654,17.0699,17.2319,17.0402,16.8708,16.7594,16.5581,16.4472,16.4288,16.4039,16.4494,16.5826,16.5897,16.5918,16.5694,15.6842,15.3772,0.0,0.0,0.0,0.0,0.0,0.0,0.0,0.0,0.0,0.0,0.0,0.0,0.0,0.0,0.0,0.0,13.8389,14.1407,14.0296,14.121,14.1997,14.196,14.5112,14.6715,14.5045,14.9191,15.159,15.0598,15.3058,15.4515,15.4154,15.594,0.0,0.0,0.0,16.2477,16.2681,16.4089,16.4596,16.4107,16.4255,16.5505,16.7732,16.8231,16.9184,17.0571,17.1934,17.173,17.0571,17.1911,17.1798,17.0207,16.5309,16.4631,16.6531,16.7888,16.821,16.8219,16.9463,0.0,0.0,16.8365,16.7759,16.7665,16.8184,16.7791,16.7839,17.0565,17.0952,17.0492,17.0362,16.9868,16.9435,16.9482,16.9228,16.9139,16.9625,17.0384,17.0843,17.0203,17.1431,17.2432,17.1967,17.0822,16.9146,16.687,16.9578,17.1019,16.8817,17.3193,17.6435,17.6095,17.7658,0.0,17.7386,17.3242,17.1359,17.2824,16.8627,16.5399,16.3971,16.3587,16.2229,15.9644,15.8328,15.9033,16.1799,15.8472,15.7642,15.9075,15.0249,14.8306,0.0,0.0,0.0,0.0,0.0,0.0,0.0,0.0,0.0,0.0,0.0,0.0,0.0,0.0,0.0,0.0,13.2793,13.5044,13.3713,13.8712,14.2023,14.0457,14.3981,14.6719,14.73,14.9382,15.0776,15.1109,15.3099,15.3538,15.1627,15.3895,15.5481,15.5884,15.7459,15.9196,16.094,16.2826,16.3601,16.3292,16.3809,16.402,16.3858,16.3173,16.3215,16.3828,16.3337,16.2861,16.2627,16.3836,16.4471,16.4741,0.0,0.0,0.0,0.0,16.6584,16.6475,16.7143,16.7014,16.6583,16.6435,16.5784,16.5392,16.6831,16.6931,16.7017,16.9393,16.9887,16.9537,16.9182,16.8604,16.7971,16.7697,16.788,16.7982,16.7574,16.8345,16.9003,16.8797,16.9158,0.0,17.0415,17.0542,16.9987,16.8392,16.9765,17.0313,16.8433,17.0701,17.2018,17.1161,17.1824,17.2301,17.2204,17.027,0.0,0.0,0.0,16.8095,16.6822,16.5647,0.0,0.0,0.0,15.5966,15.7754,15.3944,0.0,0.0,14.5429,14.4043,0.0,0.0,0.0,0.0,0.0,0.0,0.0,0.0,0.0,0.0,0.0,0.0,0.0,0.0,0.0,0.0,12.7061,12.9575,12.6791,13.461,13.9258,13.5466,14.0965,14.5321,14.595,14.8219,15.0318,15.1917,15.3404,15.3441,15.1647,15.289,15.3747,15.3819,15.5378,15.7204,15.9315,16.1698,16.2653,16.2129,16.3343,16.2977,16.1318,16.0982,16.0847,16.0757,15.9328,15.8869,15.9206,15.9971,16.0924,16.1962,16.2807,16.3038,16.2869,16.3057,16.3412,16.3853,16.4288,16.4001,16.3475,16.3744,16.3328,16.3154,16.4685,16.4959,16.5134,16.7176,16.7438,16.6961,16.656,16.6434,16.6428,16.6075,16.6952,16.7632,16.6841,16.7287,16.7705,16.7392,16.6191,16.5846,16.7948,16.9073,16.9173,16.7654,16.8957,16.9438,16.767,16.924,17.0085,16.8935,16.9102,16.9357,16.9611,16.8616,16.8821,17.0657,16.9548,16.8707,16.8477,16.5308,16.2556,16.0528,15.6417,15.4267,0.0,0.0,0.0,0.0,0.0,0.0,0.0,0.0,0.0,0.0,0.0,0.0,0.0,0.0,0.0,0.0,0.0,0.0,0.0,0.0,0.0,0.0,0.0,0.0,12.0159,12.7484,13.1164,12.489,13.5503,14.1507,13.6741,14.4434,15.0355,15.1862,15.3207,15.4453,15.5615,15.3402,15.2708,15.4087,15.6034,15.6947,15.6766,15.9867,16.0663,15.9193,16.2127,16.2889,16.1813,16.4666,16.5954,16.5954,16.5884,16.5884,16.5884,16.5954,16.5852,16.5054,15.8802,15.6516,15.6766,15.6492,15.7351,15.8855,16.0355,16.0872,16.0643,15.9119,15.9647,16.0834,16.0922,16.0921,16.1462,16.4073,16.3688,16.254,16.249,16.3603,16.4814,16.4994,16.6656,16.8059,16.7921,16.7912,16.7623,16.6491,16.318,16.1672,16.515,16.5308,16.4201,16.1577,16.5457,0.0,16.5098,16.9926,17.3652,17.356,17.4511,17.4864,17.4392,17.0774,16.916,17.0569,16.6165,16.4337,16.6224,16.016,15.7473,15.8832,15.6349,15.3953,15.1711,0.0,0.0,0.0,0.0,0.0,0.0,0.0,0.0,0.0,0.0,0.0,0.0,0.0,0.0,0.0,0.0,0.0,0.0,0.0,0.0,0.0,0.0,0.0,0.0,12.3494,12.9848,12.1546,13.2704,13.8728,13.2818,13.9943,14.5186,14.5759,15.2143,15.5237,15.3405,15.5364,15.612,15.5294,15.5692,15.6425,15.7583,15.874,15.9074,15.878,16.0111,16.0568,16.0211,15.9977,16.0472,16.1351,16.0316,15.9787,15.9639,15.9823,15.9649,15.8994,15.6811,15.5789,15.5555,15.5668,15.5963,15.6368,15.7064,15.7305,15.723,15.667,15.6731,15.7198,15.825,15.8534,15.9035,16.1082,16.1328,16.1209,16.2525,16.217,16.1658,16.2227,16.2724,16.2925,16.2172,16.198,16.2478,16.4413,15.9117,15.5315,15.8503,16.0809,16.1415,15.8896,16.28,16.575,16.4898,16.712,16.9277,17.067,17.1665,17.2322,17.2465,17.0629,16.9227,16.8742,16.6259,16.4653,16.4269,16.1259,15.9329,15.8832,15.7329,15.3001,14.5794,0.0,0.0,0.0,0.0,0.0,0.0,0.0,0.0,0.0,0.0,0.0,0.0,0.0,0.0,0.0,0.0,0.0,0.0,0.0,0.0,0.0,0.0,0.0,0.0,0.0,0.0,11.9689,12.9191,0.0,12.8326,13.3415,13.7443,13.8206,14.444,14.8316,14.8558,15.14,15.3728,15.537,15.567,15.6296,15.7251,15.8031,15.7939,15.6876,15.7862,15.8109,15.7683,15.701,15.73,15.8168,15.7153,15.6613,15.6486,15.6569,15.4967,15.2577,15.2463,15.0812,14.8689,14.9849,15.0175,15.0241,15.152,15.1937,15.1722,15.0006,14.8588,14.8213,15.1409,15.1623,15.1439,15.4823,15.5828,15.6532,15.9466,15.9669,15.9227,15.9725,16.0264,16.0322,15.9213,15.7872,15.7734,16.0661,15.6863,15.3308,15.4069,15.6616,15.8009,15.6413,15.9215,16.2267,16.4075,16.5286,16.6496,16.7859,16.8646,16.9164,16.9373,16.8886,16.7823,16.5988,16.4809,16.3403,16.1465,15.9824,15.7832,15.5466,15.4148,14.9422,0.0,0.0,0.0,0.0,0.0,0.0,0.0,0.0,0.0,0.0,0.0,0.0,0.0,0.0,0.0,0.0,0.0,0.0,0.0,0.0,0.0,0.0,0.0,0.0,0.0,0.0,0.0,11.8312,12.4418,0.0,0.0,0.0,0.0,12.9279,13.0985,13.4768,14.1207,14.1843,14.5659,15.3632,15.532,15.5994,15.5709,15.7437,15.6804,15.3694,15.5385,15.5621,15.4753,15.6084,15.6765,15.6837,15.6837,15.6837,15.6723,15.5895,15.1812,14.616,14.5582,14.1605,13.6567,13.9247,14.0193,14.0692,14.3888,14.503,14.4245,13.9822,13.6327,13.4985,14.072,14.0421,0.0,0.0,14.7057,14.827,15.3208,15.5619,15.6909,15.7534,15.9143,16.0172,15.8939,15.5903,15.3801,15.537,15.5619,15.4561,15.1131,0.0,15.337,15.3282,15.4518,15.7276,16.2182,16.4423,16.5577,16.5577,16.6046,16.618,16.5601,16.5955,16.5028,16.244,16.1723,16.0334,15.7862,15.5688,15.2789,14.8927,14.7081,0.0,0.0,0.0,0.0,0.0,0.0,0.0,0.0,0.0,0.0,0.0,0.0,0.0,0.0,0.0,0.0,0.0,0.0,0.0,0.0,0.0,0.0,0.0,0.0,0.0,0.0,10.6597,10.9711,10.926,11.307,11.3364,0.0,0.0,0.0,0.0,0.0,0.0,13.1376,13.3762,13.8315,14.5207,14.5586,14.8106,15.3093,15.2207,15.204,15.2619,15.1871,15.2647,15.4586,15.48,15.5477,15.6558,15.6558,15.6429,15.5422,14.605,14.1696,14.0482,13.5715,13.2768,13.1119,13.0659,13.0477,13.1132,13.5413,13.6911,13.6697,13.5484,13.4628,13.3558,13.1703,0.0,0.0,0.0,0.0,13.7366,14.4431,14.6572,14.837,15.44,15.6484,15.7025,15.6456,15.4998,15.2858,14.9619,14.6055,14.2555,13.9286,14.136,0.0,14.1516,14.7878,15.3739,15.6204,16.1847,16.562,16.5779,16.7616,16.7824,16.5404,16.5453,16.3772,15.9483,15.8122,15.6356,15.3789,14.9471,14.5775,14.2853,0.0,0.0,0.0,0.0,0.0,0.0,0.0,0.0,0.0,0.0,0.0,0.0,0.0,0.0,0.0,0.0,0.0,0.0,0.0,0.0,0.0,0.0,0.0,0.0,0.0,0.0,0.0,10.1674,10.5225,10.6176,10.7058,10.5901,0.0,0.0,0.0,0.0,0.0,0.0,0.0,0.0,0.0,13.3693,13.5031,13.7476,14.1253,14.3236,14.463,14.5561,14.7745,15.0089,15.2531,15.3076,15.298,15.2462,15.2351,15.0269,14.6293,13.9183,13.3677,12.9472,0.0,0.0,0.0,0.0,12.0716,12.1286,12.5282,12.6709,12.6352,12.4283,0.0,0.0,0.0,0.0,0.0,0.0,0.0,13.1216,13.8365,14.1719,14.4574,14.9711,15.1295,15.1759,15.2301,14.7704,14.2758,14.0486,13.8508,13.621,13.2684,13.4459,0.0,0.0,0.0,14.8835,15.2659,15.9408,16.3914,16.4003,16.5841,16.599,16.3298,16.3232,16.1589,15.7366,15.5878,15.3256,14.9027,14.4757,13.9722,0.0,0.0,0.0,0.0,0.0,0.0,0.0,0.0,0.0,0.0,0.0,0.0,0.0,0.0,0.0,0.0,0.0,0.0,0.0,0.0,0.0,0.0,0.0,0.0,0.0,0.0,0.0,0.0,0.0,10.4179,10.4836,0.0,0.0,0.0,0.0,0.0,0.0,0.0,0.0,0.0,0.0,0.0,0.0,0.0,12.5269,12.551,13.1844,13.5084,13.5252,14.1263,14.5088,14.6977,14.8349,14.7785,14.5619,14.3903,0.0,13.3538,13.2022,0.0,0.0,0.0,0.0,0.0,0.0,0.0,0.0,0.0,0.0,0.0,0.0,0.0,0.0,0.0,0.0,0.0,0.0,0.0,0.0,0.0,0.0,14.122,14.2761,14.4087,14.4955,14.4999,13.6562,12.9239,12.9918,13.1607,13.1725,0.0,0.0,0.0,0.0,0.0,0.0,15.0044,15.7027,16.152,16.1909,16.3001,16.2729,16.0565,16.055,15.9128,15.5584,15.3628,15.0069,14.421,14.0764,0.0,0.0,0.0,0.0,0.0,0.0,0.0,0.0,0.0,0.0,0.0,0.0,0.0,0.0,0.0,0.0,0.0,0.0,0.0,0.0,0.0,0.0,0.0,0.0,0.0,0.0,0.0,0.0,0.0,0.0,0.0,0.0,0.0,0.0,0.0,0.0,0.0,0.0,0.0,0.0,0.0,0.0,0.0,0.0,0.0,0.0,0.0,0.0,0.0,0.0,12.6702,12.8763,13.1581,13.1869,13.3994,13.6891,12.7243,12.3822,12.4358,11.6119,0.0,0.0,0.0,0.0,0.0,0.0,0.0,0.0,0.0,0.0,0.0,0.0,0.0,0.0,0.0,0.0,0.0,0.0,0.0,0.0,0.0,0.0,12.8232,12.9776,13.4308,13.6196,12.8346,0.0,0.0,0.0,0.0,0.0,0.0,0.0,0.0,0.0,0.0,0.0,14.5034,15.3856,16.0697,16.2907,16.3403,16.2344,15.9489,15.9916,15.807,15.2861,14.8243,14.4231,0.0,0.0,0.0,0.0,0.0,0.0,0.0,0.0,0.0,0.0,0.0,0.0,0.0,0.0,0.0,0.0,0.0,0.0,0.0,0.0,0.0,0.0,0.0,0.0,0.0,0.0,0.0,0.0,0.0,0.0,0.0,0.0,0.0,0.0,0.0,0.0,0.0,0.0,0.0,0.0,0.0,0.0,0.0,0.0,0.0,0.0,0.0,0.0,0.0,0.0,0.0,0.0,0.0,0.0,0.0,0.0,0.0,0.0,11.8855,11.211,0.0,0.0,0.0,0.0,0.0,0.0,0.0,0.0,0.0,0.0,0.0,0.0,0.0,0.0,0.0,0.0,0.0,0.0,0.0,0.0,0.0,0.0,0.0,0.0,0.0,0.0,0.0,0.0,0.0,0.0,0.0,0.0,0.0,0.0,0.0,0.0,0.0,0.0,0.0,0.0,14.3583,15.3551,16.0795,16.2146,16.157,16.011,15.7886,15.789,15.541,14.9498,14.5115,0.0,0.0,0.0,0.0,0.0,0.0,0.0,0.0,0.0,0.0,0.0,0.0,0.0,0.0,0.0,0.0,0.0,0.0,0.0,0.0,0.0,0.0,0.0,0.0,0.0,0.0,0.0,0.0,0.0,0.0,0.0,0.0,0.0,0.0,0.0,0.0,0.0,0.0,0.0,0.0,0.0,0.0,0.0,0.0,0.0,0.0,0.0,0.0,0.0,0.0,0.0,0.0,0.0,0.0,0.0,0.0,0.0,0.0,0.0,11.0327,10.1756,0.0,0.0,0.0,0.0,0.0,0.0,0.0,0.0,0.0,0.0,0.0,0.0,0.0,0.0,0.0,0.0,0.0,0.0,0.0,0.0,0.0,0.0,0.0,0.0,0.0,0.0,0.0,0.0,0.0,0.0,0.0,0.0,0.0,0.0,0.0,0.0,0.0,0.0,0.0,0.0,14.2433,15.2908,16.0156,16.0531,15.9237,15.7667,15.5998,15.5969,15.3051,14.5999,14.2347,0.0,0.0,0.0,0.0,0.0,0.0,0.0,0.0,0.0,0.0,0.0,0.0,0.0,0.0,0.0,0.0,0.0,0.0,0.0,0.0,0.0,0.0,0.0,0.0,0.0,0.0,0.0,0.0,0.0,0.0,0.0,0.0,0.0,0.0,0.0,0.0,0.0,0.0,0.0,0.0,0.0,0.0,0.0,0.0,0.0,0.0,0.0,0.0,0.0,0.0,0.0,0.0,0.0,0.0,0.0,0.0,0.0,0.0,0.0,0.0,0.0,0.0,0.0,0.0,0.0,0.0,0.0,0.0,0.0,0.0,0.0,0.0,0.0,0.0,0.0,0.0,0.0,0.0,0.0,0.0,0.0,0.0,0.0,0.0,0.0,0.0,0.0,0.0,0.0,0.0,0.0,0.0,0.0,0.0,0.0,0.0,0.0,0.0,0.0,0.0,0.0,13.9166,14.9407,15.6957,15.8524,15.7523,15.5897,15.3985,15.5437,15.24,14.2965,0.0,0.0,0.0,0.0,0.0,0.0,0.0,0.0,0.0,0.0,0.0,0.0,0.0,0.0,0.0,0.0,0.0,0.0,0.0,0.0,0.0,0.0,0.0,0.0,0.0,0.0,0.0,0.0,0.0,0.0,0.0,0.0,0.0,0.0,0.0,0.0,0.0,0.0,0.0,0.0,0.0,0.0,0.0,0.0,0.0,0.0,0.0,0.0,0.0,0.0,0.0,0.0,0.0,0.0,0.0,0.0,0.0,0.0,0.0,0.0,0.0,0.0,0.0,0.0,0.0,0.0,0.0,0.0,0.0,0.0,0.0,0.0,0.0,0.0,0.0,0.0,0.0,0.0,0.0,0.0,0.0,0.0,0.0,0.0,0.0,0.0,0.0,0.0,0.0,0.0,0.0,0.0,0.0,0.0,0.0,0.0,0.0,0.0,0.0,0.0,0.0,0.0,13.97,15.0095,15.7705,15.9312,15.7487,15.5824,15.5061,15.4833,15.0135,13.941,0.0,0.0,0.0,0.0,0.0,0.0,0.0,0.0,0.0,0.0,0.0,0.0,0.0,0.0,0.0,0.0,0.0,0.0,0.0,0.0,0.0,0.0,0.0,0.0,0.0,0.0,0.0,0.0,0.0,0.0,0.0,0.0,0.0,0.0,0.0,0.0,0.0,0.0,0.0,0.0,0.0,0.0,0.0,0.0,0.0,0.0,0.0,0.0,0.0,0.0,0.0,0.0,0.0,0.0,0.0,0.0,0.0,0.0,0.0,0.0,0.0,0.0,0.0,0.0,0.0,0.0,0.0,0.0,0.0,0.0,0.0,0.0,0.0,0.0,0.0,0.0,0.0,0.0,0.0,0.0,0.0,0.0,0.0,0.0,0.0,0.0,0.0,0.0,0.0,0.0,0.0,0.0,0.0,0.0,0.0,0.0,0.0,0.0,0.0,0.0,0.0,0.0,13.7709,14.9603,15.7958,15.8617,15.7373,15.586,15.4338,15.4242,14.8403,13.4654,0.0,0.0,0.0,0.0,0.0,0.0,0.0,0.0,0.0,0.0,0.0,0.0,0.0,0.0,0.0,0.0,0.0,0.0,0.0,0.0,0.0,0.0,0.0,0.0,0.0,0.0,0.0,0.0,0.0,0.0,0.0,0.0,0.0,0.0,0.0,0.0,0.0,0.0,0.0,0.0,0.0,0.0,0.0,0.0,0.0,0.0,0.0,0.0,0.0,0.0,0.0,0.0,0.0,0.0,0.0,0.0,0.0,0.0,0.0,0.0,0.0,0.0,0.0,0.0,0.0,0.0,0.0,0.0,0.0,0.0,0.0,0.0,0.0,0.0,0.0,0.0,0.0,0.0,0.0,0.0,0.0,0.0,0.0,0.0,0.0,0.0,0.0,0.0,0.0,0.0,0.0,0.0,0.0,0.0,0.0,0.0,0.0,0.0,0.0,0.0,0.0,0.0,13.1528,14.6786,15.6832,15.5364,15.6768,15.5813,15.0767,15.3706,14.7601,0.0,0.0,0.0,0.0,0.0,0.0,0.0,0.0,0.0,0.0,0.0,0.0,0.0,0.0,0.0,0.0,0.0,0.0,0.0,0.0,0.0,0.0,0.0,0.0,0.0,0.0,0.0,0.0,0.0,0.0,0.0,0.0,0.0,0.0,0.0,0.0,0.0,0.0,0.0,0.0,0.0,0.0,0.0,0.0,0.0,0.0,0.0,0.0,0.0,0.0,0.0,0.0,0.0,0.0,0.0,0.0,0.0,0.0,0.0,0.0,0.0,0.0,0.0,0.0,0.0,0.0,0.0,0.0,0.0,0.0,0.0,0.0,0.0,0.0,0.0,0.0,0.0,0.0,0.0,0.0,0.0,0.0,0.0,0.0,0.0,0.0,0.0,0.0,0.0,0.0,0.0,0.0,0.0,0.0,0.0,0.0,0.0,0.0,0.0,0.0,0.0,0.0,0.0,13.06,14.1077,14.9283,15.3137,15.4069,15.3299,15.0523,15.0374,14.4216,12.9445,0.0,0.0,0.0,0.0,0.0,0.0,0.0,0.0,0.0,0.0,0.0,0.0,0.0,0.0,0.0,0.0,0.0,0.0,0.0,0.0,0.0,0.0,0.0,0.0,0.0,0.0,0.0,0.0,0.0,0.0,0.0,0.0,0.0,0.0,0.0,0.0,0.0,0.0,0.0,0.0,0.0,0.0,0.0,0.0,0.0,0.0,0.0,0.0,0.0,0.0,0.0,0.0,0.0,0.0,0.0,0.0,0.0,0.0,0.0,0.0,0.0,0.0,0.0,0.0,0.0,0.0,0.0,0.0,0.0,0.0,0.0,0.0,0.0,0.0,0.0,0.0,0.0,0.0,0.0,0.0,0.0,0.0,0.0,0.0,0.0,0.0,0.0,0.0,0.0,0.0,0.0,0.0,0.0,0.0,0.0,0.0,0.0,0.0,0.0,0.0,0.0,0.0,0.0,13.7424,14.5701,14.9697,15.1124,15.0681,14.7898,14.7256,14.0906,12.6591,0.0,0.0,0.0,0.0,0.0,0.0,0.0,0.0,0.0,0.0,0.0,0.0,0.0,0.0,0.0,0.0,0.0,0.0,0.0,0.0,0.0,0.0,0.0,0.0,0.0,0.0,0.0,0.0,0.0,0.0,0.0,0.0,0.0,0.0,0.0,0.0,0.0,0.0,0.0,0.0,0.0,0.0,0.0,0.0,0.0,0.0,0.0,0.0,0.0,0.0,0.0,0.0,0.0,0.0,0.0,0.0,0.0,0.0,0.0,0.0,0.0,0.0,0.0,0.0,0.0,0.0,0.0,0.0,0.0,0.0,0.0,0.0,0.0,0.0,0.0,0.0,0.0,0.0,0.0,0.0,0.0,0.0,0.0,0.0,0.0,0.0,0.0,0.0,0.0,0.0,0.0,0.0,0.0,0.0,0.0,0.0,0.0,0.0,0.0,0.0,0.0,0.0,0.0,13.4829,14.4245,14.503,14.7741,14.7598,14.3146,14.4131,13.7696,12.0668,11.9455,0.0,0.0,0.0,0.0,0.0,0.0,0.0,0.0,0.0,0.0,0.0,0.0,0.0,0.0,0.0,0.0,0.0,0.0,0.0,0.0,0.0,0.0,0.0,0.0,0.0,0.0,0.0,0.0,0.0,0.0,0.0,0.0,0.0,0.0,0.0,0.0,0.0,0.0,0.0,0.0,0.0,0.0,0.0,0.0,0.0,0.0,0.0,0.0,0.0,0.0,0.0,0.0,0.0,0.0,0.0,0.0,0.0,0.0,0.0,0.0,0.0,0.0,0.0,0.0,0.0,0.0,0.0,0.0,0.0,0.0,0.0,0.0,0.0,0.0,0.0,0.0,0.0,0.0,0.0,0.0,0.0,0.0,0.0,0.0,0.0,0.0,0.0,0.0,0.0,0.0,0.0,0.0,0.0,0.0,0.0,0.0,0.0,0.0,0.0,0.0,0.0,0.0,12.4568,13.0834,13.9323,14.0892,14.0393,13.8138,13.8209,13.2572,11.8789,11.6863,0.0,0.0,0.0,0.0,0.0,0.0,0.0,0.0,0.0,0.0,0.0,0.0,0.0,0.0,0.0,0.0,0.0,0.0,0.0,0.0,0.0,0.0,0.0,0.0,0.0,0.0,0.0,0.0,0.0,0.0,0.0,0.0,0.0,0.0,0.0,0.0,0.0,0.0,0.0,0.0,0.0,0.0,0.0,0.0,0.0,0.0,0.0,0.0,0.0,0.0,0.0,0.0,0.0,0.0,0.0,0.0,0.0,0.0,0.0,0.0,0.0,0.0,0.0,0.0,0.0,0.0,0.0,0.0,0.0,0.0,0.0,0.0,0.0,0.0,0.0,0.0,0.0,0.0,0.0,0.0,0.0,0.0,0.0,0.0,0.0,0.0,0.0,0.0,0.0,0.0,0.0,0.0,0.0,0.0,0.0,0.0,0.0,0.0,0.0,0.0,0.0,0.0,11.5507,12.2357,13.4142,13.6697,13.6639,13.4298,13.4155,12.8732,11.609,11.3784,0.0,0.0,0.0,0.0,0.0,0.0,0.0,0.0,0.0,0.0,0.0,0.0,0.0,0.0,0.0,0.0,0.0,0.0,0.0,0.0,0.0,0.0,0.0,0.0,0.0,0.0,0.0,0.0,0.0,0.0,0.0,0.0,0.0,0.0,0.0,0.0,0.0,0.0,0.0,0.0,0.0,0.0,0.0,0.0,0.0,0.0,0.0,0.0,0.0,0.0,0.0,0.0,0.0,0.0,0.0,0.0,0.0,0.0,0.0,0.0,0.0,0.0,0.0,0.0,0.0,0.0,0.0,0.0,0.0,0.0,0.0,0.0,0.0,0.0,0.0,0.0,0.0,0.0,0.0,0.0,0.0,0.0,0.0,0.0,0.0,0.0,0.0,0.0,0.0,0.0,0.0,0.0,0.0,0.0,0.0,0.0,0.0,0.0,0.0,0.0,0.0,0.0,0.0,11.6529,12.7233,13.2228,13.3798,13.1087,13.0873,12.5592,11.3176,0.0,0.0,0.0,0.0,0.0,0.0,0.0,0.0,0.0,0.0,0.0,0.0,0.0,0.0,0.0,0.0,0.0,0.0,0.0,0.0,0.0,0.0,0.0,0.0,0.0,0.0,0.0,0.0,0.0,0.0,0.0,0.0,0.0,0.0,0.0,0.0,0.0,0.0,0.0,0.0,0.0,0.0,0.0,0.0,0.0,0.0,0.0,0.0,0.0,0.0,0.0,0.0,0.0,0.0,0.0,0.0,0.0,0.0,0.0,0.0,0.0,0.0,0.0,0.0,0.0,0.0,0.0,0.0,0.0,0.0,0.0,0.0,0.0,0.0,0.0,0.0,0.0,0.0,0.0,0.0,0.0,0.0,0.0,0.0,0.0,0.0,0.0,0.0,0.0,0.0,0.0,0.0,0.0,0.0,0.0,0.0,0.0,0.0,0.0,0.0,0.0,0.0,0.0,0.0,11.1512,11.351,12.2499,12.8207,12.7707,12.7636,12.2856,11.1512,0.0,0.0,0.0,0.0,0.0,0.0,0.0,0.0,0.0,0.0,0.0,0.0,0.0,0.0]}],[{"header":{"parameterUnit":"kt","parameterCategory":2,"dx":1,"dy":1,"la1":29.285339999999998,"la2":30.599998999999997,"lo1":-89.70041500000002,"lo2":-87.6738589999976,"nx":112,"ny":82,"refTime":"2022-09-23T18:00:00:Z","depth":0,"parameterNumber":2,"parameterNumberName":"V-component_of_WINDS"},"data":[9.1155,9.1877,9.2067,8.8498,9.0102,9.2267,9.1049,9.2985,9.5896,0.0,0.0,0.0,0.0,0.0,0.0,0.0,0.0,0.0,0.0,9.8545,9.8825,9.948,10.2191,10.4949,10.7427,11.4352,11.8091,11.6677,12.1494,12.3181,12.0324,12.075,12.1451,12.2152,12.3371,12.4259,12.4587,12.6269,12.8183,13.0285,13.1315,13.2904,13.4915,13.4915,13.5102,13.5476,13.5476,13.5476,13.5429,13.5055,13.5756,13.6926,13.5476,13.5803,13.6926,13.585,13.5476,13.5476,13.5476,13.5476,13.5476,13.5476,13.5476,13.5476,13.5476,13.5476,13.5616,13.6364,13.6037,13.5663,13.6364,13.6037,13.5476,13.5476,13.5476,13.5476,13.5476,13.5476,13.5476,13.5476,13.5476,13.5476,13.5476,13.5476,13.5709,13.6364,13.6832,13.7674,13.9358,13.9921,14.048,14.1413,14.1553,14.1553,14.1553,13.8882,13.7285,13.7285,13.5275,13.36,13.2427,12.9488,12.7518,12.6596,12.3063,12.1374,12.1734,12.184,12.1892,12.1892,12.1892,12.1892,8.827,8.873,8.873,8.5121,8.5423,8.6704,8.696,8.7843,0.0,0.0,0.0,0.0,0.0,0.0,0.0,0.0,0.0,0.0,0.0,9.789,9.9059,10.0496,10.3874,10.6959,10.9063,11.6035,11.9072,11.5742,12.1451,12.3508,11.981,12.0932,12.1965,12.2667,12.3932,12.496,12.5661,12.7715,12.9632,13.1362,13.2764,13.4167,13.5476,13.5476,13.5476,13.5476,13.5476,13.5476,13.5476,13.5476,13.6083,13.6973,13.5896,13.6083,13.6926,13.585,13.5476,13.5476,13.5476,13.5476,13.5476,13.5476,13.5476,13.5476,13.5476,13.5476,13.5476,13.5476,13.5476,13.5476,13.5476,13.5476,13.5476,13.5476,13.5476,13.5476,13.5476,13.5476,13.5476,13.5476,13.5476,13.5476,13.5476,13.5476,13.5803,13.6879,13.7347,13.8188,13.9967,14.0433,14.0854,14.1459,14.1553,14.1553,14.1553,13.8832,13.6682,13.5527,13.2069,12.9703,12.897,12.7506,12.619,12.5129,12.3007,12.1718,12.1396,12.1718,12.1718,12.1437,12.1718,12.1666,8.5159,8.364,8.3108,8.0601,8.0069,8.0145,8.0182,0.0,8.5573,0.0,0.0,0.0,0.0,0.0,0.0,0.0,0.0,0.0,0.0,9.6908,9.9667,10.1666,10.4435,10.7857,11.2016,11.4532,11.5788,11.5608,11.8506,12.0703,12.1591,12.1685,12.262,12.454,12.468,12.5661,12.7762,12.9864,13.1362,13.2437,13.4494,13.5476,13.5476,13.5476,13.5476,13.5476,13.5476,13.5476,13.5476,13.5476,13.6131,13.6879,13.585,13.6083,13.6879,13.585,13.5476,13.5476,13.5476,13.5476,13.5476,13.5476,13.5476,13.5476,13.5476,13.5476,13.5476,13.5476,13.5476,13.5476,13.5476,13.5476,13.5476,13.5476,13.5476,13.5476,13.5476,13.5476,13.5476,13.5476,13.5476,13.5476,13.5476,13.5476,13.585,13.6926,13.7955,13.8983,14.0061,14.0945,14.1506,14.1506,14.1358,14.1259,14.1262,14.116,13.9675,13.6425,13.212,12.8763,12.6608,12.6556,12.5088,12.1918,12.1839,12.1437,12.0539,12.1437,12.1437,12.0579,12.1477,12.1253,8.0183,8.0563,8.1322,7.8855,0.0,0.0,0.0,0.0,0.0,0.0,0.0,0.0,0.0,0.0,0.0,0.0,0.0,10.1864,9.8825,10.364,10.7389,10.7202,10.7903,11.0006,11.4205,12.0516,12.2807,11.9114,12.2386,12.3695,12.1778,12.2297,12.3278,12.4587,12.6079,12.7482,12.8837,13.0894,13.2484,13.3559,13.4868,13.5476,13.5476,13.5476,13.5476,13.5476,13.5476,13.5476,13.5476,13.5476,13.5663,13.585,13.5569,13.5663,13.585,13.5569,13.5476,13.5476,13.5476,13.5476,13.5476,13.5476,13.5476,13.5476,13.5476,13.5476,13.5476,13.5476,13.5476,13.5476,13.5476,13.5476,13.5476,13.5476,13.5476,13.5476,13.5476,13.5476,13.5476,13.5476,13.5476,13.5476,13.5476,13.5476,13.6083,13.7908,13.8422,13.9217,14.0898,14.1366,14.1272,14.062,13.8269,13.6415,13.5642,13.331,13.0485,12.7265,12.4416,12.2555,12.1986,12.2795,12.247,12.0954,12.1504,12.1437,12.0539,12.1437,12.1718,12.153,12.1771,12.172,0.0,0.0,0.0,0.0,0.0,0.0,8.1189,0.0,8.5642,0.0,0.0,0.0,0.0,0.0,0.0,0.0,10.1677,10.3511,10.0508,10.551,10.9586,10.9866,11.2576,11.4539,11.4766,11.9488,12.1685,11.9623,12.1638,12.2573,12.1685,12.2577,12.3702,12.5194,12.6453,12.7996,12.9911,13.1549,13.2905,13.398,13.4961,13.5476,13.5476,13.5476,13.5476,13.5476,13.5476,13.5476,13.5476,13.5476,13.5476,13.5476,13.5476,13.5476,13.5476,13.5476,13.5476,13.5476,13.5476,13.5476,13.5476,13.5476,13.5476,13.5476,13.5476,13.5476,13.5476,13.5476,13.5476,13.5476,13.5476,13.5476,13.5476,13.5476,13.5476,13.5476,13.5476,13.5476,13.5476,13.5476,13.5476,13.5476,13.5476,13.5476,13.6037,13.7721,13.8329,13.8983,14.015,14.0665,13.9839,13.7104,13.5,13.2751,13.0368,12.8414,12.5996,12.3023,12.2093,12.1064,11.9617,12.032,12.0459,11.9923,12.0459,12.035,11.9505,12.0712,12.1115,12.0753,12.153,12.1651,0.0,0.0,0.0,0.0,7.7184,0.0,0.0,0.0,8.2214,8.9312,0.0,9.3279,9.979,0.0,0.0,9.8567,10.2472,10.4726,10.1583,10.551,10.9437,11.1268,11.7197,11.9389,11.486,11.5234,11.6677,11.8734,11.8963,11.9763,12.1774,12.2717,12.4119,12.6082,12.6362,12.7949,13.0987,13.2063,13.3045,13.412,13.5055,13.5476,13.5476,13.5476,13.5476,13.5476,13.5476,13.5476,13.5476,13.5476,13.5476,13.5476,13.5476,13.5476,13.5476,13.5476,13.5476,13.5476,13.5476,13.5476,13.5476,13.5476,13.5476,13.5476,13.5476,13.5476,13.5476,13.5476,13.5476,13.5476,13.5476,13.5476,13.5476,13.5476,13.5476,13.5476,13.5476,13.5476,13.5476,13.5476,13.5476,13.5476,13.5476,13.5476,13.5803,13.6879,13.7814,13.8469,13.8563,13.9062,13.7491,13.2519,13.1325,12.9229,12.519,12.4513,12.3399,12.13,12.2269,12.1672,11.8757,11.8986,11.9079,11.8999,11.9079,11.8769,11.7987,11.9654,12.0016,11.9039,12.0793,12.1155,0.0,0.0,0.0,0.0,0.0,7.7215,0.0,0.0,0.0,9.8782,10.2353,10.4548,10.5979,10.6875,10.7062,10.5791,10.9951,11.2008,10.8044,11.1961,11.5367,11.5788,11.7051,11.7846,11.77,11.7846,11.8828,12.0932,12.1119,12.1591,12.2717,12.3745,12.4867,12.6082,12.7809,12.9772,13.2063,13.3138,13.4167,13.5195,13.5382,13.5476,13.5476,13.5476,13.5476,13.5476,13.5476,13.5476,13.5476,13.5476,13.5476,13.5476,13.5476,13.5476,13.5476,13.5476,13.5476,13.5476,13.5476,13.5476,13.5476,13.5476,13.5476,13.5476,13.5476,13.5476,13.5476,13.5476,13.5476,13.5476,13.5476,13.5476,13.5476,13.5476,13.5476,13.5476,13.5476,13.5476,13.5476,13.5476,13.5476,13.5476,13.5476,13.5476,13.5803,13.6879,13.7206,13.7674,13.8469,13.6278,13.3674,13.1189,12.5936,12.1709,11.9353,11.6646,11.5258,11.5808,11.6808,11.753,11.7832,11.8719,11.885,11.8218,11.885,11.8769,11.7987,11.9654,11.9694,11.8218,11.9212,11.9614,0.0,0.0,0.0,7.3694,0.0,0.0,0.0,8.6852,9.2921,9.8702,10.3626,10.7511,10.9593,10.9564,10.9259,10.9212,11.2289,11.4299,11.327,11.5414,11.7004,11.7004,11.7939,11.8594,11.8589,11.9529,12.0558,12.1634,12.2106,12.2577,12.3001,12.3515,12.454,12.6082,12.7669,12.9726,13.2344,13.3419,13.4447,13.5476,13.5476,13.5476,13.5476,13.5476,13.5476,13.5476,13.5476,13.5476,13.5476,13.5476,13.5476,13.5476,13.5476,13.5476,13.5476,13.5476,13.5476,13.5476,13.5476,13.5476,13.5476,13.5476,13.5476,13.5476,13.5476,13.5476,13.5476,13.5476,13.5476,13.5476,13.5476,13.5476,13.5476,13.5476,13.5476,13.5476,13.5476,13.5476,13.5476,13.5476,13.5476,13.5476,13.5476,13.5476,13.5663,13.6177,13.6739,13.7066,13.7066,13.4397,13.1214,12.7676,12.2279,11.7687,11.4663,11.2473,11.1917,11.3533,11.4111,11.5158,11.6867,11.7439,11.7609,11.7292,11.7694,11.7735,11.7343,11.862,11.858,11.7332,11.8568,11.897,0.0,0.0,0.0,0.0,0.0,0.0,8.0665,8.7114,9.4066,10.0123,10.503,10.9324,11.2789,11.2101,11.1268,11.1876,11.3598,11.5414,11.7051,11.7519,11.7706,11.7893,11.9207,11.9862,11.9202,12.0886,12.1965,12.1965,12.2811,12.3328,12.3328,12.3142,12.4119,12.6362,12.7482,12.9445,13.2344,13.3606,13.4681,13.5476,13.5476,13.5476,13.5476,13.5476,13.5476,13.5476,13.5476,13.5476,13.5476,13.5476,13.5476,13.5476,13.5476,13.5476,13.5476,13.5476,13.5476,13.5476,13.5476,13.5476,13.5476,13.5476,13.5476,13.5476,13.5476,13.5476,13.5476,13.5476,13.5476,13.5476,13.5476,13.5476,13.5476,13.5476,13.5476,13.5476,13.5476,13.5476,13.5476,13.5476,13.5476,13.5476,13.5476,13.5476,13.5476,13.5476,13.6411,13.6405,13.4662,13.2309,12.8717,12.3333,11.9098,11.5065,11.1288,11.0366,11.0707,11.2243,11.2542,11.3584,11.5593,11.5903,11.6204,11.6648,11.6608,11.6608,11.6608,11.7332,11.7384,11.6648,11.8005,11.8287,0.0,0.0,0.0,7.2628,7.4413,0.0,9.2406,9.5964,10.0497,11.4626,11.6629,11.6217,11.7601,11.7694,11.7238,11.6443,11.7285,11.8168,11.836,11.9202,12.0142,12.1073,12.0563,12.0423,12.126,12.225,12.2861,12.2861,12.3839,12.4446,12.4446,12.3558,12.4446,12.7435,12.8557,13.0146,13.2344,13.4354,13.5382,13.5476,13.5476,13.5476,13.5476,13.5476,13.5476,13.5476,13.5476,13.5476,13.5476,13.5476,13.5476,13.5476,13.5476,13.5476,13.5476,13.5476,13.5476,13.5476,13.5476,13.5476,13.5476,13.5476,13.5476,13.5476,13.5476,13.5476,13.5476,13.5476,13.5476,13.5476,13.5476,13.5476,13.5476,13.5476,13.5476,13.5476,13.5476,13.5476,13.5476,13.5476,13.5476,13.5476,13.5476,13.5476,13.5476,13.5476,13.6411,13.5536,13.139,12.8734,12.495,11.8944,11.5185,11.2313,11.0304,11.0114,11.0128,11.0346,11.1191,11.2277,11.3605,11.453,11.5566,11.6608,11.6608,11.6608,11.6608,11.6729,11.6729,11.6608,11.6809,11.6849,0.0,0.0,7.2628,7.3049,0.0,0.0,9.0689,9.9771,10.8558,11.4306,11.7723,11.9837,12.019,11.9341,11.8261,11.7191,11.7934,11.8823,11.9389,11.9862,12.0282,12.0703,12.0937,12.1404,12.239,12.2857,12.3282,12.3932,12.3749,12.3655,12.3655,12.3886,12.482,12.6736,12.8978,13.0848,13.2344,13.4447,13.5476,13.5476,13.5476,13.5476,13.5476,13.5476,13.5476,13.5476,13.5476,13.5476,13.5476,13.5476,13.5476,13.5476,13.5476,13.5476,13.5476,13.5476,13.5476,13.5476,13.5476,13.5476,13.5476,13.5476,13.5476,13.5476,13.5476,13.5476,13.5476,13.5476,13.5476,13.5476,13.5476,13.5476,13.5476,13.5476,13.5476,13.5476,13.5476,13.5476,13.5476,13.5476,13.5476,13.5476,13.5476,13.5476,13.5476,13.5476,13.585,13.4697,13.0751,12.7678,12.3879,11.8809,11.4841,11.2051,11.0784,11.0252,11.0038,11.0038,11.0454,11.1179,11.2264,11.3397,11.4475,11.5549,11.6303,11.6608,11.6608,11.6608,11.6608,11.6608,11.6608,11.6608,6.5674,0.0,0.0,0.0,0.0,0.0,9.0522,10.0899,11.0251,11.173,11.5844,11.9389,11.9838,11.8906,11.7986,11.7519,11.8589,11.9717,12.0423,12.0797,12.1077,12.1358,12.2059,12.29,12.3839,12.3932,12.4213,12.496,12.4029,12.3469,12.3469,12.4213,12.5194,12.6503,12.9305,13.1315,13.2344,13.4447,13.5476,13.5476,13.5476,13.5476,13.5476,13.5476,13.5476,13.5476,13.5476,13.5476,13.5476,13.5476,13.5289,13.5055,13.5055,13.4868,13.4634,13.4634,13.4821,13.5055,13.5055,13.5242,13.5476,13.5476,13.5289,13.5102,13.5382,13.5289,13.5102,13.5382,13.5476,13.5476,13.5476,13.5476,13.5476,13.5476,13.5476,13.5476,13.5476,13.5476,13.5476,13.5476,13.5476,13.5476,13.5476,13.5476,13.5476,13.5476,13.5709,13.4219,12.9441,12.6759,12.3178,11.7669,11.4143,11.1771,11.0936,11.0328,11.0038,11.0038,11.0038,11.0506,11.1503,11.2728,11.3808,11.4884,11.6048,11.6608,11.6608,11.6608,11.6608,11.6608,11.6608,11.6608,0.0,0.0,0.0,7.7565,8.0601,8.5474,9.6671,9.9499,10.2006,10.9947,11.2366,11.3629,11.5636,11.6592,11.7378,11.836,12.0231,12.1634,12.1591,12.239,12.3371,12.4353,12.4493,12.4914,12.5942,12.6035,12.6082,12.6082,12.5147,12.4587,12.4587,12.4587,12.5521,12.7622,12.9679,13.1315,13.2344,13.4447,13.5476,13.5476,13.5476,13.5476,13.5476,13.5476,13.5476,13.5476,13.5476,13.5476,13.5476,13.5476,13.4868,13.398,13.398,13.3372,13.2437,13.2437,13.3138,13.398,13.398,13.4634,13.5476,13.5476,13.4821,13.4167,13.5148,13.4774,13.4213,13.5195,13.5476,13.5476,13.5476,13.5476,13.5476,13.5476,13.5476,13.5476,13.5476,13.5476,13.5476,13.5476,13.5476,13.5476,13.5476,13.5476,13.5476,13.5476,13.6317,13.4171,12.6311,12.547,12.2246,11.3674,11.1838,11.0898,11.01,11.0076,11.0038,11.0038,11.0038,11.0506,11.1503,11.2728,11.3808,11.4884,11.6048,11.6608,11.6608,11.6608,11.6608,11.6608,11.6608,11.6608,6.6689,7.0994,7.5789,8.147,8.7509,9.3204,9.7536,10.2738,10.7416,10.9999,11.2845,11.4839,11.4796,11.7149,11.9436,12.0465,12.126,12.1872,12.2484,12.2857,12.3142,12.3515,12.4213,12.5007,12.6035,12.6129,12.6129,12.6129,12.5194,12.4263,12.3652,12.4259,12.5241,12.664,12.8043,12.9913,13.2344,13.3793,13.4821,13.5476,13.5476,13.5476,13.5476,13.5476,13.5476,13.5476,13.5476,13.5476,13.5429,13.4728,13.426,13.3886,13.3185,13.3138,13.3419,13.3419,13.3652,13.4026,13.4728,13.4307,13.3559,13.4213,13.3746,13.3138,13.4167,13.3697,13.3229,13.5006,13.5002,13.4623,13.5334,13.5476,13.5476,13.5476,13.5476,13.5476,13.5476,13.5476,13.5476,13.5476,13.5476,13.5476,13.5476,13.5476,13.5476,13.5476,13.3833,13.0711,12.5798,12.2768,11.8878,11.3144,11.1733,11.0898,11.0062,11.0038,11.0038,11.0038,11.0038,11.0194,11.0506,11.2316,11.35,11.386,11.5691,11.6608,11.6608,11.6608,11.6608,11.6608,11.6608,11.6608,6.8402,7.2932,7.7884,8.4953,9.0879,9.5511,9.7743,10.24,10.6265,10.641,11.035,11.359,11.2933,11.5962,11.9273,12.1332,12.1681,12.2012,12.2908,12.3048,12.3188,12.3515,12.454,12.5568,12.6596,12.6734,12.6593,12.6175,12.5194,12.4166,12.3095,12.4072,12.5101,12.6129,12.7528,12.9585,13.2344,13.3793,13.5008,13.6037,13.5663,13.5476,13.5476,13.5476,13.5476,13.5476,13.5476,13.5476,13.5382,13.4354,13.3746,13.3278,13.225,13.2016,13.225,13.225,13.2484,13.2904,13.3559,13.3185,13.2484,13.3185,13.2671,13.2017,13.3046,13.2624,13.2154,13.3873,13.391,13.3624,13.467,13.4955,13.505,13.5381,13.5476,13.5476,13.5476,13.5476,13.5476,13.5476,13.5476,13.5476,13.5476,13.5476,13.5476,13.5476,13.249,12.8991,12.5596,12.1187,11.6842,11.2947,11.152,11.0556,11.0024,11.0038,11.0038,11.0038,11.0038,11.0038,11.0038,11.1748,11.2883,11.3294,11.5089,11.6201,11.6608,11.6608,11.6608,11.6608,11.6608,11.6608,6.8791,7.3878,7.988,8.8115,9.0733,9.2592,9.7572,9.8711,9.8938,9.9764,10.5146,10.9825,11.0006,11.3282,11.7169,12.1085,12.1685,12.2059,12.2951,12.3048,12.3422,12.4493,12.5521,12.6593,12.7622,12.7762,12.7341,12.6222,12.5241,12.4213,12.3095,12.4119,12.5147,12.6129,12.823,13.0287,13.2204,13.4354,13.5944,13.6973,13.5943,13.5476,13.5476,13.5476,13.5476,13.5476,13.5476,13.5429,13.5335,13.426,13.3232,13.2203,13.1174,13.0192,12.9305,12.9305,13.0005,13.0846,13.0893,13.1455,13.2204,13.2251,13.1595,13.0944,13.202,13.1645,13.0995,13.2121,13.2335,13.2527,13.3576,13.391,13.4195,13.5192,13.5428,13.5476,13.5476,13.5476,13.5476,13.5476,13.5476,13.5476,13.5476,13.5333,13.5191,13.5191,13.2049,12.8528,12.5241,12.0479,11.608,11.2832,11.1026,11.0038,11.0038,11.0038,11.0038,11.0038,11.0038,11.0038,11.0038,11.1024,11.2161,11.3294,11.4321,11.5344,11.6506,11.6608,11.6608,11.6608,11.6557,11.6557,7.0834,7.7956,8.4169,9.1048,9.2902,9.3927,9.7116,9.7884,9.8255,9.9651,10.3627,10.7507,10.9642,11.3849,11.8024,12.1136,12.225,12.2768,12.3001,12.3048,12.3422,12.4493,12.5521,12.6593,12.7622,12.8417,12.8136,12.6269,12.5895,12.496,12.3142,12.4773,12.5848,12.6173,12.8931,13.0332,13.0053,13.2904,13.4868,13.585,13.5616,13.5476,13.5476,13.5476,13.5476,13.5476,13.5476,13.5055,13.426,13.3185,13.2156,13.1081,13.0053,12.9959,13.0426,13.0426,13.0613,13.094,13.1736,13.1128,13.0193,13.0941,13.0519,13.0007,13.1833,13.1138,13.0201,13.2787,13.2383,13.1423,13.2479,13.3339,13.3959,13.429,13.4907,13.5476,13.5476,13.5476,13.5476,13.5476,13.5476,13.5476,13.5476,13.3318,13.1602,13.1602,12.6493,12.2174,12.0588,11.6531,11.328,11.1686,11.0594,11.0038,11.0038,11.0038,11.0038,11.0038,11.0038,11.0038,11.0038,11.1024,11.2161,11.3294,11.3551,11.427,11.5344,11.6201,11.6608,11.6608,11.5742,11.5793,6.9941,7.8405,8.6483,9.2228,9.4003,9.4838,9.7086,9.7846,9.8445,9.9651,10.1134,10.3284,10.6952,10.9555,11.3058,11.884,11.9888,12.0679,12.274,12.3422,12.4119,12.5147,12.6175,12.7248,12.8276,12.8931,12.8604,12.6923,12.6409,12.5428,12.3839,12.482,12.5661,12.6129,12.8744,13.0098,12.9958,13.2577,13.4213,13.4821,13.5242,13.5476,13.5476,13.5476,13.5476,13.5476,13.5476,13.4915,13.3886,13.2811,13.1782,13.0706,12.9677,12.9585,13.0145,13.0145,13.0145,13.0193,13.0801,12.9054,12.6716,12.7312,12.7083,12.6946,12.8542,12.9462,13.0388,13.2644,13.2429,13.1615,13.2191,13.3148,13.3957,13.3957,13.4718,13.5476,13.5476,13.5476,13.5476,13.5476,13.5476,13.5476,13.5476,13.2586,13.0257,13.0257,12.446,11.9831,11.8855,11.5127,11.2203,11.1315,11.048,11.0038,11.0038,11.0038,11.0038,11.0038,11.0038,11.0038,11.0038,11.0609,11.1438,11.2522,11.2574,11.3089,11.4219,11.4833,11.5395,11.5855,11.5191,11.5498,6.9188,7.7464,8.6395,9.2099,9.4237,9.5339,9.7162,9.8065,9.8825,9.9613,9.8597,9.8967,10.3537,10.4149,10.6888,11.5746,11.6967,11.8263,12.2431,12.3839,12.4773,12.5802,12.6874,12.7902,12.8931,12.9165,12.8744,12.7575,12.6643,12.5615,12.4493,12.454,12.5101,12.6129,12.8183,12.9679,13.0613,13.2671,13.3652,13.3512,13.4728,13.5335,13.5476,13.5616,13.5616,13.5476,13.5476,13.4821,13.3606,13.2161,13.086,12.9698,12.8223,12.7626,12.7717,12.8262,12.8488,12.8488,12.8488,12.6488,12.3829,12.2812,12.2812,12.3354,12.3808,12.6322,12.9315,13.0938,13.1289,13.1289,13.1999,13.2909,13.3767,13.3863,13.4623,13.5286,13.5286,13.5381,13.5476,13.5476,13.5476,13.5333,13.4857,13.1502,12.8842,12.8711,12.3316,11.8899,11.7902,11.4603,11.2051,11.1125,11.0404,11.0038,11.0038,11.0038,11.0038,11.0038,11.0038,11.0038,11.0038,11.0038,11.0454,11.1348,11.1503,11.211,11.3089,11.3243,11.3808,11.468,11.468,11.5293,7.6188,7.8985,8.0723,9.0329,9.332,9.4572,9.7048,9.7694,9.8036,9.8787,9.8217,9.8775,10.2738,10.5894,10.9694,11.5386,11.8728,12.124,12.2822,12.3188,12.3745,12.4727,12.5755,12.683,12.7902,12.8744,12.8463,12.6593,12.6222,12.5334,12.3422,12.4166,12.5101,12.6129,12.8183,12.9352,12.9537,13.1595,13.225,13.1408,13.3278,13.4634,13.5522,13.6411,13.6318,13.5476,13.5476,13.44,13.2346,12.8851,12.6271,12.4236,12.0716,11.9317,11.9739,12.3044,12.4288,12.4288,12.4288,12.6031,12.7126,12.0442,12.0535,12.2803,12.0511,11.9704,12.0516,12.4874,12.5491,12.5807,12.9992,13.1901,13.2862,13.3673,13.41,13.4195,13.4195,13.4907,13.5476,13.5476,13.5476,13.4523,13.1606,12.5966,12.1625,12.0888,11.7346,11.4296,11.2686,11.1864,11.1125,11.029,11.0062,11.0038,11.0038,11.0038,11.0038,11.0038,11.0038,11.0038,11.0038,11.0038,11.009,11.0298,11.1127,11.1658,11.1903,11.2831,11.3397,11.3603,11.3603,11.4167,7.1871,7.7096,8.174,8.6305,9.0978,9.4959,9.7086,9.7875,9.8293,9.8673,9.7761,9.7444,9.9232,10.0693,10.336,10.85,11.2584,11.6112,11.9011,12.1973,12.4259,12.5287,12.6316,12.7388,12.8417,12.8978,12.8837,12.7856,12.678,12.5708,12.4727,12.4119,12.454,12.6082,12.7154,12.8183,12.9211,13.024,13.0754,13.0846,13.239,13.398,13.5476,13.5429,13.5429,13.5522,13.6084,13.4821,13.2066,12.8056,12.5153,12.2858,11.88,11.72,11.7436,11.9411,12.0114,12.0395,12.249,12.17,11.9458,11.772,11.7053,11.67,11.5795,11.6666,11.9208,12.4857,12.6055,12.6754,13.1295,13.2766,13.3148,13.3146,13.3576,13.3957,13.3957,13.4338,13.486,13.5381,13.3994,13.2242,13.051,12.574,12.1218,11.8545,11.5258,11.2682,11.1353,11.1201,11.0898,11.0062,11.0038,11.0038,11.0038,11.0038,11.0038,11.0038,11.0038,11.0038,11.0038,11.0038,11.0038,11.0038,11.0506,11.0765,11.0765,11.1334,11.1903,11.2419,11.2419,11.3294,6.908,7.6313,8.3506,8.4359,8.917,9.4427,9.72,9.8179,9.8559,9.8711,9.7572,9.6463,9.6273,9.635,9.816,10.3317,10.7387,11.1233,11.5156,12.0476,12.4045,12.4325,12.6107,12.7809,12.8837,12.9118,12.9165,12.8931,12.7201,12.6035,12.5802,12.4072,12.4026,12.6082,12.6129,12.7154,12.9211,12.9258,12.9677,13.0519,13.1549,13.3045,13.4821,13.4213,13.4634,13.585,13.6458,13.5195,13.2346,12.7158,12.3925,12.1776,11.6574,11.4577,11.4673,11.558,11.5866,11.6341,11.9505,11.7006,11.2602,11.4099,11.2987,11.0973,11.0913,11.3216,11.6992,12.2874,12.455,12.5581,13.0008,13.1858,13.2337,13.1522,13.1954,13.2814,13.3721,13.3387,13.3194,13.4142,13.1419,12.8677,12.7912,12.5062,12.1425,11.7151,11.4072,11.1976,11.1049,11.0936,11.0708,11.0062,11.0038,11.0038,11.0038,11.0038,11.0038,11.0038,11.0038,11.0038,11.0038,11.0038,11.0038,11.0038,11.0038,11.0038,11.0038,11.0038,11.0454,11.1283,11.1451,11.2522,7.7997,8.0464,8.204,8.8743,8.9894,9.1047,9.723,9.8141,9.7922,9.8597,9.8065,9.7238,9.6349,9.8846,10.2381,10.642,11.0189,11.3065,11.4433,11.8867,12.1048,11.8658,12.3077,12.6734,12.7762,12.8697,12.8884,12.7949,12.6827,12.5755,12.4773,12.3655,12.4026,12.6082,12.6129,12.7154,12.9211,12.9258,12.9305,12.9398,13.0472,13.1549,13.2671,13.3559,13.5008,13.6879,13.599,13.4915,13.3092,12.4339,12.0079,11.8283,10.9505,10.6064,10.6519,11.0173,11.158,11.1628,11.1975,11.4099,11.5485,10.8397,10.8299,11.0359,10.6733,10.5882,10.7268,11.2338,11.3763,11.5071,12.079,12.5167,12.8098,12.8001,12.805,12.9167,13.31,13.162,12.9729,13.0576,12.7409,12.356,12.0364,11.9495,11.7822,11.3626,11.2035,11.1011,11.0214,11.01,11.0114,10.9986,11.0038,11.0038,11.0038,11.0038,11.0038,11.0038,11.0038,11.0038,11.0038,11.0038,11.0038,11.0038,11.0038,11.0038,11.0038,11.0038,11.009,11.0194,11.1127,11.1696,6.7211,7.3722,7.9763,8.0256,8.5328,9.0966,9.3579,9.4724,9.5901,9.8255,9.7314,9.5795,9.4876,9.6737,9.8417,9.8443,10.2944,10.6507,10.6928,11.3497,11.8092,11.7686,12.2627,12.6593,12.7622,12.865,12.8837,12.7809,12.6736,12.5708,12.468,12.3652,12.4026,12.6082,12.6736,12.8089,13.0192,13.0801,13.0801,13.0238,13.1268,13.1642,13.1363,12.9834,13.0256,13.2024,12.9058,12.785,12.746,11.9625,11.5794,11.4208,10.7558,10.4963,10.5162,10.6766,10.7356,10.771,11.0164,11.0465,10.9726,10.8887,10.8005,10.7061,10.5459,10.4963,10.615,11.1722,11.2894,11.3915,12.0382,12.2476,12.2418,12.0377,12.185,12.4089,12.5806,12.5173,12.4521,12.5458,12.3047,12.0396,11.9005,11.6676,11.4442,11.2826,11.1368,11.0366,11.0024,11.0038,11.0038,11.0038,11.0038,11.0038,11.0038,11.0038,11.0038,11.0038,11.0038,11.0038,11.0038,11.0038,11.0038,11.0038,11.0038,11.0038,11.0038,11.0038,11.0252,11.0708,11.0682,11.1292,6.129,6.8827,7.6414,7.5012,8.114,8.805,9.0089,9.1416,9.3471,9.7875,9.6964,9.5149,9.4231,9.4876,9.5196,9.4279,9.8335,10.1571,10.1571,10.8701,11.4335,11.5393,12.081,12.5351,12.7488,12.837,12.8604,12.8183,12.664,12.5521,12.5101,12.3792,12.3886,12.5615,12.6734,12.8276,13.0332,13.1408,13.1549,13.0846,13.1549,13.1184,12.975,12.6905,12.6168,12.6986,12.3697,12.2887,12.3367,11.8541,11.5071,11.2302,10.7301,10.5191,10.4963,10.4963,10.4963,10.536,10.8201,10.7356,10.5459,10.8299,10.7307,10.4963,10.4963,10.4963,10.5913,11.0362,11.1365,11.2169,11.7218,11.7386,11.606,11.5506,11.7583,12.0059,12.1309,12.061,11.9992,12.0994,11.8658,11.649,11.649,11.4055,11.2089,11.1824,11.0798,11.0038,11.0038,11.0038,11.0038,11.0038,11.0038,11.0038,11.0038,11.0038,11.0038,11.0038,11.0038,11.0038,11.0038,11.0038,11.0038,11.0038,11.0038,11.0038,11.0038,11.0038,11.0404,11.1201,11.0366,11.0859,6.5988,6.8481,7.1948,7.6725,7.847,8.0785,8.7506,8.8957,9.0781,9.7382,9.7374,9.5932,9.5187,9.4313,9.4628,9.7465,9.9349,10.0517,10.0517,10.5363,10.9342,11.0544,11.6531,12.2443,12.7219,12.7715,12.8136,12.9165,12.6362,12.5054,12.6082,12.4213,12.3515,12.4587,12.5615,12.7201,12.9258,13.0332,13.0846,13.0846,13.0846,12.9703,12.7464,12.5684,12.4024,12.2668,12.1832,12.191,12.266,12.2568,11.9137,11.3373,10.8288,10.5772,10.4963,10.4963,10.4963,10.4963,10.5013,10.5013,10.4963,10.5013,10.5013,10.4963,10.4963,10.4963,10.5153,10.6176,10.6924,10.7721,10.8557,10.8228,10.9119,11.5041,11.6417,11.7634,12.1766,11.9407,11.6699,11.7493,11.4208,11.1292,11.1292,11.1201,11.0936,11.0138,11.0076,11.0038,11.0038,11.0038,11.0038,11.0038,11.0038,11.0038,11.0038,11.0038,11.0038,11.0038,11.0038,11.0038,11.0038,11.0038,11.0038,11.0038,11.0038,11.0038,11.0038,11.0038,11.0404,11.1201,11.0366,11.0442,6.2095,6.6058,7.097,7.4637,7.687,7.9899,8.6569,8.9777,9.1654,9.256,9.3699,9.4079,9.2674,9.4572,9.6042,9.5172,9.6011,9.6791,9.6791,10.1552,10.518,10.5515,11.4389,12.0008,11.8637,12.4753,12.7477,12.4301,12.5732,12.6222,12.5147,12.4493,12.4259,12.4587,12.6316,12.823,13.0332,13.2063,13.2951,13.2905,12.9965,12.6331,12.2067,11.9288,11.7771,11.7199,11.4729,11.3773,11.401,11.401,11.2563,11.0088,10.8,10.6949,10.6645,10.6114,10.5886,10.581,10.5191,10.4963,10.4963,10.4963,10.4963,10.4963,10.4963,10.4963,10.5153,10.6038,10.6038,10.6064,10.7468,10.8544,10.9702,11.1607,11.2032,11.2393,11.3742,11.2972,11.211,11.238,11.1724,11.1201,11.1201,11.1695,11.2051,11.1786,11.1201,11.0822,11.0822,11.0328,11.0038,11.0038,11.0038,11.0038,11.0038,11.0038,11.0038,11.0038,11.0038,11.0038,11.0038,11.0038,11.0038,11.0038,11.0038,11.0038,11.0038,11.0038,11.0404,11.1201,11.0366,11.0442,5.9499,6.405,6.9428,7.1671,7.2961,7.5636,8.3216,8.6433,8.7993,8.854,9.0352,9.1611,9.0847,9.2902,9.4155,9.256,9.3326,9.4275,9.4966,9.8261,10.1232,10.3039,11.0238,11.4864,11.4353,11.9938,12.2614,12.0127,12.1576,12.2038,12.0774,12.0324,12.0007,11.969,12.1631,12.3483,12.5157,12.9095,13.0465,12.9219,12.6143,12.2492,11.8398,11.5595,11.3704,11.2433,11.036,10.9531,10.9531,10.9924,10.9683,10.9062,10.8227,10.7733,10.7405,10.6658,10.6354,10.6202,10.5267,10.4963,10.4963,10.4963,10.4963,10.4963,10.4963,10.4963,10.5077,10.5658,10.5836,10.614,10.7253,10.8506,10.9607,10.9962,11.0038,11.0038,11.0038,11.0038,11.0038,11.0038,11.0404,11.0746,11.0746,11.1254,11.1596,11.1596,11.1087,11.0746,11.0746,11.029,11.0038,11.0038,11.0038,11.0038,11.0038,11.0038,11.0038,11.0038,11.0038,11.0038,11.0038,11.0038,11.0038,11.0038,11.0038,11.0038,11.0038,11.0038,11.0404,11.1201,11.0366,11.0442,5.8369,6.2442,6.7131,6.8314,6.8092,6.9798,7.8381,8.019,8.1235,8.5153,8.7184,8.849,8.9367,8.9713,8.9979,9.0396,9.1497,9.2946,9.4662,9.5446,9.752,10.2083,10.4582,10.7926,11.2977,11.4018,11.5059,11.6647,11.5254,11.4288,11.4299,11.3358,11.2468,11.1585,11.3284,11.4731,11.5844,12.2409,12.3916,12.0319,11.9839,11.8266,11.584,11.4035,11.1625,10.8758,10.8758,10.8758,10.8834,10.9683,11.0038,10.9962,10.9062,10.8303,10.7595,10.6759,10.6468,10.6316,10.5343,10.5039,10.4963,10.4963,10.4963,10.4963,10.4963,10.4963,10.4963,10.4963,10.6178,10.7519,10.7519,10.8113,10.8948,10.9797,11.0038,11.0038,11.0038,11.0038,11.0038,11.0038,11.0038,11.0038,11.0038,11.0024,11.0062,11.0062,11.0062,11.0062,11.0062,11.0076,11.0038,11.0038,11.0038,11.0038,11.0038,11.0114,11.0062,11.0038,11.0038,11.0038,11.0038,11.0038,11.0038,11.0038,11.0038,11.0024,11.0062,11.0062,11.0518,11.1277,11.0442,11.048,5.9358,6.0306,6.2271,6.7331,7.1627,7.5289,7.795,7.948,8.0418,8.0664,8.1547,8.2892,8.4882,8.6789,8.9519,9.4034,9.2403,9.1155,9.287,9.2674,9.3476,9.6558,10.1243,10.4469,10.5121,11.1425,11.4653,11.2617,11.4924,11.5831,11.4342,11.4087,11.3196,11.1628,11.2781,11.4186,11.5844,11.8243,11.5902,10.8894,11.3872,11.4205,11.045,11.072,11.0422,10.9683,10.9683,10.9683,10.9721,10.991,11.0038,11.0038,10.9759,10.9569,10.9303,10.8468,10.7696,10.7101,10.6266,10.5582,10.4963,10.4963,10.4963,10.4963,10.4963,10.4963,10.4963,10.4963,10.6178,10.7519,10.7519,10.862,10.9759,10.9948,11.0038,11.0038,11.0038,11.0038,11.0038,11.0038,11.0038,11.0038,11.0038,11.0518,11.0936,11.0936,11.0936,11.0936,11.0936,11.0366,11.0038,11.0038,11.0038,11.0038,11.0038,11.0556,11.067,11.0024,11.0038,11.0038,11.0038,11.0038,11.0038,11.0038,11.0038,11.029,11.0936,11.0936,11.1353,11.2203,11.1315,11.1011,5.8884,6.0705,6.2714,6.3942,6.7551,7.0808,7.0801,7.2864,7.4599,7.4101,7.5776,7.8206,8.1028,8.29,8.5499,8.9827,9.0244,9.0586,9.23,9.3092,9.3731,9.4389,9.8204,10.0789,10.0723,10.6169,10.9264,10.8279,11.0319,11.0981,10.9559,10.9479,10.867,10.6892,10.7747,10.8522,10.9183,11.0485,10.9046,10.5051,10.9093,11.0028,10.8151,10.9037,10.9189,10.8885,10.9683,10.9759,10.9455,10.9835,11.0038,11.0038,11.0038,11.0038,11.0,10.9493,10.872,10.7847,10.6683,10.5734,10.4963,10.4963,10.4963,10.4963,10.4963,10.4963,10.4963,10.4963,10.5912,10.6949,10.6949,10.8164,10.9417,10.9417,10.9721,11.0038,11.0038,11.0038,11.0038,11.0038,11.0038,11.0038,11.0038,11.0366,11.0632,11.0632,11.0632,11.0632,11.0632,11.0252,11.0038,11.0038,11.0038,11.0038,11.0038,11.0404,11.0442,11.0024,11.0328,11.0366,11.0076,11.0038,11.0038,11.0038,11.0038,11.0214,11.0632,11.0632,11.0898,11.1368,11.086,11.0632,5.8062,6.1582,6.4221,6.025,6.1257,6.309,6.2522,6.4873,6.7318,6.7788,7.069,7.4068,7.7079,7.8853,8.0523,8.2528,8.6575,9.0097,9.2067,9.4155,9.5059,9.4041,9.587,9.7656,9.8825,10.1064,10.3115,10.466,10.4887,10.4584,10.3809,10.382,10.3087,10.153,10.209,10.2128,10.1492,10.3011,10.4151,10.4774,10.581,10.6645,10.7367,10.8113,10.8113,10.7595,10.9151,10.9379,10.872,10.9493,10.9873,10.9986,10.9835,10.9873,11.0038,11.0038,10.9531,10.8644,10.7025,10.5848,10.4963,10.4963,10.4963,10.4963,10.4963,10.4963,10.4963,10.4963,10.562,10.6354,10.6354,10.7405,10.853,10.8644,10.9213,10.9835,10.9948,11.0038,11.0038,11.0038,11.0038,11.0038,11.0038,11.0038,11.0038,11.0038,11.0038,11.0038,11.0038,11.0038,11.0038,11.0038,11.0038,11.0038,11.0038,11.0152,11.019,10.9986,11.0632,11.0708,11.0024,11.0038,11.0,10.9797,10.991,11.0038,11.0038,11.01,11.0252,11.0418,11.0304,11.0176,5.856,5.9556,6.0183,6.0115,6.0917,6.1855,6.2278,6.2859,6.3826,6.5839,6.8234,7.0335,7.1591,7.5747,7.8908,7.869,8.329,8.7911,9.0978,9.172,9.263,9.4617,9.5187,9.6592,9.9461,10.1358,10.2887,10.3885,10.4595,10.4584,10.3809,10.382,10.3315,10.2317,10.2393,10.2393,10.2279,10.3277,10.3847,10.3999,10.5594,10.6392,10.6544,10.7329,10.7633,10.7557,10.8455,10.8796,10.8682,10.8834,10.9341,10.991,10.9138,10.9341,11.0038,11.0038,10.991,10.9569,10.7898,10.6254,10.4963,10.4963,10.4963,10.4963,10.4963,10.4963,10.4963,10.4963,10.562,10.6354,10.6354,10.6987,10.7809,10.8492,10.8758,10.9062,10.9835,11.0038,11.0038,11.0038,11.0038,11.0038,11.0038,11.0038,11.0038,11.0038,11.0038,11.0038,11.0038,11.0038,11.0038,11.0038,11.0038,11.0038,11.0038,11.0632,11.0746,11.0024,11.01,11.0138,11.0038,11.0038,10.9645,10.8872,10.9645,11.0038,11.0038,11.067,11.1391,11.2127,11.1353,11.1011,5.9109,5.9697,5.9815,6.0181,6.0848,6.1515,6.1779,6.2144,6.2684,6.3755,6.5808,6.7668,6.8545,7.18,7.4455,7.4926,7.7975,8.1891,8.6536,9.0293,9.2978,9.4199,9.5567,9.682,9.7829,10.0637,10.2811,10.3695,10.4519,10.4812,10.4443,10.4443,10.4026,10.3201,10.3201,10.3201,10.3201,10.3988,10.4227,10.382,10.5013,10.562,10.562,10.6456,10.6835,10.6873,10.7253,10.7405,10.7405,10.7405,10.7633,10.805,10.8492,10.891,10.9341,10.9835,11.0038,10.9835,10.853,10.762,10.6823,10.6,10.5343,10.4963,10.4963,10.4963,10.4963,10.4963,10.5267,10.562,10.562,10.6228,10.6949,10.7329,10.7746,10.8227,10.9151,10.9303,10.9455,10.991,11.0038,11.0038,11.0038,11.0038,11.0038,11.0038,11.0038,11.0038,11.0038,11.0038,11.0038,11.0038,11.0038,11.0038,11.0038,11.0328,11.0404,11.0076,11.0038,11.0038,11.0038,11.0038,10.9797,10.9417,10.9797,11.0038,11.0038,11.0366,11.0746,11.1178,11.0798,11.0556,6.0863,0.0,6.2423,6.2346,6.228,6.2215,0.0,6.2178,6.2177,6.2177,6.4003,6.5738,6.6173,6.8291,7.0465,7.1913,7.3546,7.6624,8.2398,8.7719,9.1396,9.2394,9.5144,9.6744,9.6015,9.9888,10.2735,10.3429,10.4405,10.4963,10.4963,10.4963,10.466,10.4113,10.4075,10.4075,10.4075,10.4709,10.4709,10.4075,10.466,10.4963,10.5001,10.5696,10.6,10.6,10.6,10.6,10.6,10.5822,10.586,10.6114,10.7139,10.7885,10.8455,10.9151,10.9645,10.9873,10.8986,10.8682,10.8417,10.6835,10.5734,10.4963,10.4963,10.5115,10.5229,10.5039,10.5115,10.5229,10.5039,10.5506,10.6038,10.6278,10.6911,10.7671,10.8265,10.853,10.8872,10.9569,10.9683,10.9759,10.9948,11.0038,11.0038,11.0038,11.0038,11.0038,11.0038,11.0038,11.0038,11.0038,11.0038,11.0038,11.0038,11.0038,10.991,10.9721,10.9683,10.9607,10.9417,10.9417,10.9417,10.9417,10.9279,10.9279,10.9417,10.9417,10.9417,10.9417,10.9417,10.9531,0.0,6.7462,6.8702,6.8465,6.6443,6.4514,6.4514,6.2948,0.0,6.1515,6.3257,6.4597,6.3938,6.6221,6.8714,7.0269,7.1863,7.4891,8.0633,8.2434,8.4624,8.853,9.2693,9.5232,9.5156,9.9546,10.2469,10.2545,10.4053,10.4963,10.4963,10.4963,10.4963,10.4887,10.4887,10.4887,10.4887,10.4963,10.4963,10.4887,10.4963,10.4963,10.4963,10.5039,10.5077,10.5077,10.5077,10.5077,10.5001,10.4303,10.4368,10.5001,10.4417,10.5556,10.7595,10.7671,10.8658,10.9873,10.8986,10.8682,10.8417,10.6835,10.5734,10.4963,10.4963,10.5582,10.6038,10.5191,10.5582,10.6,10.5191,10.5001,10.5267,10.6164,10.6911,10.7519,10.7595,10.8151,10.8682,10.8758,10.8758,10.9024,10.9835,11.0038,11.0038,11.0038,11.0038,11.0038,11.0038,11.0038,11.0038,11.0038,11.0038,11.0038,11.0038,11.0038,10.9645,10.8834,10.8758,10.8417,10.7708,10.7671,10.7671,10.7671,10.7,10.6911,10.7671,10.7671,10.7671,10.7671,10.7671,10.8037,6.8403,7.0392,7.1536,7.1463,6.8822,6.618,6.618,6.3736,6.1415,6.1415,6.2095,6.2705,6.2849,6.4174,6.5881,6.7872,6.9054,7.1577,7.6671,8.0899,8.4804,8.8256,9.3355,9.663,9.663,9.9204,10.1282,10.2393,10.3028,10.3863,10.4925,10.4519,10.4443,10.4963,10.4963,10.4963,10.4963,10.4963,10.4963,10.4963,10.4963,10.4963,10.4963,10.4963,10.4963,10.4925,10.3825,10.337,0.0,10.2556,10.2404,10.2735,10.3505,10.4379,10.5179,10.4831,10.6024,10.7556,10.6277,10.71,10.8492,10.7405,10.7126,10.7088,10.6114,10.5328,10.4911,10.5582,10.6038,10.6392,10.6532,10.619,10.5886,10.6278,10.6114,10.6064,10.6645,10.6987,10.7367,10.7809,10.7923,10.8189,10.9024,10.9138,10.9379,10.9962,11.0038,11.0038,11.0038,11.0038,11.0038,11.0038,11.0038,10.9569,10.8544,10.843,10.8316,10.7923,10.7923,10.7771,10.7519,10.7519,10.7519,10.7519,10.7215,10.7215,10.7519,10.7519,10.7519,10.7519,10.7519,10.7671,7.1036,7.3069,7.4654,7.4891,7.2044,6.9097,6.8897,6.5697,6.2545,6.188,6.1547,6.168,6.2576,6.321,6.4378,6.6842,6.7675,6.9699,7.4529,7.9391,8.384,8.7624,9.2236,9.5584,9.666,9.8711,10.0599,10.2269,10.2469,10.3142,10.4887,10.4265,10.4189,10.4963,10.4963,10.4963,10.4963,10.4963,10.4963,10.4963,10.4963,10.4963,10.4963,10.4963,10.4963,10.4887,10.3494,10.2697,10.2393,10.1606,10.1064,10.0951,10.209,10.2897,10.331,10.2961,10.4333,10.6229,10.519,10.6359,10.8151,10.7405,10.7329,10.724,10.5886,10.4911,10.4379,10.529,10.5936,10.6392,10.6645,10.6721,10.6683,10.6683,10.6418,10.6178,10.6316,10.6544,10.6759,10.7063,10.7139,10.7405,10.8151,10.8492,10.8796,10.9151,10.9645,10.9848,10.9265,10.9417,10.9493,10.9227,10.9189,10.8734,10.7595,10.7519,10.7405,10.7139,10.7139,10.6987,10.6671,10.6721,10.6721,10.6721,10.6721,10.6721,10.6721,10.6721,10.6721,10.6721,10.6721,10.6873,7.2782,7.5895,7.8497,7.9184,7.6526,7.3539,7.2878,6.909,6.5101,6.2874,6.1879,6.1881,6.3312,6.3579,6.4544,6.7542,6.8041,6.984,7.4885,7.7431,8.0791,8.6277,8.8694,9.1225,9.4704,9.7989,10.0599,10.2269,10.2431,10.3142,10.4887,10.4178,10.4151,10.4925,10.4963,10.4963,10.4963,10.4963,10.4963,10.4963,10.4963,10.4963,10.4963,10.4963,10.4963,10.4925,10.4151,10.3277,10.2393,10.1606,10.0761,9.9916,9.9916,10.0941,10.2383,10.2334,10.4015,10.6178,10.6216,10.6747,10.7316,10.657,10.5734,10.4849,10.3988,10.428,10.4774,10.395,10.4987,10.6076,10.5191,10.6178,10.7481,10.7519,10.8075,10.8189,10.6645,10.6911,10.7253,10.6506,10.6354,10.657,10.7367,10.8113,10.8379,10.7633,10.8923,10.9379,10.7746,10.8189,10.8379,10.7595,10.7519,10.7481,10.7481,10.7481,10.7139,10.6392,10.6316,10.5886,10.5039,10.5001,10.5001,10.5001,10.5001,10.5001,10.5001,10.4963,10.4963,10.4963,10.4963,10.5469,7.7852,7.9316,8.0327,8.1677,7.9532,7.6296,7.3366,7.0437,6.7356,6.3919,6.3044,6.3046,6.3479,6.4012,6.5011,6.6909,6.8902,7.1498,7.5085,7.9718,8.3834,8.6906,9.0883,9.3669,9.46,9.6816,9.8938,10.0523,10.1254,10.2404,10.4075,10.3304,10.3229,10.4113,10.4709,10.4963,10.4963,10.4963,10.4963,10.4963,10.4963,10.4963,10.4963,10.4963,10.4963,10.4925,10.4151,10.3277,10.2393,10.1606,10.0761,9.9916,9.9916,9.9366,9.8516,9.7441,9.7647,9.8545,9.9623,10.1535,10.3868,10.57,10.6494,10.5826,10.0675,10.0017,10.0952,10.0692,10.2931,10.5203,10.4379,10.4937,10.5988,10.7215,10.6747,10.6102,10.6266,10.6494,10.657,10.6392,10.6759,10.7215,10.7481,10.8113,10.8606,10.8341,10.9303,10.9848,10.9341,10.891,10.8568,10.8341,10.7329,10.6645,10.6645,10.6064,10.5608,10.5381,10.5343,10.5544,10.5886,10.5924,10.619,10.6709,10.6228,10.5924,10.5924,10.5267,10.4963,10.4963,10.4963,10.5115,7.8489,7.929,7.9761,8.205,8.0716,7.7878,7.4339,7.1737,6.8922,6.4853,6.3778,6.3645,6.3978,6.4644,6.5873,6.8203,7.03,7.3155,7.7623,8.2011,8.5782,8.8429,9.2149,9.4581,9.4889,9.6393,9.7908,9.9338,10.0267,10.1482,10.3163,10.1958,10.2173,10.4216,10.4405,10.4671,10.4963,10.4963,10.4963,10.4963,10.4963,10.4517,10.3733,10.3733,10.3235,10.2399,10.193,10.1214,10.0312,9.9583,9.872,9.7858,9.7609,9.6831,9.5673,9.4794,9.4716,9.5228,9.6462,9.8323,10.0418,10.2529,10.3339,10.2613,9.8173,9.741,9.7986,9.7332,9.8806,10.0792,10.1774,10.2382,10.3481,10.633,10.6494,10.6102,10.6683,10.6797,10.6683,10.6392,10.6949,10.7405,10.7063,10.7923,10.8568,10.8227,10.9227,10.9759,10.9075,10.8847,10.8568,10.8227,10.7367,10.6797,10.6797,10.6304,10.5988,10.5988,10.5988,10.6076,10.6316,10.6354,10.624,10.605,10.5848,10.562,10.5328,10.5089,10.4963,10.4963,10.4963,10.4963,7.6398,7.7163,7.7756,8.1008,8.0598,7.8492,7.5309,7.2977,7.0212,6.571,6.4311,6.4114,6.4886,6.5677,6.7333,7.0845,7.2352,7.5177,8.1297,8.4027,8.6628,8.9869,9.2119,9.3804,9.4775,9.5785,9.6879,9.8139,9.8999,10.0039,10.137,9.9803,10.0559,10.4351,10.3583,10.3621,10.4666,10.4391,10.4254,10.4254,10.4453,10.3434,10.1378,10.1602,10.0537,9.8473,9.8545,9.8016,9.7182,9.6555,9.5736,9.4796,9.4217,9.3835,9.3619,9.3619,9.3901,9.4513,9.5476,9.6322,9.7033,9.8138,9.7637,9.6541,9.5833,9.5733,9.5526,9.4069,9.3871,9.4819,9.8305,9.9356,10.051,10.4808,10.6431,10.7037,10.7316,10.7405,10.7215,10.6582,10.7063,10.7405,10.6645,10.7822,10.853,10.7746,10.8961,10.9455,10.7936,10.8265,10.8417,10.7822,10.7671,10.7595,10.7519,10.7443,10.7367,10.7291,10.7291,10.6987,10.6354,10.6354,10.5632,10.4151,10.4785,10.4747,10.4048,10.4671,10.4963,10.4963,10.4963,10.4963,7.8458,7.7934,7.7587,8.085,8.134,7.9512,7.4081,7.3454,7.241,6.6684,6.5873,6.6395,6.7154,6.8752,7.0697,7.2781,7.6259,7.9352,8.1042,8.3925,8.6015,8.6578,8.853,8.9563,8.909,9.0739,9.2545,9.4342,9.5268,9.5243,9.3937,9.4701,9.6871,10.0424,9.8902,9.9437,10.2499,10.0177,9.9038,9.9038,10.0643,10.0114,9.7653,9.9804,9.9649,9.7689,9.8295,9.8016,9.7168,9.704,9.615,9.4832,9.469,9.3341,9.141,9.141,9.0528,8.9629,9.203,9.3002,9.3596,9.6641,9.4821,9.1396,9.126,9.1981,9.2799,9.2452,9.3569,9.5357,9.7793,9.9405,10.0621,10.1534,10.2425,10.3706,10.6078,10.657,10.6683,10.7139,10.7847,10.8341,10.8189,10.9037,10.9417,10.853,10.9341,10.9873,10.9545,10.8986,10.8872,10.9417,10.8796,10.8151,10.7557,10.6911,10.6266,10.5533,10.5495,10.5772,10.6316,10.6354,10.6418,10.6683,10.6266,10.5974,10.5784,10.5279,10.4963,10.4963,10.4963,10.4963,7.9601,7.8828,7.8133,8.0928,8.1262,7.9628,7.4969,7.4601,7.3925,6.934,6.8437,6.847,6.8597,7.0313,7.2352,7.4272,7.8455,8.1766,8.2521,8.4838,8.6266,8.5622,8.6481,8.7357,8.7891,8.8937,9.0388,9.2343,9.3664,9.2963,8.9663,9.2067,9.4725,9.7319,9.7257,9.7837,9.9232,9.8038,9.7225,9.6968,9.832,9.7522,9.4878,9.6698,9.6177,9.3776,9.4191,9.4071,9.3607,9.3312,9.2691,9.1932,9.1552,9.0573,8.9256,8.9256,8.8606,8.7923,8.9808,9.0439,9.0773,9.265,9.1505,8.934,8.934,8.987,9.0356,9.0017,9.0666,9.1986,9.4078,9.5267,9.6348,9.8039,9.9536,10.0989,10.2355,10.3752,10.5171,10.6633,10.7847,10.8568,10.8151,10.9189,10.9835,10.9417,10.9721,11.0038,11.0038,10.9607,10.9493,10.9948,10.9176,10.8492,10.8075,10.7329,10.6683,10.6178,10.6178,10.6228,10.6354,10.6354,10.6164,10.5696,10.5696,10.5469,10.5101,10.5051,10.4963,10.4963,10.4963,10.4963,7.9702,7.932,7.8665,8.093,8.0886,7.9536,7.6542,7.5744,7.4861,7.2067,7.1023,7.0397,6.9853,7.1832,7.3973,7.5236,7.9749,8.3233,8.3735,8.5484,8.6375,8.5422,8.5312,8.596,8.7544,8.7686,8.85,9.0472,9.1734,9.0678,8.6782,8.9777,9.2145,9.331,9.5434,9.6325,9.5832,9.5974,9.5774,9.5323,9.6208,9.5036,9.2214,9.3354,9.2302,8.9623,8.9756,8.9822,8.9756,8.9207,8.8923,8.8807,8.8108,8.7809,8.7676,8.7676,8.7676,8.7775,8.8424,8.8624,8.859,8.8324,8.8324,8.8424,8.8424,8.8524,8.8491,8.7842,8.7676,8.8199,9.0416,9.0986,9.177,9.4921,9.7297,9.8607,9.7767,10.026,10.3325,10.5826,10.7367,10.8113,10.7784,10.8847,10.9835,11.0038,11.0038,11.0038,11.0038,11.0038,11.0038,11.0038,10.9176,10.8606,10.8492,10.7784,10.7177,10.6873,10.6835,10.6494,10.5708,10.562,10.4987,10.3581,10.4216,10.4216,10.3543,10.4216,10.4546,10.4546,10.4546,10.4546,7.7873,7.8399,7.8572,8.0363,8.052,7.9711,7.7315,7.6175,7.496,7.2652,7.2211,7.2182,7.2097,7.5619,7.7699,7.52,8.0544,8.4133,8.1815,8.3617,8.5062,8.4569,8.4513,8.4375,8.3928,8.3908,8.4748,8.6837,8.6181,8.5121,8.3808,8.551,8.6271,8.5834,8.9118,9.1777,9.3553,9.1745,9.0743,9.0692,9.261,9.1726,8.85,9.108,9.1057,8.899,8.9523,8.9822,8.9822,8.9689,8.934,8.879,8.869,8.8291,8.7676,8.7676,8.7676,8.7709,8.7809,8.7842,8.7642,8.6377,8.6344,8.6795,8.6795,8.7309,8.7809,8.7709,8.7676,8.8299,9.1082,9.1794,9.205,9.328,9.5189,9.6248,9.4279,9.7602,10.2054,10.5649,10.6506,10.7025,10.8303,10.872,10.91,10.9873,11.0038,11.0038,11.0038,11.0038,11.0038,11.0038,10.9176,10.8379,10.7746,10.6911,10.586,10.4379,10.4265,10.3885,10.3001,10.2963,10.2849,10.2621,10.2735,10.2735,10.2621,10.2735,10.2762,10.2762,10.2762,10.2762,7.6412,7.6736,7.6677,7.8171,7.8538,7.8068,7.6579,7.6514,7.6444,7.511,7.4582,7.413,7.3283,7.6645,7.8859,7.6907,8.2609,8.6696,8.4903,8.5922,8.6675,8.5989,8.5393,8.4713,8.3934,8.3867,8.4075,8.4511,8.4035,8.3554,8.3222,8.382,8.4584,8.5417,8.6293,8.7943,9.0489,8.8789,8.8159,8.8591,8.9985,8.9817,8.8357,8.9985,9.0036,8.8873,8.8674,8.8591,8.8558,8.8125,8.776,8.7476,8.7125,8.6792,8.6477,8.6477,8.6477,8.6477,8.6477,8.6477,8.6377,8.5745,8.5712,8.5978,8.5978,8.6211,8.6544,8.6895,8.6994,8.7404,8.912,8.9839,9.0544,9.1872,9.3438,9.4239,9.3006,9.5689,9.876,10.0332,10.331,10.5962,10.7139,10.8075,10.8948,10.9873,11.0038,10.9645,10.8734,10.862,10.862,10.862,10.786,10.7215,10.6873,10.6076,10.5241,10.4519,10.4443,10.4292,10.3863,10.3418,10.3201,10.3201,10.2697,10.2469,10.2469,10.2469,10.2469,10.2469,10.2469,10.2469,7.4036,7.4637,7.4795,7.5839,7.6408,7.6545,7.5865,7.6486,7.7086,7.6588,7.6116,7.5463,7.4386,7.7475,7.9553,7.7814,8.3606,8.783,8.6432,8.7399,8.7935,8.7114,8.654,8.5765,8.4746,8.448,8.42,8.3787,8.3588,8.3488,8.3488,8.3322,8.392,8.5498,8.4563,8.5107,8.7363,8.6631,8.6644,8.736,8.7942,8.8157,8.7991,8.8508,8.8441,8.7958,8.7376,8.7143,8.711,8.651,8.6229,8.6244,8.5712,8.5512,8.5512,8.5512,8.5512,8.5445,8.5079,8.4899,8.4899,8.4899,8.5079,8.5212,8.5212,8.5379,8.5612,8.6096,8.6229,8.6362,8.6976,8.7542,8.8354,8.9916,9.1014,9.1668,9.1615,9.3854,9.5804,9.5741,9.9835,10.3484,10.3945,10.5635,10.7461,10.9138,10.9379,10.8525,10.6155,10.6311,10.6667,10.6667,10.6457,10.6354,10.6354,10.5317,10.4595,10.4356,10.4128,10.3901,10.3711,10.3115,10.2708,10.2518,10.1824,10.1406,10.1216,10.1216,10.1216,10.1216,10.1216,10.1216,6.9993,7.218,7.3763,7.3796,7.4964,7.6058,7.6017,7.5865,7.5683,7.5659,7.5773,7.5728,7.557,7.899,8.055,7.6435,8.2066,8.5988,8.3233,8.5685,8.7508,8.6978,8.7519,8.727,8.5641,8.4813,8.4646,8.5345,8.4746,8.4314,8.4314,8.3588,8.3268,8.3362,8.3302,8.3668,8.4555,8.5227,8.5911,8.6562,8.6595,8.6263,8.5678,8.5712,8.5712,8.5678,8.5645,8.5645,8.5612,8.5578,8.5578,8.5578,8.5545,8.5512,8.5512,8.5512,8.5512,8.5312,8.382,8.3322,8.3322,8.3322,8.3834,8.4447,8.4447,8.4946,8.5512,8.5578,8.5578,8.5578,8.5612,8.5645,8.5878,8.6592,8.7374,8.8156,8.8856,9.1845,9.4395,9.4345,9.6837,9.8633,9.7953,10.0282,10.3442,10.7062,10.7633,10.6117,10.1952,10.3137,10.4332,10.4332,10.5547,10.6354,10.6354,10.4797,10.3505,10.2621,10.1862,10.1064,10.022,10.0144,9.9764,9.9014,9.8976,9.8559,9.7846,9.7846,9.7846,9.7846,9.7846,9.7846,6.811,6.8966,6.9433,7.043,7.1079,7.1615,7.2158,7.2874,7.3662,7.4136,7.4697,7.4885,7.4369,7.7609,8.0051,7.9042,8.2747,8.6179,8.7432,8.7508,8.7993,8.9422,8.9263,8.8564,8.727,8.6904,8.6837,8.7106,8.5894,8.5112,8.5112,8.4366,8.3967,8.3967,8.3455,8.3355,8.3588,8.4366,8.4632,8.4386,8.5398,8.5978,8.6129,8.6129,8.6129,8.6144,8.5712,8.5512,8.5479,8.4979,8.478,8.4746,8.4233,8.4067,8.4067,8.4067,8.4067,8.3967,8.3388,8.3222,8.3222,8.3222,8.3388,8.3588,8.3588,8.3787,8.4133,8.4646,8.478,8.4913,8.5379,8.5845,8.6389,8.738,8.7262,8.7238,8.8236,8.8902,8.9851,9.1706,9.3285,9.4911,9.6912,9.98,10.2653,10.503,10.2853,10.1139,10.1548,10.2228,10.3187,10.4533,10.5159,10.5469,10.5469,10.4455,10.3657,10.3353,10.2469,10.19,10.1548,10.1064,10.0381,9.9499,9.9014,9.8369,9.758,9.758,9.758,9.758,9.758,9.758,6.5462,6.6323,6.6911,6.7961,6.8623,6.9135,6.9668,7.0533,7.1432,7.2205,7.2943,7.3548,7.3752,7.6494,7.8921,7.957,8.2817,8.5746,8.7197,8.7415,8.7797,8.8525,8.9003,8.8866,8.7812,8.8052,8.7956,8.727,8.6698,8.6229,8.5878,8.5179,8.4746,8.4746,8.4,8.3588,8.3588,8.3867,8.3687,8.3222,8.4266,8.4965,8.5398,8.5398,8.5398,8.5398,8.4932,8.4732,8.4746,8.4167,8.3967,8.3934,8.3388,8.3222,8.3222,8.3222,8.3222,8.3222,8.3222,8.3222,8.3222,8.3222,8.3222,8.3222,8.3222,8.3222,8.3322,8.3834,8.3967,8.41,8.4599,8.5065,8.5655,8.6688,8.654,8.647,8.7428,8.7262,8.763,9.0143,9.0978,9.2046,9.4792,9.7666,9.982,10.0375,9.8927,9.8154,9.9157,9.951,10.0194,10.1549,10.2386,10.2824,10.2911,10.257,10.2361,10.2438,10.1607,10.1298,10.1586,10.0433,9.9641,9.9119,9.8271,9.7438,9.6706,9.6706,9.6706,9.6706,9.6706,9.6706,6.215,6.4392,6.6547,6.6606,6.7722,6.8907,6.8902,6.8902,6.9135,6.9967,7.07,7.1791,7.3954,7.5823,7.7205,7.7653,8.1947,8.4389,8.1917,8.513,8.6731,8.3993,8.6576,8.815,8.7093,8.7947,8.7663,8.5684,8.7039,8.7539,8.6559,8.5926,8.5593,8.5593,8.4813,8.4413,8.4461,8.3714,8.3302,8.3348,8.3348,8.3268,8.3222,8.3222,8.3222,8.3222,8.3222,8.3222,8.3222,8.3222,8.3222,8.3222,8.3222,8.3222,8.3222,8.3189,8.3189,8.3268,8.3235,8.3235,8.3222,8.3222,8.3222,8.3222,8.3222,8.3222,8.3222,8.3222,8.3222,8.3222,8.3222,8.3222,8.3388,8.4133,8.4913,8.5645,8.6263,8.7043,8.8152,8.9891,9.0021,9.0157,9.1109,9.3489,9.4745,9.3347,9.6058,9.7266,9.4464,9.4764,9.5212,9.5263,9.7245,9.859,9.8871,9.9122,9.9377,9.965,9.8935,9.8876,9.9689,9.7926,9.7088,9.7349,9.6351,9.5525,9.4862,9.4862,9.4862,9.4952,9.4862,9.4945,6.5239,6.4487,6.3706,6.4847,6.5438,6.6034,6.7073,6.7309,6.7701,6.9046,7.0294,7.1192,7.1332,7.3074,7.5118,7.701,7.8397,8.0224,8.3125,8.3933,8.4652,8.5701,8.667,8.6616,8.4964,8.5429,8.5578,8.4971,8.5915,8.6639,8.6927,8.6663,8.6798,8.7352,8.5961,8.5593,8.6354,8.6104,8.6111,8.6283,8.6283,8.5591,8.4338,8.4338,8.392,8.3222,8.3222,8.3222,8.3222,8.3222,8.3222,8.3222,8.3222,8.3222,8.3202,8.3421,8.3833,8.433,8.4573,8.4467,8.4338,8.4338,8.3827,8.3222,8.3222,8.3222,8.3222,8.3222,8.3222,8.3222,8.3222,8.3222,8.3255,8.3455,8.3654,8.3887,8.4053,8.5301,8.6515,8.6808,8.8824,9.0266,8.9669,9.2458,9.4423,9.3274,9.2584,9.1782,9.0488,9.2279,9.4277,9.5924,9.662,9.7342,9.8164,9.7732,9.7684,9.8516,9.7836,9.6954,9.5854,9.5333,9.419,9.244,9.209,9.1573,9.0833,9.0833,9.1523,9.2927,9.1478,9.1569,5.9253,5.8343,5.8653,6.2576,6.2568,6.2511,6.5946,6.6241,6.6309,6.8222,6.9501,7.0228,7.0167,7.1472,7.2967,7.441,7.5949,7.7703,7.9898,8.1517,8.2649,8.3423,8.3304,8.3068,8.3009,8.3255,8.3527,8.374,8.4803,8.5441,8.5444,8.6077,8.6686,8.714,8.6453,8.6419,8.7039,8.6273,8.5996,8.6168,8.5863,8.5298,8.459,8.459,8.4262,8.3701,8.4122,8.4356,8.4356,8.4356,8.3862,8.3222,8.3222,8.3222,8.3282,8.4216,8.5074,8.579,8.6419,8.623,8.5811,8.6233,8.5467,8.4356,8.4356,8.3782,8.3222,8.3222,8.3222,8.3222,8.3222,8.3222,8.3222,8.3222,8.3222,8.3222,8.3222,8.4035,8.4946,8.5543,8.7561,8.9158,8.9177,9.1194,9.2217,9.0614,8.9265,8.8541,8.879,9.0301,9.195,9.3468,9.3652,9.4143,9.5356,9.5098,9.512,9.5891,9.4806,9.387,9.3176,9.2338,9.1438,9.0413,8.996,8.9605,8.919,8.919,8.983,9.0887,8.9739,8.9291,4.8943,4.9656,5.2993,5.9211,5.8686,5.8139,0.0,6.4106,6.3787,6.596,6.7216,6.8229,6.9058,7.001,7.076,7.0993,7.41,7.6014,7.4536,7.8282,8.055,7.8858,7.8426,7.905,8.0921,8.1276,8.1493,8.1766,8.3334,8.3892,8.3055,8.4662,8.5764,8.5934,8.6388,8.6632,8.6774,8.5328,8.463,8.4765,8.3841,8.3828,8.4577,8.4369,8.4275,8.4294,8.5289,8.5678,8.561,8.561,8.4677,8.3222,8.3222,8.3362,8.3754,8.5272,8.6406,8.7289,8.8239,8.7943,8.7289,8.8248,8.7377,8.5939,8.5798,8.4784,8.3648,8.3508,8.3621,8.3782,8.3782,8.3668,8.3508,8.3508,8.3382,8.3222,8.3362,8.3362,8.3855,8.5509,8.6408,8.7406,8.877,8.949,8.9086,8.6752,8.6426,8.691,8.8257,8.8524,8.8824,8.9356,8.9523,9.0138,9.1524,9.1903,9.2101,9.2232,9.0861,9.0297,9.0896,8.9249,8.8725,8.9619,8.8633,8.8236,8.8484,8.8398,8.8499,8.8661,8.8499,8.7297,0.0,0.0,0.0,0.0,0.0,0.0,0.0,5.4652,5.5115,5.6223,5.9052,6.1773,6.3167,6.5762,6.827,7.0067,7.1458,7.2641,7.3678,7.5718,7.6768,7.5772,7.7794,7.8895,7.7959,7.8892,7.9111,7.7937,8.0023,8.1493,8.1924,8.3254,8.4633,8.59,8.5221,8.5241,8.609,8.5766,8.6143,8.7184,8.5514,8.5181,8.5854,8.4408,8.3644,8.3455,8.4302,8.4282,8.3701,8.3701,8.3508,8.3222,8.3222,8.4245,8.566,8.5411,8.6272,8.7612,8.8027,8.7882,8.7578,8.7809,8.7103,8.6074,8.5238,8.5777,8.6479,8.5603,8.6419,8.757,8.757,8.6466,8.5368,8.5368,8.4229,8.3455,8.4292,8.4431,8.4558,8.4879,8.6271,8.6958,8.5632,8.6644,8.733,8.6192,8.5837,8.5811,8.6111,8.6644,8.6994,8.7127,8.7693,8.8534,8.9674,8.9944,8.9955,8.9477,8.9127,8.8356,8.7065,8.6655,8.596,8.4918,8.4074,8.3699,8.3744,8.3315,8.3801,8.5115,8.3722,8.3098,0.0,0.0,0.0,0.0,0.0,0.0,0.0,0.0,0.0,0.0,0.0,5.7353,5.8001,0.0,6.5182,6.6218,6.8807,7.1091,7.2232,7.3792,7.4557,7.3845,7.4686,7.6136,7.8141,7.7822,7.7688,7.8103,7.8815,7.9218,7.923,8.0628,8.1968,8.3132,8.3698,8.4427,8.5345,8.4831,8.4862,8.551,8.3891,8.3755,8.4883,8.3969,8.3533,8.3476,8.5285,8.5322,8.4227,8.5096,8.5139,8.4663,8.3594,8.4354,8.6069,8.5693,8.6314,8.7492,8.81,8.824,8.8088,8.8099,8.7903,8.7404,8.6417,8.6463,8.6789,8.6277,8.6784,8.7237,8.6345,8.573,8.5205,8.469,8.4176,8.3941,8.4457,8.4971,8.5243,8.4824,8.591,8.6556,8.5531,8.634,8.7093,8.7158,8.6673,8.6276,8.6228,8.6099,8.5697,8.4918,8.5184,8.5861,8.691,8.7106,8.7197,8.7279,8.6937,8.5875,8.4153,8.4627,8.4358,8.3018,8.26,8.2872,8.3756,8.2509,8.2609,8.3826,8.2546,8.2266,0.0,0.0,0.0,0.0,0.0,0.0,0.0,0.0,0.0,0.0,0.0,0.0,0.0,0.0,0.0,6.2397,6.6637,7.01,7.046,7.1185,7.1703,7.1934,7.1802,7.3279,7.7464,7.6645,7.6591,7.8447,7.8104,7.7559,7.7123,7.8344,7.9401,8.0191,8.1822,8.2959,8.3646,8.2939,8.2683,8.2834,8.1542,0.0,8.3571,8.3388,8.3398,8.3658,8.5973,8.618,8.4884,8.6422,8.6479,8.5522,8.382,8.4044,8.5196,8.4416,8.4644,8.5369,8.5491,8.5444,8.5491,8.6338,8.6679,8.6616,8.5687,8.5739,0.0,8.5349,8.5983,8.6491,8.5009,8.4845,8.4849,8.4013,8.3882,8.4075,8.4617,8.5087,8.5246,8.4811,8.5415,8.5981,8.6213,8.6591,8.7017,8.7274,8.724,8.6937,8.6348,8.6108,8.5531,8.4235,8.4081,8.457,8.5816,8.5027,8.5107,8.662,8.5192,8.3655,8.2137,8.295,8.2957,8.1799,8.1619,8.2406,8.4151,8.2657,8.2272,8.2894,7.9538,7.9039,0.0,0.0,0.0,0.0,0.0,0.0,0.0,0.0,0.0,0.0,0.0,0.0,0.0,0.0,0.0,0.0,6.5962,6.8969,6.8474,6.6035,6.5602,6.9047,7.1758,7.28,7.1381,7.413,7.5786,7.5393,7.6416,7.7407,7.8122,7.8121,0.0,0.0,0.0,7.9465,7.9565,8.0143,8.0835,8.1653,8.0668,8.1394,8.3571,8.2734,8.2688,8.3308,8.4323,8.4222,8.3481,8.437,8.4256,8.3533,8.3153,8.2981,8.2576,7.9069,7.8382,7.8721,7.545,0.0,0.0,7.823,7.9344,7.9188,7.8258,8.1385,8.4713,8.1927,8.4769,8.8693,8.8449,8.7254,8.6099,8.6006,8.4144,8.3124,8.5556,8.4718,8.3788,8.4571,8.4657,8.4859,8.5798,8.6218,8.5662,8.3597,8.5648,8.6669,8.4457,8.6233,8.7727,8.7558,8.731,0.0,8.9896,8.5963,8.5145,8.9309,8.5341,8.2465,8.1585,8.1673,8.0995,7.9541,7.8778,7.9237,8.0835,8.0854,8.081,8.0507,6.8373,6.603,0.0,0.0,0.0,0.0,0.0,0.0,0.0,0.0,0.0,0.0,0.0,0.0,0.0,0.0,0.0,0.0,5.9427,6.1454,6.3063,6.1442,6.2214,6.7796,6.6376,6.6044,6.8785,7.0603,7.1563,7.157,7.2512,7.4058,7.6219,7.4541,7.5099,7.8572,7.8989,7.9589,8.0516,7.8046,7.8362,8.1414,7.7749,7.8014,8.1641,8.08,8.0544,8.0847,8.1325,8.1089,8.0364,8.1686,8.2283,8.1912,0.0,0.0,0.0,0.0,7.2757,7.2817,7.1271,7.1378,7.2378,7.2908,7.4191,7.5428,7.4824,7.6625,7.8603,7.7085,7.8375,7.9846,7.8274,7.9688,8.1189,7.9651,8.1202,8.3067,8.3207,8.3361,8.3572,8.3987,8.4454,0.0,8.6013,8.6603,8.7022,8.7135,8.7786,8.7717,8.6226,8.6625,8.6881,8.6389,8.6254,8.6317,8.668,8.4777,0.0,0.0,0.0,8.3352,8.4199,8.2307,0.0,0.0,0.0,7.4967,7.6676,7.2143,0.0,0.0,6.7766,6.6786,0.0,0.0,0.0,0.0,0.0,0.0,0.0,0.0,0.0,0.0,0.0,0.0,0.0,0.0,0.0,0.0,5.3567,5.5419,5.7407,5.6576,5.786,6.3439,6.0837,6.0287,6.46,6.604,6.6926,6.7439,6.9506,7.1245,7.2383,7.099,7.1489,7.4349,7.4789,7.5721,7.7112,7.401,7.4661,7.8966,7.4063,7.3951,7.8028,7.6623,7.6021,7.6033,7.6209,7.5936,7.5405,7.6624,7.7621,7.7741,7.116,6.8891,6.9291,6.8847,6.8001,6.693,6.5856,6.6365,6.7452,6.7198,6.8594,7.036,7.0064,7.1352,7.2661,7.1771,7.2316,7.2651,7.0701,7.3287,7.59,7.3724,7.658,7.9788,7.9859,8.0858,8.1909,8.2719,8.3597,8.4446,8.517,8.5973,8.678,8.7566,8.8188,8.8086,8.6877,8.6814,8.6663,8.6077,8.5581,8.5074,8.4738,8.3839,8.3769,8.468,8.3497,8.3827,8.6307,8.2476,8.0164,7.9982,7.5079,7.2706,0.0,0.0,0.0,0.0,0.0,0.0,0.0,0.0,0.0,0.0,0.0,0.0,0.0,0.0,0.0,0.0,0.0,0.0,0.0,0.0,0.0,0.0,0.0,0.0,5.2325,5.1143,5.1337,5.3819,5.6604,5.7982,5.699,6.0242,6.2616,6.3146,6.8463,7.0134,6.6556,6.8399,6.809,6.4713,6.4382,6.4759,6.5788,6.6833,6.9234,7.2916,6.9865,6.9825,7.2467,6.9526,6.8211,6.8211,6.8182,6.8182,6.8182,6.8211,6.8857,6.9584,6.7407,6.6185,6.5788,6.6629,6.4575,6.078,5.6932,5.5687,5.6345,6.0086,6.1683,6.2192,6.2175,6.5272,6.8329,6.6186,6.8325,7.1202,7.1127,7.1614,7.1877,7.0887,7.0473,7.1445,7.5918,7.6854,7.7664,8.0586,8.147,8.1932,8.2622,8.3492,8.3326,8.111,8.4874,0.0,8.4576,8.664,8.8361,8.8374,8.6652,8.5937,8.6889,8.4101,8.411,8.8379,8.4152,8.3057,8.6531,8.1221,7.8621,7.9299,7.6785,7.3896,7.0643,0.0,0.0,0.0,0.0,0.0,0.0,0.0,0.0,0.0,0.0,0.0,0.0,0.0,0.0,0.0,0.0,0.0,0.0,0.0,0.0,0.0,0.0,0.0,0.0,4.6096,4.7743,5.1985,5.1356,5.1094,5.2318,5.4949,5.6551,5.6545,6.0026,6.272,6.3984,6.3215,6.3572,6.5369,6.5987,6.6399,6.6586,6.4185,6.4775,6.8423,6.3827,6.3705,6.7388,6.6571,6.6367,6.6628,6.6149,6.6237,6.6789,6.615,6.3139,5.8903,5.824,5.8586,5.942,5.9123,5.8555,5.7687,5.5764,5.5078,5.5292,5.6637,5.7578,5.8286,5.8725,5.9915,6.0948,5.9826,6.0469,6.1429,6.117,6.3574,6.5879,6.4876,6.6883,6.9158,6.957,7.1907,7.4313,7.5741,7.5416,7.4393,7.26,7.7511,8.0754,7.8144,8.2058,8.4967,8.4133,8.5957,8.7242,8.702,8.7409,8.7625,8.7343,8.5247,8.4316,8.5284,8.3291,8.2429,8.3192,8.0896,7.9493,7.9299,7.7373,7.2007,6.3062,0.0,0.0,0.0,0.0,0.0,0.0,0.0,0.0,0.0,0.0,0.0,0.0,0.0,0.0,0.0,0.0,0.0,0.0,0.0,0.0,0.0,0.0,0.0,0.0,0.0,0.0,4.7524,4.6663,0.0,4.7262,4.9261,5.0408,5.009,5.36,5.6238,5.7305,5.7313,5.8242,6.0322,6.1222,6.1912,6.2389,5.9528,5.9986,6.373,5.8679,5.8232,6.1914,6.0713,6.0382,6.0665,6.0129,6.0265,6.0805,6.0591,5.7314,5.249,5.2823,5.3174,5.3476,5.3617,5.4057,5.4544,5.4355,5.4317,5.424,5.3627,5.3532,5.3899,5.5108,5.5186,5.5026,5.5492,5.5612,5.5671,5.603,5.8608,6.0872,5.9768,6.1771,6.3911,6.3822,6.5898,6.7972,6.8662,6.9021,6.8608,6.6692,7.1065,7.4206,7.2418,7.6796,8.0407,8.069,8.3367,8.5177,8.501,8.564,8.5961,8.5719,8.4319,8.3388,8.3324,8.1946,8.1192,8.1164,7.9522,7.7727,7.5826,7.4715,6.9082,0.0,0.0,0.0,0.0,0.0,0.0,0.0,0.0,0.0,0.0,0.0,0.0,0.0,0.0,0.0,0.0,0.0,0.0,0.0,0.0,0.0,0.0,0.0,0.0,0.0,0.0,0.0,4.0522,4.2613,0.0,0.0,0.0,0.0,4.412,4.9259,5.0849,4.7247,5.0971,5.2252,5.0057,5.0514,5.1628,5.3425,5.306,5.4902,5.8757,5.4358,5.368,5.6134,5.2557,5.0983,5.1007,5.1007,5.1007,5.1111,5.1925,5.1441,5.0371,5.1107,5.0058,4.8361,5.0338,5.1069,5.1251,5.246,5.2876,5.259,5.0978,4.9703,4.9172,5.1175,5.1109,0.0,0.0,5.3524,5.3966,5.5716,5.6641,5.6868,5.6028,5.5575,5.6082,5.8833,5.9358,5.9328,5.969,6.2381,6.4565,6.4297,0.0,6.4264,6.408,6.9251,7.3443,7.4231,7.8756,8.1935,8.1935,8.1154,8.1052,8.2059,8.1166,8.1159,8.26,8.0137,7.9177,8.038,7.7094,7.3338,6.9248,6.9074,0.0,0.0,0.0,0.0,0.0,0.0,0.0,0.0,0.0,0.0,0.0,0.0,0.0,0.0,0.0,0.0,0.0,0.0,0.0,0.0,0.0,0.0,0.0,0.0,0.0,0.0,3.7225,3.8212,3.8122,3.9417,3.9727,0.0,0.0,0.0,0.0,0.0,0.0,4.4556,4.6262,4.7499,4.797,4.8756,4.96,5.0483,5.0743,5.1241,5.19,5.0309,5.0382,5.1771,5.1608,5.1739,5.2099,5.2099,5.2483,5.2853,4.9755,4.8876,4.936,4.7809,4.726,4.7359,4.7515,4.757,4.7769,4.9328,4.9874,4.9796,4.9354,4.9042,4.8652,4.7977,0.0,0.0,0.0,0.0,4.9955,5.2524,5.3302,5.3911,5.5768,5.5126,5.4499,5.5885,5.723,5.7104,5.3581,5.5563,5.6603,5.264,5.7337,0.0,5.7761,6.2437,6.6499,6.711,7.0321,7.2497,7.2513,7.3807,7.5764,7.8285,7.5292,7.55,8.0877,7.6961,7.5207,7.6991,7.27,6.8995,6.6282,0.0,0.0,0.0,0.0,0.0,0.0,0.0,0.0,0.0,0.0,0.0,0.0,0.0,0.0,0.0,0.0,0.0,0.0,0.0,0.0,0.0,0.0,0.0,0.0,0.0,0.0,0.0,3.5662,3.6778,3.6819,3.7747,3.7827,0.0,0.0,0.0,0.0,0.0,0.0,0.0,0.0,0.0,4.4814,4.5837,4.6667,4.7348,4.7883,4.8261,4.8351,4.8273,4.8676,4.9514,5.0292,5.0584,5.0459,5.0791,5.0553,4.9749,4.7543,4.6274,4.565,0.0,0.0,0.0,0.0,4.3974,4.4182,4.5638,4.6157,4.6027,4.5274,0.0,0.0,0.0,0.0,0.0,0.0,0.0,4.7759,5.0318,5.1538,5.2576,5.4444,5.3855,5.2997,5.3746,5.2849,5.1343,4.9576,5.037,5.0462,4.772,5.1236,0.0,0.0,0.0,6.0322,6.1194,6.4962,6.7581,6.7566,6.9277,7.1261,7.3239,7.1134,7.1101,7.4323,7.3205,7.1464,6.9393,6.8127,6.4551,0.0,0.0,0.0,0.0,0.0,0.0,0.0,0.0,0.0,0.0,0.0,0.0,0.0,0.0,0.0,0.0,0.0,0.0,0.0,0.0,0.0,0.0,0.0,0.0,0.0,0.0,0.0,0.0,0.0,3.6317,3.581,0.0,0.0,0.0,0.0,0.0,0.0,0.0,0.0,0.0,0.0,0.0,0.0,0.0,4.3172,4.3868,4.4595,4.5444,4.6365,4.6838,4.7361,4.7933,4.838,4.8152,4.7446,4.7801,0.0,4.456,4.5016,0.0,0.0,0.0,0.0,0.0,0.0,0.0,0.0,0.0,0.0,0.0,0.0,0.0,0.0,0.0,0.0,0.0,0.0,0.0,0.0,0.0,0.0,5.1356,5.2005,5.1688,5.1287,5.1391,4.7689,4.4935,4.6885,4.6443,4.5879,0.0,0.0,0.0,0.0,0.0,0.0,5.5959,6.067,6.3981,6.4237,6.5392,6.647,6.733,6.717,6.683,6.6242,6.845,6.711,6.1167,6.3733,0.0,0.0,0.0,0.0,0.0,0.0,0.0,0.0,0.0,0.0,0.0,0.0,0.0,0.0,0.0,0.0,0.0,0.0,0.0,0.0,0.0,0.0,0.0,0.0,0.0,0.0,0.0,0.0,0.0,0.0,0.0,0.0,0.0,0.0,0.0,0.0,0.0,0.0,0.0,0.0,0.0,0.0,0.0,0.0,0.0,0.0,0.0,0.0,0.0,0.0,4.2971,4.3514,4.4426,4.4523,4.4874,4.5306,4.3503,4.2711,4.2554,4.1048,0.0,0.0,0.0,0.0,0.0,0.0,0.0,0.0,0.0,0.0,0.0,0.0,0.0,0.0,0.0,0.0,0.0,0.0,0.0,0.0,0.0,0.0,4.6633,4.7275,4.8139,4.8271,4.6318,0.0,0.0,0.0,0.0,0.0,0.0,0.0,0.0,0.0,0.0,0.0,5.0604,5.2742,5.4794,5.6541,5.6963,5.8138,6.0823,5.9691,6.0282,6.3708,6.1168,5.9742,0.0,0.0,0.0,0.0,0.0,0.0,0.0,0.0,0.0,0.0,0.0,0.0,0.0,0.0,0.0,0.0,0.0,0.0,0.0,0.0,0.0,0.0,0.0,0.0,0.0,0.0,0.0,0.0,0.0,0.0,0.0,0.0,0.0,0.0,0.0,0.0,0.0,0.0,0.0,0.0,0.0,0.0,0.0,0.0,0.0,0.0,0.0,0.0,0.0,0.0,0.0,0.0,0.0,0.0,0.0,0.0,0.0,0.0,4.1506,3.9631,0.0,0.0,0.0,0.0,0.0,0.0,0.0,0.0,0.0,0.0,0.0,0.0,0.0,0.0,0.0,0.0,0.0,0.0,0.0,0.0,0.0,0.0,0.0,0.0,0.0,0.0,0.0,0.0,0.0,0.0,0.0,0.0,0.0,0.0,0.0,0.0,0.0,0.0,0.0,0.0,4.9922,5.175,5.3314,5.4302,5.411,5.4399,5.5717,5.5476,5.5654,5.6547,5.6523,0.0,0.0,0.0,0.0,0.0,0.0,0.0,0.0,0.0,0.0,0.0,0.0,0.0,0.0,0.0,0.0,0.0,0.0,0.0,0.0,0.0,0.0,0.0,0.0,0.0,0.0,0.0,0.0,0.0,0.0,0.0,0.0,0.0,0.0,0.0,0.0,0.0,0.0,0.0,0.0,0.0,0.0,0.0,0.0,0.0,0.0,0.0,0.0,0.0,0.0,0.0,0.0,0.0,0.0,0.0,0.0,0.0,0.0,0.0,3.9204,3.6565,0.0,0.0,0.0,0.0,0.0,0.0,0.0,0.0,0.0,0.0,0.0,0.0,0.0,0.0,0.0,0.0,0.0,0.0,0.0,0.0,0.0,0.0,0.0,0.0,0.0,0.0,0.0,0.0,0.0,0.0,0.0,0.0,0.0,0.0,0.0,0.0,0.0,0.0,0.0,0.0,5.022,5.2464,5.4025,5.4103,5.3425,5.285,5.2575,5.3134,5.2513,5.0138,5.2691,0.0,0.0,0.0,0.0,0.0,0.0,0.0,0.0,0.0,0.0,0.0,0.0,0.0,0.0,0.0,0.0,0.0,0.0,0.0,0.0,0.0,0.0,0.0,0.0,0.0,0.0,0.0,0.0,0.0,0.0,0.0,0.0,0.0,0.0,0.0,0.0,0.0,0.0,0.0,0.0,0.0,0.0,0.0,0.0,0.0,0.0,0.0,0.0,0.0,0.0,0.0,0.0,0.0,0.0,0.0,0.0,0.0,0.0,0.0,0.0,0.0,0.0,0.0,0.0,0.0,0.0,0.0,0.0,0.0,0.0,0.0,0.0,0.0,0.0,0.0,0.0,0.0,0.0,0.0,0.0,0.0,0.0,0.0,0.0,0.0,0.0,0.0,0.0,0.0,0.0,0.0,0.0,0.0,0.0,0.0,0.0,0.0,0.0,0.0,0.0,0.0,4.8982,5.1901,5.3997,5.4343,5.328,5.2636,5.2833,5.2575,5.1362,4.8922,0.0,0.0,0.0,0.0,0.0,0.0,0.0,0.0,0.0,0.0,0.0,0.0,0.0,0.0,0.0,0.0,0.0,0.0,0.0,0.0,0.0,0.0,0.0,0.0,0.0,0.0,0.0,0.0,0.0,0.0,0.0,0.0,0.0,0.0,0.0,0.0,0.0,0.0,0.0,0.0,0.0,0.0,0.0,0.0,0.0,0.0,0.0,0.0,0.0,0.0,0.0,0.0,0.0,0.0,0.0,0.0,0.0,0.0,0.0,0.0,0.0,0.0,0.0,0.0,0.0,0.0,0.0,0.0,0.0,0.0,0.0,0.0,0.0,0.0,0.0,0.0,0.0,0.0,0.0,0.0,0.0,0.0,0.0,0.0,0.0,0.0,0.0,0.0,0.0,0.0,0.0,0.0,0.0,0.0,0.0,0.0,0.0,0.0,0.0,0.0,0.0,0.0,5.02,5.3151,5.5315,5.5781,5.4323,5.3322,5.3439,5.2936,5.1421,4.8514,0.0,0.0,0.0,0.0,0.0,0.0,0.0,0.0,0.0,0.0,0.0,0.0,0.0,0.0,0.0,0.0,0.0,0.0,0.0,0.0,0.0,0.0,0.0,0.0,0.0,0.0,0.0,0.0,0.0,0.0,0.0,0.0,0.0,0.0,0.0,0.0,0.0,0.0,0.0,0.0,0.0,0.0,0.0,0.0,0.0,0.0,0.0,0.0,0.0,0.0,0.0,0.0,0.0,0.0,0.0,0.0,0.0,0.0,0.0,0.0,0.0,0.0,0.0,0.0,0.0,0.0,0.0,0.0,0.0,0.0,0.0,0.0,0.0,0.0,0.0,0.0,0.0,0.0,0.0,0.0,0.0,0.0,0.0,0.0,0.0,0.0,0.0,0.0,0.0,0.0,0.0,0.0,0.0,0.0,0.0,0.0,0.0,0.0,0.0,0.0,0.0,0.0,5.0122,5.3851,5.6421,5.6608,5.5343,5.4381,5.4133,5.3486,5.1552,4.7849,0.0,0.0,0.0,0.0,0.0,0.0,0.0,0.0,0.0,0.0,0.0,0.0,0.0,0.0,0.0,0.0,0.0,0.0,0.0,0.0,0.0,0.0,0.0,0.0,0.0,0.0,0.0,0.0,0.0,0.0,0.0,0.0,0.0,0.0,0.0,0.0,0.0,0.0,0.0,0.0,0.0,0.0,0.0,0.0,0.0,0.0,0.0,0.0,0.0,0.0,0.0,0.0,0.0,0.0,0.0,0.0,0.0,0.0,0.0,0.0,0.0,0.0,0.0,0.0,0.0,0.0,0.0,0.0,0.0,0.0,0.0,0.0,0.0,0.0,0.0,0.0,0.0,0.0,0.0,0.0,0.0,0.0,0.0,0.0,0.0,0.0,0.0,0.0,0.0,0.0,0.0,0.0,0.0,0.0,0.0,0.0,0.0,0.0,0.0,0.0,0.0,0.0,4.7791,5.338,5.7082,5.6452,5.6141,5.5655,5.4875,5.41,5.1545,0.0,0.0,0.0,0.0,0.0,0.0,0.0,0.0,0.0,0.0,0.0,0.0,0.0,0.0,0.0,0.0,0.0,0.0,0.0,0.0,0.0,0.0,0.0,0.0,0.0,0.0,0.0,0.0,0.0,0.0,0.0,0.0,0.0,0.0,0.0,0.0,0.0,0.0,0.0,0.0,0.0,0.0,0.0,0.0,0.0,0.0,0.0,0.0,0.0,0.0,0.0,0.0,0.0,0.0,0.0,0.0,0.0,0.0,0.0,0.0,0.0,0.0,0.0,0.0,0.0,0.0,0.0,0.0,0.0,0.0,0.0,0.0,0.0,0.0,0.0,0.0,0.0,0.0,0.0,0.0,0.0,0.0,0.0,0.0,0.0,0.0,0.0,0.0,0.0,0.0,0.0,0.0,0.0,0.0,0.0,0.0,0.0,0.0,0.0,0.0,0.0,0.0,0.0,4.7454,5.1304,5.4289,5.569,5.5791,5.5465,5.4879,5.4175,5.1779,4.7074,0.0,0.0,0.0,0.0,0.0,0.0,0.0,0.0,0.0,0.0,0.0,0.0,0.0,0.0,0.0,0.0,0.0,0.0,0.0,0.0,0.0,0.0,0.0,0.0,0.0,0.0,0.0,0.0,0.0,0.0,0.0,0.0,0.0,0.0,0.0,0.0,0.0,0.0,0.0,0.0,0.0,0.0,0.0,0.0,0.0,0.0,0.0,0.0,0.0,0.0,0.0,0.0,0.0,0.0,0.0,0.0,0.0,0.0,0.0,0.0,0.0,0.0,0.0,0.0,0.0,0.0,0.0,0.0,0.0,0.0,0.0,0.0,0.0,0.0,0.0,0.0,0.0,0.0,0.0,0.0,0.0,0.0,0.0,0.0,0.0,0.0,0.0,0.0,0.0,0.0,0.0,0.0,0.0,0.0,0.0,0.0,0.0,0.0,0.0,0.0,0.0,0.0,0.0,5.0018,5.3031,5.4485,5.5005,5.489,5.3876,5.3642,5.1329,4.6036,0.0,0.0,0.0,0.0,0.0,0.0,0.0,0.0,0.0,0.0,0.0,0.0,0.0,0.0,0.0,0.0,0.0,0.0,0.0,0.0,0.0,0.0,0.0,0.0,0.0,0.0,0.0,0.0,0.0,0.0,0.0,0.0,0.0,0.0,0.0,0.0,0.0,0.0,0.0,0.0,0.0,0.0,0.0,0.0,0.0,0.0,0.0,0.0,0.0,0.0,0.0,0.0,0.0,0.0,0.0,0.0,0.0,0.0,0.0,0.0,0.0,0.0,0.0,0.0,0.0,0.0,0.0,0.0,0.0,0.0,0.0,0.0,0.0,0.0,0.0,0.0,0.0,0.0,0.0,0.0,0.0,0.0,0.0,0.0,0.0,0.0,0.0,0.0,0.0,0.0,0.0,0.0,0.0,0.0,0.0,0.0,0.0,0.0,0.0,0.0,0.0,0.0,0.0,4.9157,5.259,5.2876,5.3864,5.3812,5.2057,5.2459,5.016,4.3882,4.3441,0.0,0.0,0.0,0.0,0.0,0.0,0.0,0.0,0.0,0.0,0.0,0.0,0.0,0.0,0.0,0.0,0.0,0.0,0.0,0.0,0.0,0.0,0.0,0.0,0.0,0.0,0.0,0.0,0.0,0.0,0.0,0.0,0.0,0.0,0.0,0.0,0.0,0.0,0.0,0.0,0.0,0.0,0.0,0.0,0.0,0.0,0.0,0.0,0.0,0.0,0.0,0.0,0.0,0.0,0.0,0.0,0.0,0.0,0.0,0.0,0.0,0.0,0.0,0.0,0.0,0.0,0.0,0.0,0.0,0.0,0.0,0.0,0.0,0.0,0.0,0.0,0.0,0.0,0.0,0.0,0.0,0.0,0.0,0.0,0.0,0.0,0.0,0.0,0.0,0.0,0.0,0.0,0.0,0.0,0.0,0.0,0.0,0.0,0.0,0.0,0.0,0.0,4.5378,4.77,5.0795,5.1368,5.1186,5.0278,5.0304,4.8252,4.3272,4.2571,0.0,0.0,0.0,0.0,0.0,0.0,0.0,0.0,0.0,0.0,0.0,0.0,0.0,0.0,0.0,0.0,0.0,0.0,0.0,0.0,0.0,0.0,0.0,0.0,0.0,0.0,0.0,0.0,0.0,0.0,0.0,0.0,0.0,0.0,0.0,0.0,0.0,0.0,0.0,0.0,0.0,0.0,0.0,0.0,0.0,0.0,0.0,0.0,0.0,0.0,0.0,0.0,0.0,0.0,0.0,0.0,0.0,0.0,0.0,0.0,0.0,0.0,0.0,0.0,0.0,0.0,0.0,0.0,0.0,0.0,0.0,0.0,0.0,0.0,0.0,0.0,0.0,0.0,0.0,0.0,0.0,0.0,0.0,0.0,0.0,0.0,0.0,0.0,0.0,0.0,0.0,0.0,0.0,0.0,0.0,0.0,0.0,0.0,0.0,0.0,0.0,0.0,4.2077,4.4572,4.8824,4.9796,4.9733,4.8839,4.8787,4.6815,4.2253,4.1484,0.0,0.0,0.0,0.0,0.0,0.0,0.0,0.0,0.0,0.0,0.0,0.0,0.0,0.0,0.0,0.0,0.0,0.0,0.0,0.0,0.0,0.0,0.0,0.0,0.0,0.0,0.0,0.0,0.0,0.0,0.0,0.0,0.0,0.0,0.0,0.0,0.0,0.0,0.0,0.0,0.0,0.0,0.0,0.0,0.0,0.0,0.0,0.0,0.0,0.0,0.0,0.0,0.0,0.0,0.0,0.0,0.0,0.0,0.0,0.0,0.0,0.0,0.0,0.0,0.0,0.0,0.0,0.0,0.0,0.0,0.0,0.0,0.0,0.0,0.0,0.0,0.0,0.0,0.0,0.0,0.0,0.0,0.0,0.0,0.0,0.0,0.0,0.0,0.0,0.0,0.0,0.0,0.0,0.0,0.0,0.0,0.0,0.0,0.0,0.0,0.0,0.0,0.0,4.2377,4.627,4.8086,4.8657,4.7671,4.7593,4.5673,4.1158,0.0,0.0,0.0,0.0,0.0,0.0,0.0,0.0,0.0,0.0,0.0,0.0,0.0,0.0,0.0,0.0,0.0,0.0,0.0,0.0,0.0,0.0,0.0,0.0,0.0,0.0,0.0,0.0,0.0,0.0,0.0,0.0,0.0,0.0,0.0,0.0,0.0,0.0,0.0,0.0,0.0,0.0,0.0,0.0,0.0,0.0,0.0,0.0,0.0,0.0,0.0,0.0,0.0,0.0,0.0,0.0,0.0,0.0,0.0,0.0,0.0,0.0,0.0,0.0,0.0,0.0,0.0,0.0,0.0,0.0,0.0,0.0,0.0,0.0,0.0,0.0,0.0,0.0,0.0,0.0,0.0,0.0,0.0,0.0,0.0,0.0,0.0,0.0,0.0,0.0,0.0,0.0,0.0,0.0,0.0,0.0,0.0,0.0,0.0,0.0,0.0,0.0,0.0,0.0,4.0622,4.1349,4.4624,4.6703,4.6521,4.6495,4.4754,4.0622,0.0,0.0,0.0,0.0,0.0,0.0,0.0,0.0,0.0,0.0,0.0,0.0,0.0,0.0]}]]]